[[{"header":{"parameterUnit":"m.s-1","parameterCategory":1,"la1":31.0,"la2":29.5877,"lo1":-88.7671,"lo2":-86.6584,"dy":0.0162,"dx":0.0185,"nx":115,"ny":88,"refTime":"2024-05-02T18:00:00:Z","depth":0,"parameterNumber":2,"parameterNumberName":"U-component_of_WINDS"},"data":[0.0,0.0,0.0,0.0,0.0,0.0,0.0,0.0,0.0,0.0,0.0,0.0,0.0,0.0,0.0,0.0,0.0,0.0,0.0,0.0,0.0,0.0,0.0,0.0,0.0,0.0,0.0,0.0,0.0,0.0,0.0,0.0,0.0,0.0,0.0,0.0,0.0,0.0,0.0,0.0,0.0,0.0,0.0,0.0,0.0,0.0,0.0,0.0,0.0,0.0,0.0,0.0,0.0,0.0,0.0,0.0,0.0,0.0,0.0,0.0,0.0,0.0,0.0,0.0,0.0,0.0,0.0,0.0,0.0,0.0,0.0,0.0,0.0,0.0,0.0,0.0,0.0,0.0,0.0,0.0,0.0,0.0,0.0,0.0,0.0,0.0,0.0,0.0,0.0,0.0,0.0,0.0,0.0,0.0,0.0,0.0,0.0,0.0,0.0,0.0,0.0,0.0,0.0,0.0,0.0,0.0,0.0,0.0,0.0,0.0,0.0,0.0,0.0,0.0,0.0,0.0,0.0,0.0,0.0,0.0,0.0,0.0,0.0,0.0,0.0,0.0,0.0,0.0,0.0,0.0,0.0,0.0,0.0,0.0,0.0,0.0,0.0,0.0,0.0,0.0,0.0,0.0,0.0,0.0,0.0,0.0,0.0,0.0,0.0,0.0,0.0,0.0,0.0,0.0,0.0,0.0,0.0,0.0,0.0,0.0,0.0,0.0,0.0,0.0,0.0,0.0,0.0,0.0,0.0,0.0,0.0,0.0,0.0,0.0,0.0,0.0,0.0,0.0,0.0,0.0,0.0,0.0,0.0,0.0,0.0,0.0,0.0,0.0,0.0,0.0,0.0,0.0,0.0,0.0,0.0,0.0,0.0,0.0,0.0,0.0,0.0,0.0,0.0,0.0,0.0,0.0,0.0,0.0,0.0,0.0,0.0,0.0,0.0,0.0,0.0,0.0,0.0,0.0,0.0,0.0,0.0,0.0,0.0,0.0,0.0,0.0,0.0,0.0,0.0,0.0,0.0,0.0,0.0,0.0,0.0,0.0,0.0,0.0,0.0,0.0,0.0,0.0,0.0,0.0,0.0,0.0,0.0,0.0,0.0,0.0,0.0,0.0,0.0,0.0,0.0,0.0,0.0,0.0,0.0,0.0,0.0,0.0,0.0,0.0,0.0,0.0,0.0,0.0,0.0,0.0,0.0,0.0,0.0,0.0,0.0,0.0,0.0,0.0,0.0,0.0,0.0,0.0,0.0,0.0,0.0,0.0,0.0,0.0,0.0,0.0,0.0,0.0,0.0,0.0,0.0,0.0,0.0,0.0,0.0,0.0,0.0,0.0,0.0,0.0,0.0,0.0,0.0,0.0,0.0,0.0,0.0,0.0,0.0,0.0,0.0,0.0,0.0,0.0,0.0,0.0,0.0,0.0,0.0,0.0,0.0,0.0,0.0,0.0,0.0,0.0,0.0,0.0,0.0,0.0,0.0,0.0,0.0,0.0,0.0,0.0,0.0,0.0,0.0,0.0,0.0,0.0,0.0,0.0,0.0,0.0,0.0,0.0,0.0,0.0,0.0,0.0,0.0,0.0,0.0,0.0,0.0,0.0,0.0,0.0,0.0,0.0,0.0,0.0,0.0,0.0,0.0,0.0,0.0,0.0,0.0,0.0,0.0,0.0,0.0,0.0,0.0,0.0,0.0,0.0,0.0,0.0,0.0,0.0,0.0,0.0,0.0,0.0,0.0,0.0,0.0,0.0,0.0,0.0,0.0,0.0,0.0,0.0,0.0,0.0,0.0,0.0,0.0,0.0,0.0,0.0,0.0,0.0,0.0,0.0,0.0,0.0,0.0,0.0,0.0,0.0,0.0,0.0,0.0,0.0,0.0,0.0,0.0,0.0,0.0,0.0,0.0,0.0,0.0,0.0,0.0,0.0,0.0,0.0,0.0,0.0,0.0,0.0,0.0,0.0,0.0,0.0,0.0,0.0,0.0,0.0,0.0,0.0,0.0,0.0,0.0,0.0,0.0,0.0,0.0,0.0,0.0,0.0,0.0,0.0,0.0,0.0,0.0,0.0,0.0,0.0,0.0,0.0,0.0,0.0,0.0,0.0,0.0,0.0,0.0,0.0,0.0,0.0,0.0,0.0,0.0,0.0,0.0,0.0,0.0,0.0,0.0,0.0,0.0,0.0,0.0,0.0,0.0,0.0,0.0,0.0,0.0,0.0,0.0,0.0,0.0,0.0,0.0,0.0,0.0,0.0,0.0,0.0,0.0,0.0,0.0,0.0,0.0,0.0,0.0,0.0,0.0,0.0,0.0,0.0,0.0,0.0,0.0,0.0,0.0,0.0,0.0,0.0,0.0,0.0,0.0,0.0,0.0,0.0,0.0,0.0,0.0,0.0,0.0,0.0,0.0,0.0,0.0,0.0,0.0,0.0,0.0,0.0,0.0,0.0,0.0,0.0,0.0,0.0,0.0,0.0,0.0,0.0,0.0,0.0,0.0,0.0,0.0,0.0,0.0,0.0,0.0,0.0,0.0,0.0,0.0,0.0,0.0,0.0,0.0,0.0,0.0,0.0,0.0,0.0,0.0,0.0,0.0,0.0,0.0,0.0,0.0,0.0,0.0,0.0,0.0,0.0,0.0,0.0,0.0,0.0,0.0,0.0,0.0,0.0,0.0,0.0,0.0,0.0,0.0,0.0,0.0,0.0,0.0,0.0,0.0,0.0,0.0,0.0,0.0,0.0,0.0,0.0,0.0,0.0,0.0,0.0,0.0,0.0,0.0,0.0,0.0,0.0,0.0,0.0,0.0,0.0,0.0,0.0,0.0,0.0,0.0,0.0,0.0,0.0,0.0,0.0,0.0,0.0,0.0,0.0,0.0,0.0,0.0,0.0,0.0,0.0,0.0,0.0,0.0,0.0,0.0,0.0,0.0,0.0,0.0,0.0,0.0,0.0,0.0,0.0,0.0,0.0,0.0,0.0,0.0,0.0,0.0,0.0,0.0,0.0,0.0,0.0,0.0,0.0,0.0,0.0,0.0,0.0,0.0,0.0,0.0,0.0,0.0,0.0,0.0,0.0,0.0,0.0,0.0,0.0,0.0,0.0,0.0,0.0,0.0,0.0,0.0,0.0,0.0,0.0,0.0,0.0,0.0,0.0,0.0,0.0,0.0,0.0,0.0,0.0,0.0,0.0,0.0,0.0,0.0,0.0,0.0,0.0,0.0,0.0,0.0,0.0,0.0,0.0,0.0,0.0,0.0,0.0,0.0,0.0,0.0,0.0,0.0,0.0,0.0,0.0,0.0,0.0,0.0,0.0,0.0,0.0,0.0,0.0,0.0,0.0,0.0,0.0,0.0,0.0,0.0,0.0,0.0,0.0,0.0,0.0,0.0,0.0,0.0,0.0,0.0,0.0,0.0,0.0,0.0,0.0,0.0,0.0,0.0,0.0,0.0,0.0,0.0,0.0,0.0,0.0,0.0,0.0,0.0,0.0,0.0,0.0,0.0,0.0,0.0,0.0,0.0,0.0,0.0,0.0,0.0,0.0,0.0,0.0,0.0,0.0,0.0,0.0,0.0,0.0,0.0,0.0,0.0,0.0,0.0,0.0,0.0,0.0,0.0,0.0,0.0,0.0,0.0,0.0,0.0,0.0,0.0,0.0,0.0,0.0,0.0,0.0,0.0,0.0,0.0,0.0,0.0,0.0,0.0,0.0,0.0,0.0,0.0,0.0,0.0,0.0,0.0,0.0,0.0,0.0,0.0,0.0,0.0,0.0,0.0,0.0,0.0,0.0,0.0,0.0,0.0,0.0,0.0,0.0,0.0,0.0,0.0,0.0,0.0,0.0,0.0,0.0,0.0,0.0,0.0,0.0,0.0,0.0,0.0,0.0,0.0,0.0,0.0,0.0,0.0,0.0,0.0,0.0,0.0,0.0,0.0,0.0,0.0,0.0,0.0,0.0,0.0,0.0,0.0,0.0,0.0,0.0,0.0,0.0,0.0,0.0,0.0,0.0,0.0,0.0,0.0,0.0,0.0,0.0,0.0,0.0,0.0,0.0,0.0,0.0,0.0,0.0,0.0,0.0,0.0,0.0,0.0,0.0,0.0,0.0,0.0,0.0,0.0,0.0,0.0,0.0,0.0,0.0,0.0,0.0,0.0,0.0,0.0,0.0,0.0,0.0,0.0,0.0,0.0,0.0,0.0,0.0,0.0,0.0,0.0,0.0,0.0,0.0,0.0,0.0,0.0,0.0,0.0,0.0,0.0,0.0,-2.231,0.0,0.0,0.0,0.0,0.0,0.0,0.0,0.0,0.0,0.0,0.0,0.0,0.0,0.0,0.0,0.0,0.0,0.0,0.0,0.0,0.0,0.0,0.0,0.0,0.0,0.0,0.0,0.0,0.0,0.0,0.0,0.0,0.0,0.0,0.0,0.0,0.0,0.0,0.0,0.0,0.0,0.0,0.0,0.0,0.0,0.0,0.0,0.0,0.0,0.0,0.0,0.0,0.0,0.0,0.0,0.0,0.0,0.0,0.0,0.0,0.0,0.0,0.0,0.0,0.0,0.0,0.0,0.0,0.0,0.0,0.0,0.0,0.0,0.0,0.0,0.0,0.0,0.0,0.0,0.0,0.0,0.0,0.0,0.0,0.0,0.0,0.0,0.0,0.0,0.0,0.0,0.0,0.0,0.0,0.0,0.0,0.0,0.0,0.0,0.0,0.0,0.0,0.0,0.0,0.0,0.0,0.0,0.0,0.0,0.0,-2.2313,-2.2313,-2.2313,-2.2313,-2.2313,0.0,0.0,0.0,0.0,0.0,0.0,0.0,0.0,0.0,0.0,0.0,0.0,0.0,0.0,0.0,0.0,0.0,0.0,0.0,0.0,0.0,0.0,0.0,0.0,0.0,0.0,0.0,0.0,0.0,0.0,0.0,0.0,0.0,0.0,0.0,0.0,0.0,0.0,0.0,0.0,0.0,0.0,0.0,0.0,0.0,0.0,0.0,0.0,0.0,0.0,0.0,0.0,0.0,0.0,0.0,0.0,0.0,0.0,0.0,0.0,0.0,0.0,0.0,0.0,0.0,0.0,0.0,0.0,0.0,0.0,0.0,0.0,0.0,0.0,0.0,0.0,0.0,0.0,0.0,0.0,0.0,0.0,0.0,0.0,0.0,0.0,0.0,0.0,0.0,0.0,0.0,0.0,0.0,0.0,0.0,0.0,0.0,0.0,0.0,0.0,0.0,0.0,0.0,0.0,0.0,0.0,0.0,0.0,0.0,0.0,0.0,0.0,-2.2801,-2.2801,-2.2784,0.0,0.0,0.0,0.0,0.0,0.0,0.0,0.0,0.0,0.0,0.0,0.0,0.0,0.0,0.0,0.0,0.0,0.0,0.0,0.0,0.0,0.0,0.0,0.0,0.0,0.0,0.0,0.0,0.0,0.0,0.0,0.0,0.0,0.0,0.0,0.0,0.0,0.0,0.0,0.0,0.0,0.0,0.0,0.0,0.0,0.0,0.0,0.0,0.0,0.0,0.0,0.0,0.0,0.0,0.0,0.0,0.0,0.0,0.0,0.0,0.0,0.0,0.0,0.0,0.0,0.0,0.0,0.0,0.0,0.0,0.0,0.0,0.0,0.0,0.0,0.0,0.0,0.0,0.0,0.0,0.0,0.0,0.0,0.0,0.0,0.0,0.0,0.0,0.0,0.0,0.0,0.0,0.0,0.0,0.0,0.0,0.0,0.0,0.0,0.0,0.0,0.0,0.0,0.0,0.0,0.0,0.0,0.0,0.0,0.0,-2.2936,-2.4254,-2.4288,0.0,-2.4237,0.0,0.0,0.0,0.0,0.0,0.0,0.0,0.0,0.0,0.0,0.0,0.0,0.0,0.0,0.0,0.0,0.0,0.0,0.0,0.0,0.0,0.0,0.0,0.0,0.0,0.0,0.0,0.0,0.0,0.0,0.0,0.0,0.0,0.0,0.0,0.0,0.0,0.0,0.0,0.0,0.0,0.0,0.0,0.0,0.0,0.0,0.0,0.0,0.0,0.0,0.0,0.0,0.0,0.0,0.0,0.0,0.0,0.0,0.0,0.0,0.0,0.0,0.0,0.0,0.0,0.0,0.0,0.0,0.0,0.0,0.0,0.0,0.0,0.0,0.0,0.0,0.0,0.0,0.0,0.0,0.0,0.0,0.0,0.0,0.0,0.0,0.0,0.0,0.0,0.0,0.0,0.0,0.0,0.0,0.0,0.0,0.0,0.0,0.0,0.0,0.0,0.0,0.0,0.0,0.0,0.0,0.0,0.0,0.0,0.0,-2.2801,-2.3816,-2.3864,-2.3644,0.0,0.0,0.0,0.0,0.0,0.0,0.0,0.0,0.0,0.0,0.0,0.0,0.0,0.0,0.0,0.0,0.0,0.0,0.0,0.0,0.0,0.0,0.0,0.0,0.0,0.0,0.0,0.0,0.0,0.0,0.0,0.0,0.0,0.0,0.0,0.0,0.0,0.0,0.0,0.0,0.0,0.0,0.0,0.0,0.0,0.0,0.0,0.0,0.0,0.0,0.0,0.0,0.0,0.0,0.0,0.0,0.0,0.0,0.0,0.0,0.0,0.0,0.0,0.0,0.0,0.0,0.0,0.0,0.0,0.0,0.0,0.0,0.0,0.0,0.0,0.0,0.0,0.0,0.0,0.0,0.0,0.0,0.0,0.0,0.0,0.0,0.0,0.0,0.0,0.0,0.0,0.0,0.0,0.0,0.0,0.0,0.0,0.0,0.0,0.0,0.0,0.0,0.0,0.0,0.0,0.0,0.0,0.0,0.0,0.0,-2.2803,-2.3054,-2.39,-2.341,-2.3038,-2.2888,0.0,0.0,0.0,0.0,0.0,0.0,0.0,0.0,0.0,0.0,0.0,0.0,0.0,0.0,0.0,0.0,0.0,0.0,0.0,0.0,0.0,0.0,0.0,0.0,0.0,0.0,0.0,0.0,0.0,0.0,0.0,0.0,0.0,0.0,0.0,0.0,0.0,0.0,0.0,0.0,0.0,0.0,0.0,0.0,0.0,0.0,0.0,0.0,0.0,0.0,0.0,0.0,0.0,0.0,0.0,0.0,0.0,0.0,0.0,0.0,0.0,0.0,0.0,0.0,0.0,0.0,0.0,0.0,0.0,0.0,0.0,0.0,0.0,0.0,0.0,0.0,0.0,0.0,0.0,0.0,0.0,0.0,0.0,0.0,0.0,0.0,0.0,0.0,0.0,0.0,0.0,0.0,0.0,0.0,0.0,0.0,0.0,0.0,0.0,0.0,0.0,0.0,0.0,0.0,0.0,0.0,0.0,0.0,-2.5253,-2.4036,-2.4019,-2.5339,-2.3446,-2.2987,0.0,0.0,0.0,0.0,0.0,0.0,0.0,0.0,0.0,0.0,0.0,0.0,0.0,0.0,0.0,0.0,0.0,0.0,0.0,0.0,0.0,0.0,0.0,0.0,0.0,0.0,0.0,0.0,0.0,0.0,0.0,0.0,0.0,0.0,0.0,0.0,0.0,0.0,0.0,0.0,0.0,0.0,0.0,0.0,0.0,0.0,0.0,0.0,0.0,0.0,0.0,0.0,0.0,0.0,0.0,0.0,0.0,0.0,0.0,0.0,0.0,0.0,0.0,0.0,0.0,0.0,0.0,0.0,0.0,0.0,0.0,0.0,0.0,0.0,0.0,0.0,0.0,0.0,0.0,0.0,0.0,0.0,0.0,0.0,0.0,0.0,0.0,0.0,0.0,0.0,0.0,0.0,0.0,0.0,0.0,0.0,0.0,0.0,0.0,0.0,0.0,0.0,0.0,0.0,0.0,0.0,0.0,0.0,0.0,-2.3429,-2.3427,-2.3646,-2.4137,-2.341,-2.3038,0.0,0.0,0.0,0.0,0.0,0.0,0.0,0.0,0.0,0.0,0.0,0.0,0.0,0.0,0.0,0.0,0.0,0.0,0.0,0.0,0.0,0.0,0.0,0.0,0.0,0.0,0.0,0.0,0.0,0.0,0.0,0.0,0.0,0.0,0.0,0.0,0.0,0.0,0.0,0.0,0.0,0.0,0.0,0.0,0.0,0.0,0.0,0.0,0.0,0.0,0.0,0.0,0.0,0.0,0.0,0.0,0.0,0.0,0.0,0.0,0.0,0.0,0.0,0.0,0.0,0.0,0.0,0.0,0.0,0.0,0.0,0.0,0.0,0.0,0.0,0.0,0.0,0.0,0.0,0.0,0.0,0.0,0.0,0.0,0.0,0.0,0.0,0.0,0.0,0.0,0.0,0.0,0.0,0.0,0.0,0.0,0.0,0.0,0.0,0.0,0.0,0.0,0.0,0.0,0.0,0.0,0.0,0.0,0.0,-2.3004,0.0,-2.3746,-2.3746,-2.3291,-2.2818,0.0,0.0,0.0,0.0,0.0,0.0,0.0,0.0,0.0,0.0,0.0,0.0,0.0,0.0,0.0,0.0,0.0,0.0,0.0,0.0,0.0,0.0,0.0,0.0,0.0,0.0,0.0,0.0,0.0,0.0,0.0,0.0,0.0,0.0,0.0,0.0,0.0,0.0,0.0,0.0,0.0,0.0,0.0,0.0,0.0,0.0,0.0,0.0,0.0,0.0,0.0,0.0,0.0,0.0,0.0,0.0,0.0,0.0,0.0,0.0,0.0,0.0,0.0,0.0,0.0,0.0,0.0,0.0,0.0,0.0,0.0,0.0,0.0,0.0,0.0,0.0,0.0,0.0,0.0,0.0,0.0,0.0,0.0,0.0,0.0,0.0,0.0,0.0,0.0,0.0,0.0,0.0,0.0,0.0,0.0,0.0,0.0,0.0,0.0,0.0,0.0,0.0,0.0,0.0,0.0,0.0,0.0,0.0,-2.2972,-2.4355,-2.4423,-2.4406,-2.4457,-2.3088,-2.2313,0.0,0.0,0.0,0.0,0.0,0.0,0.0,0.0,0.0,0.0,0.0,0.0,0.0,0.0,0.0,0.0,0.0,0.0,0.0,0.0,0.0,0.0,0.0,0.0,0.0,0.0,0.0,0.0,0.0,0.0,0.0,0.0,0.0,0.0,0.0,0.0,0.0,0.0,0.0,0.0,0.0,0.0,0.0,0.0,0.0,0.0,0.0,0.0,0.0,0.0,0.0,0.0,0.0,0.0,0.0,0.0,0.0,0.0,0.0,0.0,0.0,0.0,0.0,0.0,0.0,0.0,0.0,0.0,0.0,0.0,0.0,0.0,0.0,0.0,0.0,0.0,0.0,0.0,0.0,0.0,0.0,0.0,0.0,0.0,0.0,0.0,0.0,0.0,0.0,0.0,0.0,0.0,0.0,0.0,0.0,0.0,0.0,0.0,0.0,0.0,0.0,0.0,0.0,0.0,0.0,0.0,0.0,0.0,0.0,-2.2972,-2.3477,-2.3983,-2.4423,-2.3071,-2.253,0.0,0.0,0.0,0.0,0.0,0.0,0.0,0.0,0.0,0.0,0.0,0.0,0.0,0.0,0.0,0.0,0.0,0.0,0.0,0.0,0.0,0.0,0.0,0.0,0.0,0.0,0.0,0.0,0.0,0.0,0.0,0.0,0.0,0.0,0.0,0.0,0.0,0.0,0.0,0.0,0.0,0.0,0.0,0.0,0.0,0.0,0.0,0.0,0.0,0.0,0.0,0.0,0.0,0.0,0.0,0.0,0.0,0.0,0.0,0.0,0.0,0.0,0.0,0.0,0.0,0.0,0.0,0.0,0.0,0.0,0.0,0.0,0.0,0.0,0.0,0.0,0.0,0.0,0.0,0.0,0.0,0.0,0.0,0.0,0.0,0.0,0.0,0.0,0.0,0.0,0.0,0.0,0.0,0.0,0.0,0.0,0.0,0.0,0.0,0.0,0.0,0.0,0.0,0.0,0.0,0.0,0.0,0.0,0.0,-2.2936,-2.3502,-2.4034,-2.4491,-2.3342,-2.2801,-2.297,0.0,0.0,0.0,0.0,0.0,0.0,0.0,0.0,0.0,0.0,0.0,0.0,0.0,0.0,0.0,0.0,0.0,0.0,0.0,0.0,0.0,0.0,0.0,0.0,0.0,0.0,0.0,0.0,0.0,0.0,0.0,0.0,0.0,0.0,0.0,0.0,0.0,0.0,0.0,0.0,0.0,0.0,0.0,0.0,0.0,0.0,0.0,0.0,0.0,0.0,0.0,0.0,0.0,0.0,0.0,0.0,0.0,0.0,0.0,0.0,0.0,0.0,0.0,0.0,0.0,0.0,0.0,0.0,0.0,0.0,0.0,0.0,0.0,0.0,0.0,0.0,0.0,0.0,0.0,0.0,0.0,0.0,0.0,0.0,0.0,0.0,0.0,0.0,0.0,0.0,0.0,0.0,0.0,0.0,0.0,0.0,0.0,0.0,0.0,0.0,0.0,0.0,0.0,0.0,0.0,0.0,0.0,0.0,-2.4017,-2.4406,-2.4626,-2.4626,-2.3848,-2.3088,0.0,0.0,0.0,0.0,0.0,0.0,0.0,0.0,0.0,0.0,0.0,0.0,0.0,0.0,0.0,0.0,0.0,0.0,0.0,0.0,0.0,0.0,0.0,0.0,0.0,0.0,0.0,0.0,0.0,0.0,0.0,0.0,0.0,0.0,0.0,0.0,0.0,0.0,0.0,0.0,0.0,0.0,0.0,0.0,0.0,0.0,0.0,0.0,0.0,0.0,0.0,0.0,0.0,0.0,0.0,0.0,0.0,0.0,0.0,0.0,0.0,0.0,0.0,0.0,0.0,0.0,0.0,0.0,0.0,0.0,0.0,0.0,0.0,0.0,0.0,0.0,0.0,0.0,0.0,0.0,0.0,0.0,0.0,0.0,0.0,0.0,0.0,0.0,0.0,0.0,0.0,0.0,0.0,0.0,0.0,0.0,0.0,0.0,0.0,0.0,0.0,0.0,0.0,0.0,0.0,0.0,0.0,0.0,0.0,-2.542,-2.5883,-2.6132,-2.6082,-2.4372,-2.3577,0.0,0.0,0.0,0.0,0.0,0.0,0.0,0.0,0.0,0.0,0.0,0.0,0.0,0.0,0.0,0.0,0.0,0.0,0.0,0.0,0.0,0.0,0.0,0.0,0.0,0.0,0.0,0.0,0.0,0.0,0.0,0.0,0.0,0.0,0.0,0.0,0.0,0.0,0.0,0.0,0.0,0.0,0.0,0.0,0.0,0.0,0.0,0.0,0.0,0.0,0.0,0.0,0.0,0.0,0.0,0.0,0.0,0.0,0.0,0.0,0.0,0.0,0.0,0.0,0.0,0.0,0.0,0.0,0.0,0.0,0.0,0.0,0.0,0.0,0.0,0.0,0.0,0.0,0.0,0.0,0.0,0.0,0.0,0.0,0.0,0.0,0.0,0.0,0.0,0.0,0.0,0.0,0.0,0.0,0.0,0.0,0.0,0.0,0.0,0.0,0.0,0.0,0.0,0.0,0.0,0.0,0.0,0.0,-2.5402,-2.6167,-2.7499,-2.803,-2.7672,-2.5795,-2.4541,0.0,0.0,0.0,0.0,0.0,0.0,0.0,0.0,0.0,0.0,0.0,0.0,0.0,0.0,0.0,0.0,0.0,0.0,0.0,0.0,0.0,0.0,0.0,0.0,0.0,0.0,0.0,0.0,0.0,0.0,0.0,0.0,0.0,0.0,0.0,0.0,0.0,0.0,0.0,0.0,0.0,0.0,0.0,0.0,0.0,0.0,0.0,0.0,0.0,0.0,0.0,0.0,0.0,0.0,0.0,0.0,0.0,0.0,0.0,0.0,0.0,0.0,0.0,0.0,0.0,0.0,0.0,0.0,0.0,0.0,0.0,0.0,0.0,0.0,0.0,0.0,0.0,0.0,0.0,0.0,0.0,0.0,0.0,0.0,0.0,0.0,0.0,0.0,0.0,0.0,0.0,0.0,0.0,0.0,0.0,0.0,0.0,0.0,0.0,0.0,0.0,0.0,0.0,0.0,0.0,0.0,0.0,0.0,-2.6541,-2.6563,-2.8911,-2.9788,-2.8927,-2.738,-2.5562,0.0,0.0,0.0,0.0,0.0,0.0,0.0,0.0,0.0,0.0,0.0,0.0,0.0,0.0,0.0,0.0,0.0,0.0,0.0,0.0,0.0,0.0,0.0,0.0,0.0,0.0,0.0,0.0,0.0,0.0,0.0,0.0,0.0,0.0,0.0,0.0,0.0,0.0,0.0,0.0,0.0,0.0,0.0,0.0,0.0,0.0,0.0,0.0,0.0,0.0,0.0,0.0,0.0,0.0,0.0,0.0,0.0,0.0,0.0,0.0,0.0,0.0,0.0,0.0,0.0,0.0,0.0,0.0,0.0,0.0,0.0,0.0,0.0,0.0,0.0,0.0,0.0,0.0,0.0,0.0,0.0,0.0,0.0,0.0,0.0,0.0,0.0,0.0,0.0,0.0,0.0,0.0,0.0,0.0,0.0,0.0,0.0,0.0,0.0,0.0,0.0,0.0,0.0,0.0,0.0,0.0,0.0,0.0,-2.6705,-2.7284,-2.8681,-2.9108,-2.8466,-2.65,-2.4919,0.0,0.0,0.0,0.0,0.0,0.0,0.0,0.0,0.0,0.0,0.0,0.0,0.0,0.0,0.0,0.0,0.0,0.0,0.0,0.0,0.0,0.0,0.0,0.0,0.0,0.0,0.0,0.0,0.0,0.0,0.0,0.0,0.0,0.0,0.0,0.0,0.0,0.0,0.0,0.0,0.0,0.0,0.0,0.0,0.0,0.0,0.0,0.0,-1.7237,0.0,0.0,0.0,0.0,0.0,0.0,0.0,0.0,0.0,0.0,0.0,0.0,0.0,0.0,0.0,0.0,0.0,0.0,0.0,0.0,0.0,0.0,0.0,0.0,0.0,0.0,0.0,0.0,0.0,0.0,0.0,0.0,0.0,0.0,0.0,0.0,0.0,0.0,0.0,0.0,0.0,0.0,0.0,0.0,0.0,0.0,0.0,0.0,0.0,0.0,0.0,0.0,0.0,0.0,0.0,0.0,0.0,0.0,0.0,-2.7895,-2.8909,-2.9517,-2.9498,-2.873,-2.6546,-2.4916,0.0,0.0,0.0,0.0,0.0,0.0,0.0,0.0,0.0,0.0,0.0,0.0,0.0,0.0,0.0,0.0,0.0,0.0,0.0,0.0,0.0,0.0,0.0,0.0,0.0,0.0,0.0,0.0,0.0,0.0,0.0,0.0,0.0,0.0,0.0,0.0,0.0,0.0,0.0,0.0,0.0,0.0,0.0,0.0,0.0,0.0,0.0,0.0,0.0,0.0,0.0,0.0,0.0,0.0,0.0,0.0,0.0,0.0,0.0,0.0,0.0,0.0,0.0,0.0,0.0,0.0,0.0,0.0,0.0,0.0,0.0,0.0,0.0,0.0,0.0,0.0,0.0,0.0,0.0,0.0,0.0,0.0,0.0,0.0,0.0,0.0,0.0,0.0,0.0,0.0,0.0,0.0,0.0,0.0,0.0,0.0,0.0,0.0,0.0,0.0,0.0,0.0,0.0,0.0,0.0,0.0,0.0,-2.6888,-2.8959,-3.0275,-3.0407,-2.9982,-2.9025,-2.6801,-2.5043,-2.3935,0.0,0.0,0.0,0.0,0.0,0.0,0.0,0.0,0.0,0.0,0.0,0.0,0.0,0.0,0.0,0.0,0.0,0.0,0.0,0.0,0.0,0.0,0.0,0.0,0.0,0.0,0.0,0.0,0.0,0.0,0.0,0.0,0.0,0.0,0.0,0.0,0.0,0.0,-2.1032,-2.172,0.0,0.0,0.0,0.0,0.0,0.0,0.0,0.0,-1.7525,0.0,0.0,0.0,0.0,0.0,0.0,0.0,0.0,0.0,0.0,0.0,0.0,0.0,0.0,0.0,0.0,0.0,0.0,0.0,0.0,0.0,0.0,0.0,0.0,0.0,0.0,0.0,0.0,0.0,0.0,0.0,0.0,0.0,0.0,0.0,0.0,0.0,0.0,0.0,0.0,0.0,0.0,0.0,0.0,0.0,0.0,0.0,0.0,0.0,0.0,0.0,0.0,0.0,0.0,0.0,0.0,-2.6881,-2.6873,-2.7804,-2.9693,-2.971,-2.9123,-2.7899,-2.6419,-2.4755,-2.3025,0.0,0.0,0.0,0.0,0.0,0.0,0.0,0.0,0.0,0.0,0.0,0.0,0.0,0.0,0.0,0.0,0.0,0.0,0.0,0.0,0.0,0.0,0.0,0.0,0.0,0.0,0.0,0.0,0.0,0.0,0.0,0.0,0.0,0.0,0.0,0.0,0.0,0.0,0.0,-2.3695,-2.4193,0.0,0.0,0.0,0.0,0.0,0.0,0.0,0.0,-1.7876,0.0,0.0,0.0,0.0,0.0,0.0,0.0,0.0,0.0,0.0,0.0,0.0,0.0,0.0,0.0,0.0,0.0,0.0,0.0,0.0,0.0,0.0,0.0,0.0,0.0,0.0,0.0,0.0,0.0,0.0,0.0,0.0,0.0,0.0,0.0,0.0,0.0,0.0,0.0,0.0,0.0,0.0,0.0,0.0,0.0,0.0,0.0,0.0,0.0,0.0,0.0,0.0,0.0,0.0,0.0,-2.6911,-2.7748,-2.8926,-3.0521,-2.9905,-2.9078,-2.8116,-2.6118,-2.4343,0.0,0.0,0.0,0.0,0.0,0.0,0.0,0.0,0.0,0.0,0.0,0.0,0.0,0.0,0.0,0.0,0.0,0.0,0.0,0.0,0.0,0.0,0.0,0.0,0.0,0.0,0.0,0.0,0.0,0.0,0.0,0.0,0.0,0.0,0.0,0.0,0.0,0.0,0.0,0.0,-2.441,-2.4724,-2.5068,0.0,0.0,0.0,0.0,0.0,0.0,-1.9217,-1.8639,0.0,0.0,0.0,0.0,0.0,0.0,0.0,0.0,0.0,0.0,0.0,0.0,0.0,0.0,0.0,0.0,0.0,0.0,0.0,0.0,0.0,0.0,0.0,0.0,0.0,0.0,0.0,0.0,0.0,0.0,0.0,0.0,0.0,0.0,0.0,0.0,0.0,0.0,0.0,0.0,0.0,0.0,0.0,0.0,0.0,0.0,0.0,0.0,0.0,0.0,0.0,0.0,0.0,0.0,0.0,-2.6581,-2.8319,-2.9905,-3.1263,-3.0219,-2.9176,-2.8191,-2.5856,-2.3932,0.0,0.0,0.0,0.0,0.0,0.0,0.0,0.0,0.0,0.0,0.0,0.0,0.0,0.0,0.0,0.0,0.0,0.0,0.0,0.0,0.0,0.0,0.0,0.0,0.0,0.0,0.0,0.0,0.0,0.0,0.0,0.0,0.0,0.0,0.0,0.0,0.0,0.0,0.0,0.0,0.0,-2.5442,-2.56,-2.4687,0.0,0.0,0.0,0.0,-2.1412,-2.0629,0.0,0.0,0.0,0.0,0.0,0.0,0.0,0.0,0.0,0.0,0.0,0.0,0.0,0.0,0.0,0.0,0.0,0.0,0.0,0.0,0.0,0.0,0.0,0.0,0.0,0.0,0.0,0.0,0.0,0.0,0.0,0.0,0.0,0.0,0.0,0.0,0.0,0.0,0.0,0.0,0.0,0.0,0.0,0.0,0.0,0.0,0.0,0.0,0.0,0.0,0.0,0.0,0.0,0.0,0.0,0.0,-2.6467,-2.742,-2.8734,-3.0483,-2.9963,-2.8704,-2.6883,-2.5368,-2.3723,0.0,0.0,0.0,0.0,0.0,0.0,0.0,0.0,0.0,0.0,0.0,0.0,0.0,0.0,0.0,0.0,0.0,0.0,0.0,0.0,0.0,0.0,0.0,0.0,0.0,0.0,0.0,0.0,0.0,0.0,0.0,0.0,0.0,0.0,0.0,0.0,0.0,0.0,0.0,0.0,0.0,-2.753,-2.5839,-2.5457,-2.5136,0.0,0.0,-2.2807,-2.3157,-2.3128,0.0,0.0,0.0,0.0,0.0,0.0,0.0,0.0,0.0,0.0,0.0,0.0,0.0,0.0,0.0,0.0,0.0,0.0,0.0,0.0,0.0,0.0,0.0,0.0,0.0,0.0,0.0,0.0,0.0,0.0,0.0,0.0,0.0,0.0,0.0,0.0,0.0,0.0,0.0,0.0,0.0,0.0,0.0,0.0,0.0,0.0,0.0,0.0,0.0,0.0,0.0,0.0,0.0,0.0,0.0,-2.4223,-2.7091,-2.8199,-2.9157,-2.9939,-2.9741,-2.8622,-2.6671,-2.4941,-2.349,0.0,0.0,0.0,0.0,0.0,0.0,0.0,0.0,0.0,0.0,0.0,0.0,0.0,0.0,0.0,0.0,0.0,0.0,0.0,0.0,0.0,0.0,0.0,0.0,0.0,0.0,0.0,0.0,0.0,0.0,0.0,0.0,0.0,0.0,0.0,0.0,0.0,0.0,0.0,0.0,0.0,0.0,-2.6273,-2.6467,0.0,0.0,0.0,-2.5647,-2.5815,0.0,0.0,0.0,0.0,0.0,0.0,0.0,0.0,0.0,0.0,0.0,0.0,0.0,0.0,0.0,0.0,0.0,0.0,0.0,0.0,0.0,0.0,0.0,0.0,0.0,0.0,0.0,0.0,0.0,0.0,0.0,0.0,0.0,0.0,0.0,0.0,0.0,0.0,0.0,0.0,0.0,0.0,0.0,0.0,0.0,0.0,0.0,0.0,0.0,0.0,0.0,0.0,0.0,0.0,0.0,0.0,0.0,-2.754,-2.8933,-2.9621,-2.9621,-2.9621,-2.8547,-2.6408,-2.4567,0.0,0.0,0.0,0.0,0.0,0.0,0.0,0.0,0.0,0.0,0.0,0.0,0.0,0.0,0.0,0.0,0.0,0.0,0.0,0.0,0.0,0.0,0.0,0.0,0.0,0.0,0.0,-1.7483,0.0,0.0,0.0,0.0,0.0,0.0,0.0,0.0,0.0,0.0,0.0,0.0,0.0,0.0,-2.6986,-2.6348,-2.707,-2.7504,0.0,0.0,-2.7728,-2.7619,-2.6467,-2.4964,0.0,0.0,0.0,0.0,0.0,0.0,0.0,0.0,0.0,0.0,0.0,0.0,0.0,0.0,0.0,0.0,0.0,0.0,0.0,0.0,0.0,0.0,0.0,0.0,0.0,0.0,0.0,0.0,0.0,0.0,0.0,0.0,0.0,0.0,0.0,0.0,0.0,0.0,0.0,0.0,0.0,0.0,0.0,0.0,0.0,0.0,0.0,0.0,0.0,0.0,0.0,0.0,0.0,0.0,0.0,-2.7525,-2.8918,-2.9621,-2.9621,-2.9621,-2.8338,-2.5764,-2.4328,-2.3026,0.0,0.0,0.0,0.0,0.0,0.0,0.0,0.0,0.0,0.0,0.0,0.0,0.0,0.0,0.0,0.0,0.0,0.0,0.0,0.0,0.0,0.0,0.0,0.0,0.0,0.0,0.0,0.0,0.0,0.0,0.0,0.0,0.0,0.0,0.0,0.0,0.0,0.0,0.0,0.0,0.0,-2.8025,-2.5605,-2.6736,-2.7873,0.0,0.0,-2.8113,-2.7667,-2.7781,-2.6755,-2.3292,0.0,0.0,0.0,0.0,0.0,0.0,0.0,0.0,0.0,0.0,0.0,0.0,0.0,0.0,0.0,0.0,0.0,0.0,0.0,0.0,0.0,0.0,0.0,0.0,0.0,0.0,0.0,0.0,0.0,0.0,0.0,0.0,0.0,0.0,0.0,0.0,0.0,0.0,0.0,0.0,0.0,0.0,0.0,0.0,0.0,0.0,0.0,0.0,0.0,0.0,0.0,0.0,0.0,-2.4896,-2.757,-2.8918,-2.9621,-2.9621,-2.9621,-2.8308,-2.5674,-2.4298,-2.2996,0.0,0.0,0.0,0.0,0.0,0.0,0.0,0.0,0.0,0.0,0.0,0.0,0.0,0.0,0.0,0.0,0.0,0.0,0.0,0.0,0.0,0.0,0.0,0.0,0.0,0.0,0.0,0.0,-1.7149,-1.6816,-1.6816,0.0,0.0,0.0,0.0,0.0,0.0,0.0,0.0,0.0,0.0,-2.7052,-2.6387,-2.7495,0.0,0.0,-2.8458,-2.8567,-2.804,-2.7393,-2.611,-2.3663,-2.22,0.0,0.0,0.0,0.0,0.0,0.0,0.0,0.0,0.0,0.0,0.0,0.0,0.0,0.0,0.0,0.0,0.0,0.0,0.0,0.0,0.0,0.0,0.0,0.0,0.0,0.0,0.0,0.0,0.0,0.0,0.0,0.0,0.0,0.0,0.0,0.0,0.0,0.0,0.0,0.0,0.0,0.0,0.0,0.0,0.0,0.0,0.0,0.0,0.0,0.0,0.0,0.0,-2.5226,-2.7869,-2.9037,-2.9621,-2.9621,-2.9621,-2.8308,-2.5704,-2.4507,-2.3206,0.0,0.0,0.0,0.0,0.0,0.0,0.0,0.0,0.0,0.0,0.0,0.0,0.0,0.0,0.0,0.0,0.0,0.0,0.0,0.0,0.0,0.0,0.0,0.0,0.0,0.0,0.0,0.0,-1.7112,-1.671,-1.6513,0.0,0.0,0.0,0.0,0.0,0.0,0.0,0.0,0.0,0.0,-2.661,-2.6595,-2.7595,-2.8241,-2.7949,-2.8316,-2.8511,-2.8188,-2.73,-2.5989,-2.412,0.0,0.0,0.0,0.0,0.0,0.0,0.0,0.0,0.0,0.0,0.0,0.0,0.0,0.0,0.0,0.0,0.0,0.0,0.0,0.0,0.0,0.0,0.0,0.0,0.0,0.0,0.0,0.0,0.0,0.0,-1.9774,0.0,0.0,0.0,0.0,0.0,0.0,0.0,0.0,0.0,0.0,0.0,0.0,0.0,0.0,0.0,0.0,0.0,0.0,0.0,0.0,0.0,0.0,-2.5875,-2.8491,-2.9194,-2.9579,-2.9621,-2.9621,-2.8323,-2.5734,-2.4933,-2.3663,-2.1724,0.0,0.0,0.0,0.0,0.0,0.0,0.0,0.0,0.0,0.0,0.0,0.0,0.0,0.0,0.0,0.0,0.0,0.0,0.0,0.0,0.0,0.0,0.0,0.0,0.0,0.0,-1.8103,-1.7677,-1.7124,0.0,0.0,0.0,0.0,0.0,0.0,0.0,0.0,0.0,0.0,-2.5329,-2.7077,-2.5815,-2.6609,-2.7449,-2.7656,-2.7736,-2.7786,-2.7909,-2.7771,-2.6886,0.0,0.0,0.0,0.0,0.0,0.0,0.0,0.0,0.0,0.0,0.0,0.0,0.0,0.0,0.0,0.0,0.0,0.0,0.0,0.0,0.0,0.0,0.0,0.0,0.0,0.0,0.0,-2.2838,-2.2712,0.0,0.0,0.0,0.0,0.0,0.0,0.0,0.0,0.0,0.0,0.0,-2.3389,-2.3929,0.0,0.0,0.0,0.0,0.0,0.0,0.0,0.0,0.0,0.0,0.0,0.0,-2.5184,-2.7766,-2.8482,-2.9055,-2.9594,-2.9621,-2.8543,-2.6318,-2.5173,-2.3317,-2.0591,0.0,0.0,0.0,0.0,0.0,0.0,0.0,0.0,0.0,0.0,0.0,0.0,0.0,0.0,0.0,0.0,0.0,0.0,0.0,0.0,0.0,0.0,0.0,0.0,0.0,-1.8267,0.0,0.0,0.0,0.0,0.0,0.0,0.0,0.0,0.0,0.0,0.0,-2.07,-2.1458,-2.3758,-2.5289,-2.5208,-2.6715,-2.7601,0.0,0.0,0.0,0.0,0.0,0.0,0.0,0.0,0.0,0.0,0.0,0.0,0.0,0.0,-2.446,-2.2549,-2.1087,-1.9966,-1.93,0.0,0.0,0.0,0.0,0.0,0.0,0.0,0.0,0.0,0.0,0.0,0.0,0.0,0.0,-2.3864,0.0,-2.2733,0.0,0.0,0.0,0.0,0.0,0.0,0.0,0.0,-2.4676,-2.4965,-2.4477,-2.4845,-2.4709,0.0,-2.3629,-2.2763,0.0,0.0,0.0,0.0,0.0,0.0,0.0,0.0,-2.5107,-2.7058,-2.7883,-2.8512,-2.8999,-2.8851,-2.7919,-2.6163,-2.4447,-2.2502,-2.0287,-1.9373,-1.8905,0.0,0.0,0.0,0.0,0.0,0.0,0.0,0.0,0.0,0.0,0.0,0.0,0.0,0.0,0.0,0.0,0.0,0.0,0.0,0.0,0.0,0.0,0.0,-1.8268,0.0,0.0,0.0,0.0,0.0,0.0,0.0,0.0,0.0,-1.9851,-1.9991,-2.0353,-2.1497,-2.2994,-2.4248,-2.5087,0.0,0.0,0.0,0.0,0.0,0.0,0.0,-2.5468,-2.5106,-2.479,-2.4796,-2.5517,-2.5782,-2.549,-2.4218,0.0,0.0,-2.3437,-2.216,-2.121,-2.0826,-1.998,-1.9307,-1.9316,-1.9531,-1.9736,0.0,0.0,0.0,0.0,0.0,0.0,0.0,0.0,-2.4462,-2.4575,0.0,-2.3671,0.0,0.0,0.0,0.0,0.0,-2.6089,0.0,0.0,-2.6451,-2.6337,-2.5127,-2.5086,-2.4747,-2.4245,-2.4845,-2.4436,-2.3077,-2.042,0.0,0.0,0.0,0.0,0.0,0.0,-2.5562,-2.6421,-2.7451,-2.7968,-2.8002,-2.7511,-2.6556,-2.5149,-2.2908,-2.1395,-2.0772,-1.9559,-1.8899,-1.8892,-1.8878,0.0,0.0,0.0,0.0,0.0,0.0,0.0,0.0,0.0,0.0,0.0,0.0,0.0,0.0,0.0,0.0,0.0,0.0,0.0,0.0,-1.7856,0.0,0.0,0.0,0.0,0.0,0.0,0.0,0.0,0.0,0.0,-1.9514,-2.0831,-2.1959,-2.2364,0.0,0.0,0.0,0.0,-2.4563,-2.5458,-2.515,-2.4837,-2.4843,-2.5233,-2.5211,-2.4242,0.0,0.0,-2.4183,-2.4454,-2.4642,-2.4078,-2.4354,-2.4753,-2.4659,-2.3544,-2.2646,-2.2576,-2.1513,-2.0722,-2.0664,-2.0723,-2.0752,-2.9624,0.0,0.0,0.0,0.0,-2.7934,-2.8816,-3.0417,-2.8637,-2.778,-2.7482,-2.5562,0.0,0.0,0.0,0.0,0.0,0.0,-2.6546,-2.574,-2.6898,-2.7144,-2.6622,-2.6244,-2.5987,-2.5788,-2.5209,-2.4309,-2.3106,-2.1941,-2.1576,-2.2104,0.0,0.0,0.0,0.0,-2.5205,-2.6671,-2.7041,-2.7454,-2.7968,-2.7481,-2.617,-2.4102,-2.2919,-2.1653,-2.0271,-1.9404,-1.8991,-1.8969,-1.8608,0.0,0.0,0.0,0.0,0.0,0.0,0.0,0.0,0.0,0.0,0.0,0.0,0.0,0.0,0.0,0.0,0.0,0.0,0.0,-1.8343,-1.7326,-1.6662,0.0,0.0,0.0,0.0,0.0,0.0,0.0,0.0,0.0,-1.9303,-1.9773,-2.0337,0.0,0.0,-2.2805,-2.3794,-2.4421,-2.483,-2.5011,-2.5223,0.0,-2.4871,-2.4937,-2.5049,-2.5115,-2.5753,-2.5626,-2.3678,-2.4148,-2.4471,-2.3563,-2.3454,-2.3578,-2.359,-2.335,-2.2991,-2.2621,-2.2221,-2.1934,-2.1963,-2.2187,-2.235,-3.2602,-3.0823,-2.967,-2.9426,-2.9735,-2.8971,-2.9551,-3.0897,-2.9449,-2.8727,-2.8461,-2.6792,-2.5604,-2.4778,-2.4135,0.0,0.0,0.0,-2.7067,-2.685,-2.7509,-2.7761,-2.7605,-2.7268,-2.714,-2.709,-2.5988,-2.5121,-2.4431,-2.3647,-2.3249,-2.3147,0.0,0.0,-2.3599,-2.4331,-2.5148,-2.6058,-2.6524,-2.6974,-2.7389,-2.6636,-2.5255,-2.3163,-2.2498,-2.1561,-2.0317,-1.9442,-1.9006,-1.9007,-1.8694,-1.8506,0.0,0.0,0.0,0.0,0.0,0.0,0.0,0.0,0.0,0.0,0.0,-1.6977,-1.6538,0.0,0.0,0.0,-1.7385,-1.7847,-1.7636,-1.6641,0.0,0.0,0.0,0.0,0.0,0.0,0.0,-1.7465,-1.8422,-1.9202,-1.9502,-1.9678,-2.0049,-2.0742,-2.131,-2.2099,-2.3148,0.0,-2.4111,-2.4461,-2.4577,-2.448,-2.4175,-2.4122,-2.4228,-2.4533,-2.4892,-2.4713,-2.343,-2.3681,-2.3887,-2.3299,-2.3101,-2.3101,-2.3101,-2.3145,-2.3133,-2.2807,-2.2752,-2.2744,-2.2721,-2.2916,-2.3101,-3.4922,-3.4114,-3.1353,-3.0283,-3.0362,-2.9432,-2.9077,-2.9064,-2.832,-2.8302,-2.8748,-2.7533,-2.6971,-2.6933,-2.6312,0.0,-2.6955,-2.7471,-2.7968,-2.8421,-2.8246,-2.8197,-2.8235,-2.8147,-2.8109,-2.8072,-2.7065,-2.6537,-2.6424,-2.5423,-2.4695,-2.4192,-2.3653,-2.3597,-2.4092,-2.5121,-2.5435,-2.4971,-2.5984,-2.6508,-2.6411,-2.536,-2.4023,-2.2435,-2.1794,-2.1245,-2.0704,-1.9648,-1.907,-1.907,-1.9058,-1.9045,-1.9008,0.0,0.0,0.0,0.0,0.0,0.0,0.0,0.0,0.0,0.0,0.0,0.0,0.0,0.0,0.0,-1.6322,0.0,-1.6066,-1.5972,0.0,0.0,0.0,-1.6583,-1.7007,-1.7633,-1.8203,-1.8559,0.0,0.0,-1.9912,-2.0293,-2.0713,-2.1093,-2.1171,-2.1719,-2.3092,-2.2874,-2.2849,-2.3773,-2.3463,-2.3125,-2.3221,-2.3187,-2.3231,-2.326,-2.3101,-2.3178,-2.3135,-2.3135,-2.3135,-2.3091,-2.3101,-2.3101,-2.3101,-2.3096,-2.3091,-2.3076,-2.3105,-2.3081,-2.3071,-2.3081,-2.3101,-3.3205,-3.2918,-3.1545,-3.1898,-3.3365,-3.2443,-3.234,-3.2572,-3.0865,-2.9813,-2.9259,-2.8046,-2.7164,-2.6616,-2.6455,-2.6678,-2.7233,-2.8168,-2.8656,-2.8782,-2.8749,-2.8963,-2.934,-2.8511,-2.8109,-2.8059,-2.7419,-2.6914,-2.6499,-2.6235,-2.6034,-2.5908,-2.577,-2.5355,-2.4695,-2.5711,-2.6223,-2.6109,-2.6361,-2.6285,-2.5812,-2.5159,-2.4186,-2.2932,-2.1995,-2.1245,-2.0717,-1.9999,-1.9584,-1.9623,-1.9623,-1.9409,-1.9033,-1.9384,0.0,0.0,0.0,0.0,0.0,0.0,0.0,0.0,0.0,-1.7552,-1.7015,0.0,-1.6596,0.0,-1.5946,-1.5988,-1.6354,-1.5879,0.0,0.0,-1.6417,-1.6811,-1.7246,-1.8002,-1.849,-1.8588,-1.9348,-1.9912,-1.9912,-2.0331,-2.0635,-2.0762,-2.1025,-2.1693,-2.2916,-2.2788,-2.267,-2.3169,-2.3197,-2.3101,-2.3101,-2.3101,-2.3101,-2.3101,-2.3101,-2.3101,-2.3101,-2.3101,-2.3101,-2.3101,-2.3101,-2.3101,-2.3101,-2.3101,-2.3101,-2.3101,-2.3101,-2.3101,-2.3101,-2.3101,-2.3091,-3.2593,-3.2558,-3.2033,-3.2555,-3.3542,-3.2207,-3.1833,-3.2028,-3.0868,-2.9918,-2.9176,-2.8298,-2.7611,-2.7228,-2.7193,-2.753,-2.8047,-2.8612,-2.9026,-2.9315,-2.9315,-2.9478,-2.9754,-2.8888,-2.8473,-2.8436,-2.7657,-2.7291,-2.7168,-2.6738,-2.6612,-2.6864,-2.6864,-2.6562,-2.595,-2.6311,-2.6612,-2.6864,-2.6625,-2.621,-2.5611,-2.5051,-2.4362,-2.3509,-2.2196,-2.1257,-2.0704,-2.0138,-1.9798,-1.9811,-2.0049,-2.0075,-1.9786,-2.0024,-1.9682,0.0,0.0,0.0,0.0,0.0,0.0,0.0,0.0,0.0,0.0,0.0,-1.6069,-1.5516,-1.579,-1.6107,-1.63,-1.6108,-1.6094,-1.6338,-1.6758,-1.7187,-1.7617,-1.8418,-1.8994,-1.9153,-1.9785,-2.0205,-2.0215,-2.042,-2.0683,-2.083,-2.124,-2.1777,-2.2432,-2.2676,-2.2838,-2.3062,-2.3101,-2.3101,-2.3101,-2.3101,-2.3101,-2.3101,-2.3101,-2.3101,-2.3101,-2.3101,-2.3101,-2.3101,-2.3101,-2.3101,-2.3101,-2.3101,-2.3101,-2.3101,-2.3101,-2.2906,-2.2448,-2.2721,-2.2916,-3.2249,-3.2249,-3.2249,-3.2249,-3.2105,-3.0495,-2.9856,-2.996,-2.9781,-2.9402,-2.8863,-2.8423,-2.8247,-2.8323,-2.8247,-2.8524,-2.9001,-2.8988,-2.9302,-2.9779,-2.9779,-2.9779,-2.9779,-2.9277,-2.8976,-2.885,-2.7946,-2.7695,-2.8072,-2.7165,-2.6914,-2.7304,-2.7369,-2.7379,-2.7304,-2.6914,-2.6901,-2.7268,-2.6914,-2.6386,-2.5724,-2.5184,-2.4632,-2.3979,-2.2372,-2.1257,-2.0717,-2.0138,-1.9798,-1.9823,-2.0314,-2.0525,-2.0445,-2.0445,-1.9912,0.0,-1.8649,0.0,0.0,0.0,0.0,0.0,0.0,0.0,0.0,-1.6047,-1.5666,-1.4998,-1.5818,-1.6311,-1.6195,-1.6504,-1.6716,-1.6794,-1.7148,-1.7588,-1.8125,-1.8838,-1.9473,-1.9932,-2.0332,-2.0605,-2.0595,-2.0615,-2.0723,-2.1055,-2.1533,-2.1875,-2.1973,-2.2607,-2.3052,-2.3042,-2.3071,-2.3101,-2.3101,-2.3101,-2.3101,-2.3101,-2.3023,-2.3042,-2.3081,-2.3042,-2.3023,-2.3081,-2.3101,-2.3081,-2.3033,-2.2911,-2.2799,-2.2678,-2.2532,-2.2315,-2.1933,-2.2208,-2.2129,-3.0317,-3.0317,-3.0317,-3.033,-3.0292,-2.9934,-3.0241,-3.0869,-2.9593,-2.9001,-2.8888,-2.8825,-2.9038,-2.9428,-2.8976,-2.9089,-2.9616,-2.9628,-2.9691,-2.9779,-2.9779,-2.9779,-2.9779,-2.9691,-2.939,-2.89,-2.8712,-2.8436,-2.8109,-2.7896,-2.762,-2.7306,-2.772,-2.772,-2.7318,0.0,0.0,0.0,-2.7632,-2.7354,-2.6361,-2.5749,-2.4983,-2.4004,-2.2372,0.0,-2.0704,-2.0112,-1.9798,-1.9798,-1.9911,0.0,0.0,0.0,0.0,0.0,0.0,0.0,0.0,0.0,0.0,0.0,-1.7195,-1.6911,-1.7399,-1.6605,-1.6019,-1.588,-1.6038,-1.6275,-1.6562,-1.6648,-1.6875,-1.7217,-1.7334,-1.7812,-1.8887,-1.9199,-1.9617,-2.0342,-2.0556,-2.0605,-2.0615,-2.0615,-2.0644,-2.0772,-2.1387,-2.1855,-2.1865,-2.2578,-2.2945,-2.2734,-2.2877,-2.3091,-2.3101,-2.3071,-2.3052,-2.3062,-2.2789,-2.2783,-2.2955,-2.2779,-2.273,-2.2984,-2.3101,-2.2964,-2.2619,-2.207,-2.1592,-2.1211,-2.0678,-2.0674,-2.2359,-2.212,-2.1525,-2.9779,0.0,-2.9779,-2.9779,0.0,-2.9779,-3.0075,-3.0469,-2.9694,-2.9352,-2.9352,-2.9352,-2.9515,-2.9779,-2.9478,-2.9503,-2.9779,-2.9779,-2.9779,-2.9779,-2.9779,-2.9779,-2.9779,-2.9503,-2.9214,-2.8888,-2.8649,-2.8373,-2.8097,-2.7821,-2.7557,-2.7329,-2.7293,-2.7419,-2.7695,-2.8247,-2.8235,-2.7695,-2.7695,-2.7431,-2.6889,-2.5787,-2.4833,-2.3991,-2.2359,0.0,0.0,0.0,0.0,0.0,0.0,0.0,0.0,-1.8889,0.0,-1.8073,-1.8035,-1.7963,-1.7842,-1.7686,-1.7597,-1.7607,-1.7431,-1.7307,-1.7273,-1.6722,-1.6396,-1.6396,-1.6613,-1.6807,-1.7031,-1.7246,-1.7418,-1.7666,-1.7695,-1.8125,-1.9062,-1.9277,-1.9666,-2.0419,-2.0615,-2.0615,-2.0615,-2.0615,-2.0615,-2.0635,-2.1133,-2.1494,-2.1396,-2.2334,-2.2935,-2.2598,-2.2828,-2.2935,-2.2627,-2.2682,-2.2744,-2.2549,-2.2344,-2.2314,-2.248,-2.2353,-2.2285,-2.25,-2.2685,-2.2562,-2.1778,-2.1332,-2.0862,-2.0123,-1.959,-1.9552,-2.0718,-2.0483,-1.9977,-2.9779,-2.9779,-2.9779,-2.9779,-2.9779,-2.9779,-2.9779,-2.9779,0.0,0.0,0.0,-2.9779,-2.9779,-2.9779,-2.9779,-2.9779,-2.9779,-2.9779,-2.9779,-2.9779,-2.9779,-2.9779,-2.9754,-2.9202,-2.8888,-2.8863,-2.836,-2.8109,-2.8097,-2.7645,-2.7404,-2.7291,-2.6952,-2.7193,-2.8072,-2.8561,-2.845,-2.7865,-2.7585,-2.7331,-2.7105,-2.5812,-2.4757,-2.4017,-2.2443,-2.1048,-1.9888,-1.9135,-1.8744,-1.8729,-1.8634,-1.8639,-1.884,-1.8884,-1.8525,-1.7792,-1.774,-1.751,-1.6985,-1.7285,-1.75,-1.7533,-1.7812,-1.7642,-1.6872,-1.6824,-1.6814,-1.6824,-1.7178,-1.7412,-1.749,-1.7793,-1.8008,-1.8008,-1.8008,-1.8311,-1.9043,-1.9248,-1.959,-2.0331,-2.0546,-2.0615,-2.0615,-2.0615,-2.0615,-2.0664,-2.0977,-2.1132,-2.1035,-2.1934,-2.2574,-2.2441,-2.2565,-2.2584,-2.2148,-2.2168,-2.2246,-2.2012,-2.1846,-2.1797,-2.1865,-2.1826,-2.1807,-2.1953,-2.2062,-2.1599,-2.0741,-2.019,-1.9835,-1.8778,-1.8467,-1.8406,-1.8379,-1.8289,-1.8013,-2.9779,-2.9779,-2.9779,-2.9779,-2.9779,-2.9779,-2.9779,-2.9779,-2.9779,-2.9779,-2.9779,-2.9779,-2.9779,-2.9779,-2.9779,-2.9779,-2.9779,-2.9779,-2.9779,-2.9779,-2.9779,-2.9779,-2.9754,-2.9202,-2.8888,-2.8838,-2.8373,-2.8109,-2.8109,-2.8021,-2.7758,-2.7417,-2.7682,-2.7934,-2.8109,-2.8185,-2.7742,-2.6839,-2.7594,-2.7532,-2.6637,-2.6386,-2.5544,-2.4023,-2.2591,-2.1314,-2.0175,-1.9304,-1.8888,-1.8888,-1.8866,-1.8586,-1.8036,-1.7985,-1.7823,-1.7496,-1.7438,-1.7573,-1.7793,-1.7891,-1.792,-1.792,-1.7978,-1.7803,-1.7344,-1.7295,-1.7295,-1.7328,-1.7363,-1.7529,-1.7861,-1.7969,-1.8008,-1.8008,-1.8008,-1.8203,-1.8701,-1.9062,-1.9443,-1.9941,-2.0342,-2.0586,-2.0566,-2.0595,-2.0615,-2.0674,-2.0908,-2.1249,-2.1302,-2.1562,-2.166,-2.1885,-2.2012,-2.2002,-2.1846,-2.1914,-2.1914,-2.1946,-2.1543,-2.1426,-2.1728,-2.1442,-2.1324,-2.1756,-2.1099,-2.0336,-1.9707,-1.8403,-1.7514,-1.6776,-1.625,-1.6129,-1.7025,-1.6309,-1.5675,-2.9779,-2.9779,-2.9779,-2.9779,-2.9779,-2.9779,-2.9779,-2.9779,-2.9779,-2.9779,-2.9779,-2.9779,-2.9779,-2.9779,-2.9779,-2.9779,-2.9779,-2.9779,-2.9779,-2.9779,-2.9779,-2.9779,-2.9767,-2.9515,-2.9364,-2.9352,-2.8787,-2.8398,-2.8109,-2.7808,-2.7417,-2.6939,-2.7381,-2.7657,-2.7621,-2.7102,-2.6627,-2.6172,-2.6602,-2.6336,-2.5348,-2.4744,-2.394,-2.286,-2.1719,-2.0725,-1.989,-1.8854,-1.8289,-1.833,-1.7913,-1.7667,-1.7617,-1.7574,-1.7646,-1.7719,-1.7725,-1.7812,-1.7988,-1.8008,-1.8008,-1.8008,-1.8008,-1.793,-1.7744,-1.7725,-1.7734,-1.7725,-1.7725,-1.7793,-1.7988,-1.8008,-1.8008,-1.8008,-1.8008,-1.8184,-1.852,-1.8754,-1.9102,-1.9521,-1.9951,-2.0205,-2.0205,-2.0458,-2.0605,-2.0625,-2.0781,-2.06,-1.9693,-2.0318,-2.1025,-2.1455,-2.1719,-2.1631,-2.1339,-2.1396,-2.1406,-2.1221,-2.1006,-2.0957,-2.1103,-2.06,-2.017,-2.023,-1.9619,-1.8716,-1.7946,-1.714,-1.6273,-1.5389,-1.5026,-1.5089,-1.5306,-1.4781,-1.4656,-2.9779,-2.9779,-2.9779,-2.9779,-2.9779,-2.9779,-2.9779,-2.9779,-2.9779,-2.9779,-2.9779,-2.9779,-2.9779,-2.9779,-2.9779,-2.9779,-2.9779,-2.9779,-2.9779,-2.9779,-2.9779,-2.9729,-2.9578,-2.949,-2.9352,-2.9176,-2.8649,-2.8147,-2.772,-2.7293,-2.6989,-2.6751,-2.7115,-2.7329,-2.7281,-2.6552,-2.5876,-2.5308,-2.5271,-2.4904,-2.4138,-2.3299,-2.2659,-2.2065,-2.1151,-2.0325,-1.9671,-1.8564,-1.7923,-1.7841,-1.729,-1.7145,-1.749,-1.7529,-1.7666,-1.7969,-1.8008,-1.8008,-1.8008,-1.8008,-1.8008,-1.8008,-1.8008,-1.8008,-1.8008,-1.8008,-1.8008,-1.8008,-1.7988,-1.7998,-1.8008,-1.8008,-1.8008,-1.8008,-1.8061,-1.8208,-1.8422,-1.8617,-1.8812,-1.916,-1.959,-1.9922,-1.999,-2.0303,-2.0469,-2.0245,-2.045,-1.9756,-1.835,-1.9392,-2.0644,-2.1016,-2.1377,-2.1318,-2.0732,-2.085,-2.0918,-2.0644,-2.0381,-2.0215,-2.0068,-1.9341,-1.8718,-1.8598,-1.8033,-1.7257,-1.6273,-1.5815,-1.5404,-1.464,-1.4452,-1.4398,-1.4287,-1.4258,-1.4162,-2.9779,-2.9779,-2.9779,-2.9779,-2.9779,-2.9779,-2.9779,-2.9779,-2.9779,-2.9779,-2.9779,-2.9779,-2.9779,-2.9779,-2.9779,-2.9779,-2.9779,-2.9779,-2.9779,-2.9779,-2.9779,-2.9515,-2.8988,-2.8536,-2.7996,-2.7618,-2.7102,-2.6889,-2.6801,-2.6675,-2.6801,-2.719,-2.7268,-2.7293,-2.7245,-2.7126,-2.5973,-2.3776,-2.3692,-2.3655,-2.3582,-2.3467,-2.3176,-2.2624,-2.174,-2.0853,-1.9865,-1.9002,-1.834,-1.8031,-1.7895,-1.79,-1.7939,-1.7949,-1.7969,-1.8008,-1.8018,-1.8008,-1.8018,-1.8008,-1.8027,-1.8008,-1.8018,-1.8008,-1.8008,-1.8008,-1.8008,-1.8027,-1.8018,-1.8008,-1.8008,-1.7993,-1.8066,-1.8144,-1.8354,-1.8412,-1.8227,-1.876,-1.9092,-1.8685,-1.9368,-1.9902,-1.9941,-2.0303,-2.0187,-1.9441,-2.0079,-2.004,-1.8877,-1.9559,-2.0323,-2.0518,-2.0664,-2.0664,-2.0576,-2.0625,-2.0683,-2.0537,-1.9805,-1.9481,-1.9204,-1.843,-1.7455,-1.7383,-1.6632,-1.5918,-1.5585,-1.5062,-1.4389,-1.4309,-1.4175,-1.4128,-1.4115,-1.4249,-1.4309,-2.9779,-2.9779,-2.9779,-2.9779,-2.9779,-2.9779,-2.9779,-2.9779,-2.9779,-2.9779,-2.9779,-2.9779,-2.9779,-2.9779,-2.9779,-2.9779,-2.9779,-2.9779,-2.9779,-2.9779,-2.9779,-2.949,-2.8938,-2.8675,-2.8298,-2.7745,-2.7253,-2.6977,-2.6989,-2.6989,-2.7067,-2.7291,-2.7329,-2.7007,-2.6407,-2.5492,-2.423,-2.2675,-2.2075,-2.1783,-2.1794,-2.1783,-2.1662,-2.1428,-2.0846,-2.0209,-1.959,-1.8911,-1.8403,-1.8047,-1.8008,-1.8008,-1.8008,-1.8008,-1.8008,-1.8018,-1.8217,-1.8344,-1.8344,-1.8344,-1.8344,-1.8354,-1.8154,-1.8008,-1.8008,-1.8008,-1.8071,-1.8276,-1.8154,-1.8096,-1.8305,-1.8344,-1.8442,-1.8721,-1.8926,-1.8822,-1.8412,-1.8691,-1.8783,-1.8666,-1.9124,-1.9658,-1.9912,-2.0303,-2.0099,-1.9402,-1.9874,-1.9844,-1.843,-1.8957,-1.9274,-1.8829,-1.8669,-1.9274,-2.0167,-2.0615,-2.0566,-2.0479,-2.0274,-1.9883,-1.8859,-1.8069,-1.7131,-1.6478,-1.5504,-1.4894,-1.4755,-1.4538,-1.4088,-1.4088,-1.4088,-1.4088,-1.4088,-1.4182,-1.4182,-3.0018,-2.9993,-2.9867,-2.9779,-2.9779,-2.9779,-2.9779,-2.9779,-2.9779,-2.9779,-2.9779,-2.9779,-2.9779,-2.9779,-2.9779,-2.9779,-2.9779,-2.9779,-2.9779,-2.9779,-2.9779,-2.9478,-2.8963,-2.8888,-2.8637,-2.8109,-2.7708,-2.7507,-2.7471,-2.7171,-2.7099,-2.7074,-2.6674,-2.6178,-2.5491,-2.4184,-2.3065,-2.2244,-2.1379,-2.0857,-2.0683,-2.0615,-2.0615,-2.0576,-2.0254,-1.9893,-1.9473,-1.9053,-1.8578,-1.8213,-1.8076,-1.8008,-1.8008,-1.8008,-1.8066,-1.8203,-1.8584,-1.8773,-1.8773,-1.8783,-1.8773,-1.8744,-1.8428,-1.8184,-1.8149,-1.8149,-1.8276,-1.852,-1.8457,-1.8525,-1.8715,-1.8783,-1.8929,-1.9258,-1.9375,-1.9287,-1.8851,-1.8783,-1.8812,-1.8848,-1.9131,-1.9512,-1.9962,-2.0091,-1.9687,-1.8798,-1.9116,-1.9107,-1.7536,-1.7779,-1.8204,-1.7322,-1.7217,-1.7869,-1.9356,-1.9511,-1.9689,-1.9508,-1.9166,-1.8576,-1.8094,-1.7041,-1.6363,-1.5228,-1.4489,-1.4208,-1.4334,-1.4166,-1.4088,-1.4088,-1.4088,-1.4088,-1.4088,-1.4102,-1.4095,-3.0583,-3.0455,-3.0005,-2.9779,-2.9779,-2.9779,-2.9779,-2.9779,-2.9779,-2.9779,-2.9779,-2.9779,-2.9779,-2.9779,-2.9779,-2.9779,-2.9779,-2.9779,-2.9779,-2.9779,-2.9779,-2.9478,-2.8913,-2.8875,-2.8599,-2.8147,-2.8034,-2.7972,-2.7925,-2.6989,-2.6564,-2.6554,-2.5278,-2.4686,-2.4808,-2.3992,-2.3213,-2.2548,-2.2001,-2.1461,-2.0731,-2.0625,-2.0615,-2.0605,-2.0576,-2.0303,-1.9883,-1.9482,-1.9053,-1.8588,-1.8271,-1.8047,-1.8037,-1.8047,-1.8242,-1.8559,-1.9023,-1.9258,-1.9258,-1.9258,-1.9248,-1.918,-1.8763,-1.8549,-1.8451,-1.849,-1.8559,-1.8607,-1.8994,-1.9219,-1.9287,-1.9277,-1.9287,-1.9431,-1.9687,-1.9668,-1.9307,-1.9258,-1.9248,-1.9258,-1.9346,-1.9707,-2.041,-1.9659,-1.8868,-1.7989,-1.7585,-1.7253,-1.6552,-1.6887,-1.7081,-1.6971,-1.6809,-1.7009,-1.7356,-1.78,-1.761,-1.7572,-1.7375,-1.6263,-1.5461,-1.4866,-1.4559,-1.4286,-1.4208,-1.4124,-1.4088,-1.4088,-1.4088,-1.4088,-1.4088,-1.4088,-1.4088,-1.4088,-1.4088,-3.0922,-3.057,-3.003,-2.9779,-2.9779,-2.9779,-2.9779,-2.9779,-2.9779,-2.9779,-2.9779,-2.9779,-2.9779,-2.9779,-2.9779,-2.9779,-2.9779,-2.9779,-2.9779,-2.9779,-2.9779,-2.949,-2.8925,-2.8888,-2.8599,-2.8185,-2.8109,-2.7767,-2.7048,-2.6294,-2.5937,-2.5903,-2.5402,-2.494,-2.44,-2.3487,-2.272,-2.2181,-2.1508,-2.1024,-2.0957,-2.0762,-2.0615,-2.0615,-2.0615,-2.04,-1.9922,-1.9766,-1.9492,-1.9072,-1.8906,-1.8828,-1.8828,-1.8828,-1.8887,-1.9062,-1.9453,-1.9687,-1.9697,-1.9697,-1.9561,-1.9287,-1.8851,-1.85,-1.8305,-1.8442,-1.8705,-1.9053,-1.9443,-1.9766,-1.999,-1.9863,-1.9805,-2.0106,-2.0215,-2.0117,-1.9805,-1.9687,-1.9687,-1.9727,-1.9912,-2.0292,-2.0391,-2.0235,-1.9599,-1.863,-1.839,-1.7779,-1.6927,-1.656,-1.6188,-1.5998,-1.5393,-1.4812,-1.4914,-1.6118,-1.6699,-1.6669,-1.6454,-1.6063,-1.5453,-1.5153,-1.4941,-1.4258,-1.411,-1.4008,-1.3988,-1.4068,-1.4075,-1.4088,-1.4088,-1.4088,-1.4088,-1.4088,-1.4088,-3.1097,-3.057,-3.0018,-2.9779,-2.9779,-2.9779,-2.9779,-2.9779,-2.9779,-2.9779,-2.9779,-2.9779,-2.9779,-2.9779,-2.9779,-2.9779,-2.9779,-2.9779,-2.9779,-2.9779,-2.9779,-2.9578,-2.9264,-2.9176,-2.8976,-2.8625,-2.8238,-2.7533,-2.6516,-2.5708,-2.5289,-2.5157,-2.4843,-2.428,-2.3588,-2.2838,-2.2312,-2.1969,-2.123,-2.0947,-2.1112,-2.0801,-2.0615,-2.0615,-2.0615,-2.0478,-2.0127,-1.999,-1.9795,-1.9521,-1.9365,-1.9277,-1.9287,-1.9424,-1.9492,-1.9531,-1.9893,-2.0127,-2.0127,-2.0127,-1.9941,-1.9521,-1.9092,-1.8676,-1.8477,-1.8682,-1.9043,-1.9453,-1.9883,-2.0273,-2.0458,-2.0293,-2.0195,-2.0361,-2.0273,-2.0039,-1.9746,-1.957,-1.9551,-1.9707,-2.0204,-2.0527,-2.0527,-2.0235,-1.9717,-1.9076,-1.847,-1.7577,-1.6846,-1.5812,-1.502,-1.4957,-1.4204,-1.3743,-1.3783,-1.4673,-1.4988,-1.5003,-1.5411,-1.5272,-1.5215,-1.5083,-1.4925,-1.4337,-1.3995,-1.3921,-1.3935,-1.4021,-1.4068,-1.4082,-1.4088,-1.4088,-1.4088,-1.4088,-1.4088,-3.1122,-3.0658,-3.003,-2.9905,-2.993,-2.9892,-2.9817,-2.9867,-2.9804,-2.9779,-2.9779,-2.9779,-2.9779,-2.9779,-2.9779,-2.9779,-2.9779,-2.9779,-2.9779,-2.9779,-2.9779,-2.9779,-2.9704,-2.9691,-2.9679,-2.9539,-2.8576,-2.7504,-2.6483,-2.5313,-2.4535,-2.4054,-2.3301,-2.2918,-2.2572,-2.2296,-2.2173,-2.2236,-2.16,-2.119,-2.1151,-2.081,-2.0615,-2.0615,-2.0615,-2.0586,-2.0566,-2.0156,-1.9961,-1.9893,-1.957,-1.9326,-1.9443,-1.9717,-1.9912,-1.9971,-2.0312,-2.0556,-2.0576,-2.0546,-2.0303,-1.9893,-1.9512,-1.9258,-1.915,-1.9228,-1.9443,-1.9805,-2.0234,-2.0595,-2.0586,-2.0517,-2.0341,-1.999,-1.9756,-1.958,-1.9307,-1.8929,-1.8822,-1.9424,-2.0155,-2.0576,-2.0411,-1.9962,-1.9362,-1.8838,-1.7567,-1.6308,-1.5965,-1.4919,-1.3892,-1.3722,-1.3588,-1.3347,-1.328,-1.3239,-1.313,-1.3119,-1.3684,-1.3951,-1.3931,-1.3862,-1.4206,-1.3834,-1.3854,-1.3794,-1.3915,-1.4001,-1.4068,-1.4088,-1.4088,-1.4082,-1.4088,-1.4088,-1.4088,-3.1863,-3.165,-3.1122,-3.0884,-3.0846,-3.052,-3.0357,-3.0319,-2.998,-2.9792,-2.9779,-2.9779,-2.9779,-2.9779,-2.9779,-2.9779,-2.9779,-2.9779,-2.9779,-2.9779,-2.9779,-2.9779,-2.9779,-2.9779,-2.9779,-2.9456,-2.7879,-2.6842,-2.6182,-2.4553,-2.3547,-2.3371,-2.3103,-2.2949,-2.2867,-2.2506,-2.2519,-2.2711,-2.1765,-2.1337,-2.1572,-2.0947,-2.0615,-2.0615,-2.0615,-2.0615,-2.0605,-2.0468,-2.0371,-2.0342,-2.0244,-2.0204,-2.0233,-2.0293,-2.04,-2.041,-2.0517,-2.0615,-2.0615,-2.0595,-2.0371,-2.0,-1.9775,-1.958,-1.9375,-1.9551,-1.9756,-1.9951,-2.0312,-2.0615,-2.0566,-2.0283,-2.0088,-1.9932,-2.0059,-1.9881,-1.9404,-1.9368,-1.9717,-2.0116,-2.0449,-2.0595,-2.0566,-2.0118,-1.9728,-1.9091,-1.7987,-1.7052,-1.5825,-1.4794,-1.4195,-1.3966,-1.3635,-1.326,-1.3373,-1.334,-1.316,-1.3013,-1.322,-1.334,-1.318,-1.32,-1.3487,-1.3581,-1.3614,-1.3694,-1.3828,-1.3948,-1.4001,-1.4062,-1.4068,-1.4075,-1.4082,-1.4088,-1.4088,-3.2202,-3.2152,-3.1612,-3.1386,-3.1336,-3.0846,-3.062,-3.0532,-3.003,-2.9792,-2.9779,-2.9779,-2.9779,-2.9779,-2.9779,-2.9779,-2.9779,-2.9779,-2.9779,-2.9779,-2.9779,-2.9779,-2.9702,-2.9326,-2.891,-2.8291,-2.6707,-2.563,-2.5147,-2.3844,-2.3091,-2.3091,-2.3101,-2.3091,-2.3081,-2.2857,-2.29,-2.2896,-2.2019,-2.1611,-2.165,-2.1065,-2.0615,-2.0615,-2.0615,-2.0615,-2.0615,-2.0615,-2.0615,-2.0615,-2.0615,-2.0615,-2.0615,-2.0595,-2.0615,-2.0615,-2.0615,-2.0615,-2.0615,-2.0605,-2.0381,-2.001,-1.9912,-1.9814,-1.9619,-1.9805,-1.9941,-2.0185,-2.0439,-2.0615,-2.0566,-2.039,-2.0107,-1.9894,-1.9951,-1.9891,-1.9387,-1.9276,-1.9336,-1.9591,-1.9838,-1.9972,-2.0001,-2.0227,-2.0062,-1.9349,-1.8264,-1.7351,-1.5873,-1.471,-1.4205,-1.3784,-1.3507,-1.338,-1.3547,-1.3494,-1.3313,-1.32,-1.316,-1.3113,-1.3018,-1.3113,-1.334,-1.3186,-1.3153,-1.3273,-1.3407,-1.3714,-1.3861,-1.3935,-1.4008,-1.4075,-1.4088,-1.4088,-1.4088,-3.2265,-3.219,-3.1712,-3.1574,-3.1486,-3.0947,-3.0721,-3.0595,-3.0043,-2.9779,-2.9779,-2.9779,-2.9779,-2.9779,-2.9779,-2.9779,-2.9779,-2.9779,-2.9779,-2.9779,-2.9779,-2.9779,-2.9689,-2.8976,-2.8148,-2.6964,-2.5755,-2.4553,-2.38,-2.3343,-2.3101,-2.3101,-2.3101,-2.3101,-2.3081,-2.3081,-2.3033,-2.2877,-2.2246,-2.1855,-2.1777,-2.1055,-2.0615,-2.0615,-2.0615,-2.0615,-2.0615,-2.0615,-2.0615,-2.0615,-2.0615,-2.0615,-2.0615,-2.0615,-2.0615,-2.0615,-2.0615,-2.0615,-2.0615,-2.0615,-2.0449,-2.0078,-2.0019,-1.9951,-1.998,-2.001,-2.0156,-2.0488,-2.0586,-2.0615,-2.0605,-2.0566,-2.0342,-1.999,-1.9687,-1.9387,-1.9267,-1.874,-1.8513,-1.8419,-1.8653,-1.8872,-1.884,-1.9218,-1.9374,-1.9061,-1.7549,-1.6476,-1.5672,-1.4565,-1.3498,-1.3253,-1.3333,-1.3527,-1.3681,-1.362,-1.3467,-1.3227,-1.3133,-1.2979,-1.2884,-1.2959,-1.316,-1.2986,-1.2852,-1.2939,-1.3152,-1.3454,-1.3633,-1.3706,-1.3861,-1.4015,-1.4088,-1.4088,-1.4088,-3.2842,-3.283,-3.2734,-3.2629,-3.2491,-3.1612,-3.1185,-3.106,-3.0181,-2.9829,-2.9792,-2.9779,-2.9779,-2.9779,-2.9779,-2.9779,-2.9779,-2.9779,-2.9779,-2.9779,-2.9779,-2.9779,-2.9792,-2.9495,-2.8688,-2.7562,-2.6337,-2.5473,-2.4329,-2.3464,-2.3135,-2.3101,-2.3101,-2.3101,-2.3101,-2.3101,-2.2916,-2.2656,-2.2178,-2.1728,-2.1396,-2.0889,-2.0625,-2.0615,-2.0615,-2.0615,-2.0615,-2.0615,-2.0615,-2.0615,-2.0615,-2.0615,-2.0615,-2.0615,-2.0615,-2.0615,-2.0615,-2.0615,-2.0615,-2.0615,-2.0537,-2.0468,-2.039,-2.0429,-2.04,-2.0429,-2.0498,-2.0615,-2.0615,-2.0615,-2.0615,-2.0615,-2.0517,-2.037,-1.9785,-1.9348,-1.9097,-1.8625,-1.8142,-1.7686,-1.7545,-1.7477,-1.7483,-1.7475,-1.7479,-1.7296,-1.6584,-1.5637,-1.5023,-1.4351,-1.3206,-1.3345,-1.3433,-1.3627,-1.3734,-1.37,-1.3553,-1.328,-1.3093,-1.2919,-1.2772,-1.2744,-1.2926,-1.3026,-1.2893,-1.2913,-1.306,-1.33,-1.3387,-1.3487,-1.366,-1.38,-1.4021,-1.4088,-1.4088,-3.3124,-3.3124,-3.3124,-3.3124,-3.3011,-3.2114,-3.1738,-3.1524,-3.062,-3.0143,-3.0093,-2.988,-2.9779,-2.9779,-2.9779,-2.9779,-2.9779,-2.9779,-2.9779,-2.9779,-2.9779,-2.9779,-2.9702,-2.9404,-2.8518,-2.74,-2.6337,-2.5179,-2.4135,-2.3377,-2.3135,-2.3101,-2.3101,-2.3101,-2.3101,-2.3091,-2.2994,-2.2715,-2.2217,-2.1748,-2.1494,-2.0879,-2.0644,-2.0615,-2.0615,-2.0615,-2.0615,-2.0615,-2.0615,-2.0615,-2.0615,-2.0615,-2.0615,-2.0615,-2.0615,-2.0615,-2.0615,-2.0615,-2.0615,-2.0615,-2.0615,-2.0605,-2.0615,-2.0615,-2.0595,-2.0615,-2.0615,-2.0615,-2.0615,-2.0615,-2.0615,-2.0615,-2.0615,-2.0537,-2.0155,-1.9802,-1.9659,-1.8623,-1.7768,-1.7165,-1.6636,-1.615,-1.6069,-1.6038,-1.6121,-1.6005,-1.5479,-1.484,-1.4328,-1.3645,-1.3202,-1.3212,-1.324,-1.3287,-1.3387,-1.342,-1.3247,-1.2986,-1.2879,-1.2739,-1.2812,-1.269,-1.273,-1.2866,-1.2852,-1.2859,-1.2906,-1.2999,-1.3153,-1.3293,-1.3447,-1.3686,-1.3935,-1.4088,-1.4088,-3.3124,-3.3124,-3.3124,-3.3124,-3.2993,-3.2466,-3.2152,-3.2001,-3.1035,-3.057,-3.0457,-3.003,-2.9792,-2.9779,-2.9779,-2.9779,-2.9779,-2.9779,-2.9779,-2.9702,-2.9624,-2.9456,-2.9314,-2.8676,-2.7735,-2.6625,-2.5378,-2.4296,-2.3507,-2.3135,-2.3101,-2.3101,-2.3101,-2.3101,-2.3101,-2.3091,-2.3071,-2.2838,-2.2353,-2.1963,-2.1709,-2.1113,-2.0752,-2.0752,-2.0635,-2.0615,-2.0615,-2.0615,-2.0615,-2.0615,-2.0615,-2.0615,-2.0615,-2.0615,-2.0615,-2.0615,-2.0615,-2.0615,-2.0615,-2.0615,-2.0615,-2.0615,-2.0615,-2.0615,-2.0615,-2.0615,-2.0615,-2.0615,-2.0615,-2.0615,-2.0615,-2.0615,-2.0615,-2.0595,-2.0556,-2.0586,-2.0206,-1.8669,-1.7153,-1.6712,-1.5746,-1.504,-1.4864,-1.5037,-1.534,-1.4632,-1.4153,-1.3807,-1.3446,-1.3051,-1.2831,-1.2919,-1.2904,-1.2864,-1.2978,-1.3053,-1.2812,-1.2572,-1.2532,-1.2525,-1.2893,-1.2819,-1.2683,-1.2663,-1.2784,-1.2659,-1.2485,-1.2625,-1.2872,-1.308,-1.3293,-1.3621,-1.3928,-1.4041,-1.4088,-3.3124,-3.3124,-3.3124,-3.3124,-3.298,-3.2466,-3.2215,-3.2139,-3.1097,-3.0658,-3.0495,-3.0043,-2.9792,-2.9779,-2.9779,-2.9779,-2.9779,-2.9779,-2.9779,-2.9663,-2.8806,-2.8518,-2.8426,-2.8084,-2.7452,-2.6378,-2.5336,-2.4211,-2.3343,-2.3101,-2.3101,-2.3101,-2.3101,-2.3101,-2.3101,-2.3081,-2.2916,-2.2643,-2.2441,-2.2197,-2.1885,-2.1416,-2.1094,-2.1064,-2.0771,-2.0635,-2.0615,-2.0615,-2.0615,-2.0615,-2.0615,-2.0615,-2.0615,-2.0615,-2.0615,-2.0615,-2.0615,-2.0615,-2.0615,-2.0615,-2.0615,-2.0615,-2.0615,-2.0615,-2.0615,-2.0615,-2.0615,-2.0615,-2.0615,-2.0615,-2.0615,-2.0615,-2.0615,-2.0615,-2.0615,-2.0615,-2.0245,-1.8669,-1.7129,-1.5848,-1.4677,-1.3574,-1.3341,-1.3231,-1.3285,-1.3043,-1.2942,-1.2673,-1.2556,-1.2445,-1.255,-1.2677,-1.2697,-1.2697,-1.279,-1.2819,-1.2619,-1.2425,-1.2351,-1.2345,-1.2712,-1.2832,-1.2599,-1.2636,-1.275,-1.2603,-1.2392,-1.2478,-1.2811,-1.2978,-1.3126,-1.342,-1.3701,-1.3881,-1.4082,-3.3307,-3.3124,-3.3124,-3.3124,-3.3074,-3.2754,-3.2616,-3.2403,-3.1449,-3.0972,-3.0796,-3.0168,-2.9792,-2.9779,-2.9779,-2.9779,-2.9779,-2.9779,-2.9779,-2.9534,-2.8688,-2.8136,-2.7723,-2.7012,-2.6202,-2.5588,-2.5126,-2.4168,-2.3387,-2.3101,-2.3101,-2.3101,-2.3101,-2.3101,-2.3101,-2.3101,-2.2994,-2.2789,-2.2598,-2.2393,-2.2148,-2.1768,-2.1543,-2.1455,-2.1133,-2.0879,-2.0889,-2.0654,-2.0625,-2.0615,-2.0615,-2.0615,-2.0615,-2.0615,-2.0615,-2.0615,-2.0615,-2.0615,-2.0615,-2.0615,-2.0615,-2.0615,-2.0615,-2.0615,-2.0615,-2.0615,-2.0615,-2.0615,-2.0615,-2.0615,-2.0615,-2.0615,-2.0615,-2.0615,-2.0615,-2.0615,-2.0323,-1.9107,-1.7462,-1.6055,-1.4836,-1.3687,-1.2955,-1.252,-1.2388,-1.2677,-1.267,-1.2452,-1.2452,-1.2342,-1.2375,-1.2458,-1.2536,-1.2576,-1.2619,-1.2605,-1.2485,-1.2371,-1.2331,-1.2345,-1.2525,-1.2545,-1.2485,-1.2636,-1.277,-1.2683,-1.2563,-1.2656,-1.2744,-1.2959,-1.316,-1.33,-1.3474,-1.3673,-1.3935,-3.3495,-3.3124,-3.3124,-3.3124,-3.3124,-3.3111,-3.3086,-3.2893,-3.1876,-3.1323,-3.1173,-3.0256,-2.9779,-2.9779,-2.9779,-2.9779,-2.974,-2.9443,-2.9314,-2.9197,-2.7844,-2.7308,-2.6849,-2.5619,-2.466,-2.4532,-2.4414,-2.3844,-2.3299,-2.3101,-2.3101,-2.3101,-2.3101,-2.3101,-2.3101,-2.3101,-2.3071,-2.2984,-2.2769,-2.2656,-2.2549,-2.2197,-2.1973,-2.1748,-2.1406,-2.1142,-2.1074,-2.081,-2.0615,-2.0615,-2.0615,-2.0615,-2.0615,-2.0615,-2.0615,-2.0615,-2.0615,-2.0615,-2.0615,-2.0615,-2.0615,-2.0615,-2.0615,-2.0615,-2.0615,-2.0615,-2.0615,-2.0615,-2.0615,-2.0615,-2.0615,-2.0615,-2.0615,-2.0615,-2.0615,-2.0615,-2.0411,-1.9629,-1.8175,-1.6713,-1.5335,-1.42,-1.3151,-1.2496,-1.2378,-1.2318,-1.2318,-1.2318,-1.2318,-1.2311,-1.2338,-1.2345,-1.2392,-1.2418,-1.2478,-1.2505,-1.2371,-1.2345,-1.2305,-1.2371,-1.2412,-1.2405,-1.2458,-1.2645,-1.2719,-1.267,-1.261,-1.2616,-1.2732,-1.2999,-1.306,-1.3066,-1.3267,-1.3507,-1.3713,-3.3199,-3.3124,-3.3124,-3.3124,-3.3124,-3.3124,-3.3111,-3.2893,-3.1863,-3.1399,-3.121,-3.0269,-2.9779,-2.9779,-2.9779,-2.9779,-2.9624,-2.9067,-2.8518,-2.8159,-2.6678,-2.5715,-2.541,-2.4454,-2.358,-2.3377,-2.3464,-2.3343,-2.3178,-2.3101,-2.3101,-2.3101,-2.3101,-2.3101,-2.3101,-2.3101,-2.3101,-2.3101,-2.2974,-2.2925,-2.2828,-2.2574,-2.2275,-2.2002,-2.157,-2.1346,-2.1201,-2.0859,-2.0615,-2.0615,-2.0615,-2.0615,-2.0615,-2.0615,-2.0615,-2.0615,-2.0615,-2.0615,-2.0615,-2.0615,-2.0615,-2.0615,-2.0615,-2.0615,-2.0615,-2.0615,-2.0615,-2.0615,-2.0615,-2.0615,-2.0615,-2.0615,-2.0615,-2.0615,-2.0615,-2.0615,-2.0401,-1.9592,-1.843,-1.6999,-1.5811,-1.4754,-1.3743,-1.2917,-1.2808,-1.2682,-1.2557,-1.2493,-1.2398,-1.2358,-1.2311,-1.2318,-1.2318,-1.2325,-1.2345,-1.2358,-1.2318,-1.2325,-1.2331,-1.2418,-1.2432,-1.2378,-1.2445,-1.2559,-1.2632,-1.2636,-1.2603,-1.2596,-1.2636,-1.2752,-1.2804,-1.2811,-1.3052,-1.3267,-1.3467,-3.3375,-3.3136,-3.3124,-3.3124,-3.3124,-3.3124,-3.2893,-3.2528,-3.175,-3.1235,-3.0821,-3.0168,-2.9779,-2.9779,-2.9779,-2.9779,-2.9507,-2.8648,-2.8136,-2.7626,-2.6142,-2.4986,-2.4711,-2.3837,-2.3379,-2.3203,-2.3091,-2.3101,-2.3101,-2.3101,-2.3101,-2.3101,-2.3101,-2.3101,-2.3101,-2.3101,-2.3101,-2.3101,-2.3101,-2.3101,-2.3101,-2.2867,-2.2662,-2.2438,-2.2119,-2.1924,-2.1777,-2.1211,-2.0937,-2.0879,-2.0732,-2.0635,-2.0615,-2.0615,-2.0615,-2.0615,-2.0615,-2.0615,-2.0615,-2.0615,-2.0615,-2.0615,-2.0615,-2.0615,-2.0615,-2.0615,-2.0615,-2.0615,-2.0615,-2.0615,-2.0615,-2.0615,-2.0615,-2.0615,-2.0566,-2.0566,-2.0372,-1.9569,-1.8369,-1.71,-1.5943,-1.4952,-1.4299,-1.3666,-1.3394,-1.3116,-1.2876,-1.2695,-1.2543,-1.2432,-1.2371,-1.2305,-1.2305,-1.2305,-1.2305,-1.2305,-1.2305,-1.2305,-1.2318,-1.2412,-1.2425,-1.2351,-1.2325,-1.2371,-1.2432,-1.2549,-1.2596,-1.2589,-1.2569,-1.2536,-1.2569,-1.2636,-1.2804,-1.3012,-1.322,-3.3483,-3.3124,-3.3124,-3.3124,-3.3124,-3.3124,-3.2754,-3.2177,-3.1637,-3.1097,-3.0583,-3.0055,-2.9779,-2.9779,-2.9804,-2.9842,-2.98,-2.8619,-2.7934,-2.7462,-2.5862,-2.4805,-2.4349,-2.3984,-2.3437,-2.313,-2.3101,-2.3101,-2.3101,-2.3101,-2.3101,-2.3101,-2.3101,-2.3101,-2.3101,-2.3101,-2.3101,-2.3101,-2.3101,-2.3101,-2.3101,-2.3101,-2.3101,-2.3052,-2.2734,-2.2461,-2.2334,-2.1611,-2.119,-2.1064,-2.083,-2.0615,-2.0615,-2.0615,-2.0615,-2.0615,-2.0615,-2.0615,-2.0615,-2.0615,-2.0615,-2.0615,-2.0615,-2.0615,-2.0615,-2.0615,-2.0615,-2.0615,-2.0615,-2.0615,-2.0615,-2.0615,-2.0615,-2.0527,-2.0411,-2.0245,-2.004,-1.9304,-1.802,-1.6847,-1.5817,-1.4962,-1.4169,-1.3873,-1.3444,-1.3313,-1.3072,-1.284,-1.2717,-1.2589,-1.2465,-1.2351,-1.2305,-1.2305,-1.2305,-1.2305,-1.2305,-1.2305,-1.2305,-1.2351,-1.2345,-1.2318,-1.2305,-1.2305,-1.2318,-1.2398,-1.2472,-1.2518,-1.2458,-1.2405,-1.2365,-1.2418,-1.2559,-1.2764,-1.2991,-3.3144,-3.3124,-3.3124,-3.3124,-3.3124,-3.3124,-3.2742,-3.219,-3.165,-3.1097,-3.0583,-3.008,-2.9829,-2.974,-2.9702,-3.0016,-2.9647,-2.8345,-2.7315,-2.6959,-2.5184,-2.4004,-2.3475,-2.3242,-2.3266,-2.3149,-2.313,-2.3101,-2.314,-2.314,-2.3101,-2.3101,-2.3101,-2.3101,-2.3101,-2.3101,-2.3101,-2.3101,-2.3101,-2.3101,-2.3101,-2.3101,-2.3101,-2.2984,-2.275,-2.2568,-2.249,-2.1836,-2.1346,-2.12,-2.083,-2.0635,-2.0615,-2.0615,-2.0615,-2.0615,-2.0615,-2.0615,-2.0615,-2.0615,-2.0615,-2.0615,-2.0615,-2.0615,-2.0625,-2.0625,-2.0644,-2.0615,-2.0527,-2.0323,-2.0206,-2.0411,-2.0527,-2.0128,-1.9559,-1.9766,-1.9756,-1.8252,-1.7001,-1.6511,-1.5479,-1.4625,-1.3791,-1.3655,-1.3507,-1.34,-1.3264,-1.3084,-1.2884,-1.2764,-1.2623,-1.2478,-1.2325,-1.2305,-1.2305,-1.2305,-1.2305,-1.2305,-1.2305,-1.2305,-1.2305,-1.2305,-1.2305,-1.2305,-1.2305,-1.2305,-1.2371,-1.2385,-1.2345,-1.2338,-1.2331,-1.2325,-1.2331,-1.2549,-1.275,-3.3124,-3.3124,-3.3124,-3.3124,-3.3124,-3.3124,-3.2754,-3.224,-3.1964,-3.1386,-3.0683,-3.0394,-3.0093,-2.9763,-2.9197,-2.8928,-2.8823,-2.7706,-2.6732,-2.6216,-2.4834,-2.3887,-2.3717,-2.3701,-2.3666,-2.3227,-2.3325,-2.3535,-2.3447,-2.3218,-2.3101,-2.311,-2.3101,-2.3101,-2.3101,-2.3101,-2.3101,-2.3101,-2.3101,-2.3101,-2.3101,-2.3101,-2.3101,-2.3091,-2.2906,-2.2828,-2.2695,-2.2334,-2.1795,-2.1611,-2.1182,-2.0801,-2.0683,-2.0615,-2.0615,-2.0615,-2.0615,-2.0615,-2.0615,-2.0615,-2.0615,-2.0615,-2.0615,-2.0615,-2.0654,-2.0762,-2.0447,-1.9736,-1.9678,-1.9471,-1.8997,-1.8749,-1.8749,-1.8541,-1.8421,-1.855,-1.8421,-1.7082,-1.5869,-1.5545,-1.5213,-1.4441,-1.3868,-1.3841,-1.3946,-1.4212,-1.3844,-1.342,-1.316,-1.2926,-1.2811,-1.2656,-1.2452,-1.2305,-1.2305,-1.2305,-1.2305,-1.2305,-1.2305,-1.2305,-1.2305,-1.2305,-1.2305,-1.2305,-1.2305,-1.2305,-1.2305,-1.2311,-1.2318,-1.2318,-1.2305,-1.2305,-1.2305,-1.2345,-1.2565,-3.3124,-3.3124,-3.3124,-3.3124,-3.3124,-3.3124,-3.2754,-3.224,-3.219,-3.1599,-3.0663,-3.0154,-2.9784,-2.9423,-2.8454,-2.7964,-2.8227,-2.7155,-2.6379,-2.5542,-2.4811,-2.4088,-2.3799,-2.3887,-2.3867,-2.3247,-2.3354,-2.3682,-2.373,-2.3477,-2.3149,-2.3227,-2.3149,-2.311,-2.3101,-2.3101,-2.3101,-2.3101,-2.3101,-2.3101,-2.3101,-2.3101,-2.3101,-2.3101,-2.3091,-2.3101,-2.3033,-2.2652,-2.2285,-2.1865,-2.1426,-2.0986,-2.0693,-2.0615,-2.0615,-2.0615,-2.0615,-2.0615,-2.0615,-2.0615,-2.0615,-2.0615,-2.0635,-2.0664,-2.0781,-2.0966,-2.0529,-1.9213,-1.9125,-1.851,-1.7658,-1.7423,-1.7577,-1.7536,-1.7172,-1.7172,-1.6968,-1.591,-1.5421,-1.5462,-1.5103,-1.4454,-1.4035,-1.4055,-1.4329,-1.4879,-1.4559,-1.3823,-1.3474,-1.3173,-1.2978,-1.2811,-1.267,-1.2445,-1.2331,-1.2325,-1.2318,-1.2318,-1.2318,-1.2305,-1.2305,-1.2305,-1.2305,-1.2305,-1.2305,-1.2305,-1.2305,-1.2305,-1.2305,-1.2305,-1.2305,-1.2305,-1.2311,-1.2345,-1.2452,-3.3124,-3.3124,-3.3124,-3.3124,-3.3124,-3.3124,-3.2742,-3.2303,-3.2252,-3.1592,-3.0437,-2.9128,-2.8855,-2.8887,-2.7759,-2.7352,-2.8354,-2.642,-2.5978,-2.5664,-2.5012,-2.4094,-2.3769,-2.374,-2.3799,-2.3594,-2.3525,-2.3769,-2.3955,-2.3393,-2.3447,-2.3643,-2.3257,-2.314,-2.3101,-2.3101,-2.3101,-2.3101,-2.3101,-2.3101,-2.3101,-2.3101,-2.3101,-2.3101,-2.3101,-2.3091,-2.3081,-2.2691,-2.2324,-2.1904,-2.1465,-2.1025,-2.0703,-2.0615,-2.0615,-2.0615,-2.0615,-2.0635,-2.0683,-2.0644,-2.0625,-2.0615,-2.0723,-2.0889,-2.1035,-2.0771,-2.0116,-1.9063,-1.8678,-1.8109,-1.7504,-1.7261,-1.6772,-1.6527,-1.6157,-1.6157,-1.5918,-1.5186,-1.4817,-1.5262,-1.5006,-1.4402,-1.4215,-1.4242,-1.4142,-1.4601,-1.458,-1.3888,-1.3653,-1.3407,-1.3126,-1.2971,-1.2857,-1.267,-1.2398,-1.2378,-1.2432,-1.2392,-1.2358,-1.2331,-1.2305,-1.2305,-1.2305,-1.2305,-1.2305,-1.2305,-1.2305,-1.2305,-1.2305,-1.2305,-1.2325,-1.2405,-1.2458,-1.2512,-1.2623,-3.3124,-3.3124,-3.3124,-3.3124,-3.3124,-3.3124,-3.2955,-3.278,-3.2729,-3.1881,-3.0356,-2.8496,-2.7828,-2.7863,-2.7107,-2.6517,-2.6965,-2.6658,-2.5991,-2.5395,-2.4733,-2.4228,-2.3975,-2.375,-2.3652,-2.3496,-2.3457,-2.3613,-2.3867,-2.3364,-2.3496,-2.3525,-2.334,-2.3159,-2.3101,-2.3101,-2.3101,-2.3101,-2.3101,-2.3101,-2.3101,-2.3101,-2.3101,-2.3101,-2.3101,-2.3101,-2.3033,-2.2682,-2.2324,-2.1904,-2.1465,-2.1025,-2.0693,-2.0625,-2.0615,-2.0615,-2.0615,-2.0713,-2.082,-2.0742,-2.0723,-2.1016,-2.1201,-2.1328,-2.122,-2.1035,-1.9792,-1.8794,-1.7989,-1.7504,-1.5677,-1.5311,-1.5193,-1.5186,-1.5228,-1.5228,-1.5027,-1.448,-1.4457,-1.4958,-1.4816,-1.4345,-1.4369,-1.4479,-1.4295,-1.4253,-1.4151,-1.4028,-1.3841,-1.3633,-1.3414,-1.3206,-1.3093,-1.3018,-1.2766,-1.2665,-1.2585,-1.2512,-1.2452,-1.2438,-1.2425,-1.2305,-1.2305,-1.2305,-1.2325,-1.2331,-1.2331,-1.2311,-1.2311,-1.2311,-1.2438,-1.2636,-1.2683,-1.2717,-1.2837,-3.3124,-3.3124,-3.3124,-3.3124,-3.3124,-3.3124,-3.2968,-3.283,-3.278,-3.1951,-3.0292,-2.8311,-2.7424,-2.7279,-2.6156,-2.5731,-2.5818,-2.5773,-2.5438,-2.5056,-2.4724,-2.4463,-2.4287,-2.417,-2.4014,-2.3564,-2.3594,-2.3838,-2.4033,-2.3374,-2.3457,-2.3535,-2.3335,-2.314,-2.3101,-2.3101,-2.3101,-2.3101,-2.3101,-2.3101,-2.3101,-2.3101,-2.3101,-2.3101,-2.3101,-2.3101,-2.2994,-2.2701,-2.2314,-2.1904,-2.1475,-2.1025,-2.0742,-2.0615,-2.0615,-2.0615,-2.0644,-2.0772,-2.0869,-2.0977,-2.0957,-2.1387,-2.124,-2.1299,-2.1279,-2.1053,-1.9834,-1.7838,-1.7293,-1.6453,-1.4474,-1.4334,-1.4454,-1.4573,-1.4538,-1.4552,-1.4647,-1.4345,-1.4419,-1.4615,-1.4489,-1.4556,-1.4389,-1.4429,-1.4369,-1.4235,-1.4148,-1.4095,-1.4015,-1.3861,-1.3728,-1.3547,-1.3373,-1.3307,-1.3193,-1.3033,-1.2879,-1.2819,-1.2746,-1.2659,-1.2599,-1.2492,-1.2438,-1.2498,-1.2529,-1.2442,-1.2392,-1.2418,-1.2378,-1.2318,-1.2529,-1.2737,-1.2857,-1.2918,-1.3066,-3.3124,-3.3124,-3.3124,-3.3124,-3.3124,-3.3124,-3.278,-3.234,-3.2198,-3.1473,-3.0119,-2.85,-2.7619,-2.7106,-2.5554,-2.5189,-2.527,-2.4989,-2.4751,-2.4803,-2.4863,-2.4531,-2.4404,-2.4385,-2.4287,-2.3896,-2.3799,-2.3945,-2.4209,-2.3442,-2.3393,-2.3506,-2.3276,-2.3101,-2.3101,-2.3101,-2.3101,-2.3101,-2.3101,-2.3101,-2.3101,-2.3101,-2.3101,-2.3101,-2.3101,-2.3101,-2.3013,-2.2734,-2.2324,-2.1904,-2.1434,-2.1025,-2.0674,-2.0615,-2.0615,-2.0615,-2.0615,-2.0654,-2.0703,-2.1006,-2.1348,-2.1602,-2.1367,-2.1035,-2.1094,-2.073,-1.9806,-1.776,-1.7597,-1.6464,-1.5118,-1.4242,-1.4347,-1.4155,-1.4168,-1.4202,-1.4349,-1.4516,-1.4646,-1.4727,-1.4847,-1.4888,-1.4563,-1.4382,-1.4376,-1.4295,-1.4195,-1.4135,-1.4088,-1.4021,-1.3895,-1.3828,-1.3653,-1.358,-1.3494,-1.3273,-1.318,-1.312,-1.3026,-1.2913,-1.2866,-1.2819,-1.2779,-1.2784,-1.2757,-1.2685,-1.2612,-1.2552,-1.2579,-1.2625,-1.2656,-1.2804,-1.2951,-1.3099,-1.322,-3.3124,-3.3124,-3.3124,-3.3124,-3.3124,-3.3124,-3.2742,-3.2202,-3.1751,-3.0767,-2.9353,-2.851,-2.75,-2.6422,-2.5815,-2.5322,-2.5391,-2.5439,-2.5235,-2.5244,-2.5176,-2.4988,-2.4803,-2.458,-2.4375,-2.3935,-2.3789,-2.3682,-2.3461,-2.3188,-2.3179,-2.3218,-2.3208,-2.311,-2.3101,-2.3101,-2.3101,-2.3101,-2.3101,-2.3101,-2.3101,-2.3101,-2.3101,-2.3101,-2.3101,-2.3101,-2.3071,-2.2734,-2.2334,-2.1943,-2.1492,-2.1074,-2.0742,-2.0654,-2.0625,-2.0615,-2.0625,-2.0928,-2.1143,-2.1445,-2.1435,-2.1523,-2.1387,-2.1055,-2.1142,-2.1083,-1.9745,-1.8458,-1.8321,-1.7085,-1.5531,-1.5469,-1.5376,-1.4568,-1.4409,-1.4416,-1.4522,-1.4716,-1.4901,-1.4981,-1.5089,-1.515,-1.501,-1.4549,-1.4422,-1.4342,-1.4242,-1.4142,-1.4088,-1.4082,-1.4015,-1.4015,-1.3948,-1.3901,-1.3794,-1.3607,-1.3467,-1.346,-1.33,-1.312,-1.3093,-1.314,-1.2999,-1.2945,-1.2946,-1.2979,-1.2899,-1.2846,-1.2939,-1.2986,-1.3012,-1.3053,-1.326,-1.33,-1.3287,-3.3124,-3.3124,-3.3124,-3.3124,-3.3124,-3.3124,-3.2742,-3.2215,-3.1743,-3.0525,-2.8968,-2.8757,-2.7729,-2.6272,-2.5684,-2.5586,-2.5547,-2.5625,-2.5489,-2.5537,-2.542,-2.5185,-2.501,-2.4863,-2.4521,-2.4062,-2.3877,-2.3789,-2.3208,-2.312,-2.312,-2.313,-2.3101,-2.3101,-2.3101,-2.3101,-2.3101,-2.3101,-2.3101,-2.3101,-2.3101,-2.3101,-2.3101,-2.3101,-2.3101,-2.3101,-2.2984,-2.2711,-2.2393,-2.2051,-2.1689,-2.121,-2.0947,-2.0801,-2.0723,-2.0674,-2.0791,-2.1162,-2.1562,-2.166,-2.168,-2.1807,-2.1475,-2.1229,-2.1118,-2.0852,-1.9774,-1.8895,-1.8956,-1.7431,-1.5756,-1.5944,-1.5625,-1.4764,-1.4676,-1.4683,-1.485,-1.5095,-1.5184,-1.5257,-1.5331,-1.5424,-1.5351,-1.4883,-1.4489,-1.4389,-1.4275,-1.4182,-1.4095,-1.4088,-1.4088,-1.4082,-1.4075,-1.4015,-1.3968,-1.3895,-1.3814,-1.3753,-1.356,-1.334,-1.3454,-1.3507,-1.3287,-1.3152,-1.3227,-1.3273,-1.318,-1.316,-1.3247,-1.3293,-1.3313,-1.3434,-1.3586,-1.3567,-1.3534,-3.3124,-3.3124,-3.3124,-3.3124,-3.3124,-3.3124,-3.2742,-3.2215,-3.2152,-3.0778,-2.8656,-2.9104,-2.7996,-2.6032,-2.5684,-2.5547,-2.5332,-2.5605,-2.5498,-2.5361,-2.541,-2.5293,-2.5254,-2.5225,-2.4609,-2.4199,-2.3965,-2.376,-2.3159,-2.3101,-2.3101,-2.3101,-2.3101,-2.3101,-2.3101,-2.3101,-2.3101,-2.3101,-2.3101,-2.3101,-2.3101,-2.3101,-2.3101,-2.3101,-2.3101,-2.3101,-2.2994,-2.2769,-2.2598,-2.2353,-2.2109,-2.1648,-2.1325,-2.1229,-2.0977,-2.0889,-2.1084,-2.1484,-2.1855,-2.1894,-2.1678,-2.1643,-2.1344,-2.1215,-2.1113,-2.0767,-1.9731,-1.8767,-1.8327,-1.6817,-1.5511,-1.5483,-1.5462,-1.5149,-1.5015,-1.5077,-1.5257,-1.5411,-1.5538,-1.5625,-1.5685,-1.5665,-1.5391,-1.499,-1.4696,-1.4462,-1.4349,-1.4208,-1.4128,-1.4088,-1.4088,-1.4088,-1.4082,-1.4082,-1.4048,-1.4008,-1.3995,-1.3928,-1.38,-1.3646,-1.3788,-1.3801,-1.3594,-1.348,-1.3527,-1.354,-1.3534,-1.3514,-1.3534,-1.3581,-1.3621,-1.3667,-1.3808,-1.3908,-1.3901,-3.3124,-3.3124,-3.3124,-3.3124,-3.3124,-3.3124,-3.2754,-3.2202,-3.1797,-3.0465,-2.8656,-2.9149,-2.7887,-2.583,-2.5684,-2.5586,-2.5577,-2.5596,-2.5606,-2.5566,-2.5371,-2.5253,-2.5125,-2.4932,-2.4404,-2.4062,-2.3838,-2.3695,-2.3227,-2.3101,-2.3101,-2.3101,-2.3101,-2.3101,-2.3101,-2.3101,-2.3101,-2.3101,-2.3101,-2.3101,-2.3101,-2.3101,-2.3101,-2.3101,-2.3101,-2.3101,-2.3023,-2.2974,-2.2779,-2.2434,-2.2379,-2.1858,-2.043,-2.1135,-2.1582,-2.1603,-2.1689,-2.1885,-2.2187,-2.206,-2.1701,-2.1226,-2.092,-2.1309,-2.1239,-2.0701,-1.9757,-1.8756,-1.8008,-1.6881,-1.6,-1.5737,-1.5611,-1.5408,-1.5316,-1.5337,-1.5498,-1.5598,-1.5712,-1.5752,-1.5825,-1.5732,-1.5451,-1.5291,-1.5003,-1.4669,-1.4422,-1.4289,-1.4168,-1.4128,-1.4088,-1.4088,-1.4088,-1.4088,-1.4088,-1.4055,-1.4068,-1.4055,-1.3961,-1.3915,-1.3955,-1.3928,-1.3793,-1.374,-1.3713,-1.3834,-1.3928,-1.3888,-1.3794,-1.3888,-1.3935,-1.3948,-1.3981,-1.4041,-1.4088,-3.3124,-3.3124,-3.3124,-3.284,-3.2308,-3.197,-3.1449,-3.0985,-3.1156,-3.017,-2.8357,-2.8503,-2.7579,-2.5965,-2.5684,-2.5664,-2.5703,-2.5488,-2.5488,-2.5605,-2.5254,-2.5146,-2.4941,-2.4727,-2.4375,-2.4014,-2.3721,-2.3603,-2.3198,-2.3101,-2.3101,-2.3101,-2.3101,-2.3101,-2.3101,-2.3101,-2.3101,-2.3101,-2.3101,-2.3101,-2.3101,-2.3101,-2.3101,-2.3101,-2.3101,-2.3101,-2.3101,-2.3101,-2.2751,-2.2202,-2.2044,-2.1213,-1.9859,-2.0162,-2.0987,-2.0969,-2.1334,-2.1386,-2.1565,-2.1693,-2.1293,-2.082,-2.0369,-2.043,-2.0254,-1.9734,-1.906,-1.8312,-1.7903,-1.7392,-1.6736,-1.618,-1.5892,-1.5658,-1.5611,-1.5565,-1.5651,-1.5738,-1.5785,-1.5812,-1.5792,-1.5691,-1.5618,-1.5491,-1.5317,-1.501,-1.4696,-1.4436,-1.4289,-1.4175,-1.4122,-1.4088,-1.4088,-1.4088,-1.4088,-1.4088,-1.4088,-1.4088,-1.4062,-1.4035,-1.4088,-1.4055,-1.3961,-1.3901,-1.3854,-1.3948,-1.4041,-1.4062,-1.4021,-1.4088,-1.4088,-1.4048,-1.4028,-1.4055,-1.4088,-3.3124,-3.3124,-3.3124,-3.2426,-3.118,-3.0436,-2.9647,-2.8903,-3.014,-2.9636,-2.7813,-2.7615,-2.6993,-2.5868,-2.5684,-2.5684,-2.5664,-2.5469,-2.541,-2.5615,-2.5137,-2.4893,-2.4842,-2.4881,-2.4121,-2.3838,-2.3652,-2.3437,-2.3188,-2.3101,-2.3101,-2.3101,-2.3101,-2.3101,-2.3101,-2.3101,-2.3101,-2.3101,-2.3101,-2.3101,-2.3101,-2.3101,-2.3101,-2.3101,-2.3101,-2.3101,-2.3101,-2.2906,-2.2536,-2.1747,-2.1141,-2.0518,-1.955,-1.8655,-1.9346,-2.0061,-2.0534,-2.0622,-2.0721,-2.0828,-2.0625,-2.0208,-1.9785,-1.9257,-1.8758,-1.875,-1.824,-1.7842,-1.7429,-1.6842,-1.6142,-1.5994,-1.5819,-1.5759,-1.5705,-1.5705,-1.5745,-1.5798,-1.5805,-1.5825,-1.5818,-1.5765,-1.5698,-1.5618,-1.5484,-1.5264,-1.5057,-1.473,-1.4449,-1.4295,-1.4202,-1.4142,-1.4088,-1.4088,-1.4088,-1.4088,-1.4088,-1.4088,-1.4088,-1.4088,-1.4088,-1.4088,-1.4088,-1.4021,-1.3961,-1.4015,-1.4082,-1.4088,-1.4088,-1.4088,-1.4088,-1.4088,-1.4088,-1.4088,-1.4088,-3.3124,-3.3124,-3.3124,-3.237,-3.1243,-3.0961,-2.9668,-2.7971,-2.8254,-2.7964,-2.7226,-2.728,-2.6897,-2.583,-2.5684,-2.5684,-2.5625,-2.5498,-2.542,-2.5244,-2.4873,-2.459,-2.416,-2.4092,-2.3588,-2.3344,-2.3218,-2.3237,-2.313,-2.3101,-2.3101,-2.3101,-2.3101,-2.3101,-2.3101,-2.3101,-2.3101,-2.3101,-2.3101,-2.3101,-2.3101,-2.3101,-2.3101,-2.3101,-2.3101,-2.3101,-2.3091,-2.3003,-2.235,-2.1569,-2.1382,-2.0596,-1.9438,-1.8367,-1.8557,-1.9484,-1.9774,-1.9721,-1.9746,-1.9777,-1.9525,-1.8859,-1.8218,-1.7507,-1.7203,-1.7505,-1.7505,-1.7178,-1.6803,-1.6197,-1.5825,-1.5825,-1.5825,-1.5825,-1.5825,-1.5825,-1.5825,-1.5825,-1.5825,-1.5825,-1.5825,-1.5818,-1.5805,-1.5738,-1.5611,-1.5484,-1.5371,-1.5104,-1.4716,-1.4489,-1.4369,-1.4275,-1.4115,-1.4088,-1.4108,-1.4088,-1.4088,-1.4088,-1.4088,-1.4088,-1.4088,-1.4088,-1.4088,-1.4088,-1.4075,-1.4088,-1.4088,-1.4088,-1.4088,-1.4088,-1.4088,-1.4088,-1.4088,-1.4088,-1.4088,-3.3124,-3.3124,-3.3124,-3.237,-3.1231,-3.0442,-2.9037,-2.7414,-2.6722,-2.6364,-2.6201,-2.6472,-2.6332,-2.5732,-2.5684,-2.5664,-2.5625,-2.5488,-2.5469,-2.5234,-2.4805,-2.4531,-2.4092,-2.3666,-2.3452,-2.3247,-2.313,-2.311,-2.3101,-2.3101,-2.3101,-2.3101,-2.3101,-2.3101,-2.3101,-2.3101,-2.3101,-2.3101,-2.3101,-2.3101,-2.3101,-2.3101,-2.3101,-2.3101,-2.3101,-2.3091,-2.2862,-2.2633,-2.1578,-2.0296,-1.9389,-1.9077,-1.8141,-1.7439,-1.7554,-1.8295,-1.8664,-1.8688,-1.8734,-1.8596,-1.8365,-1.7777,-1.699,-1.6473,-1.6332,-1.6574,-1.6622,-1.6386,-1.6339,-1.5825,-1.5825,-1.5825,-1.5825,-1.5825,-1.5825,-1.5825,-1.5825,-1.5825,-1.5825,-1.5825,-1.5825,-1.5825,-1.5818,-1.5812,-1.5698,-1.5651,-1.5551,-1.5398,-1.503,-1.475,-1.4609,-1.4462,-1.4329,-1.4262,-1.4315,-1.4222,-1.4088,-1.4088,-1.4108,-1.4108,-1.4122,-1.4095,-1.4088,-1.4088,-1.4088,-1.4088,-1.4088,-1.4088,-1.4088,-1.4088,-1.4088,-1.4088,-1.4088,-1.4088,-1.4088,-3.3124,-3.3124,-3.3124,-3.2382,-3.1075,-2.9565,-2.8227,-2.6976,-2.5762,-2.5233,-2.5367,-2.5673,-2.5664,-2.5684,-2.5684,-2.5645,-2.5518,-2.5303,-2.5352,-2.5137,-2.4902,-2.4346,-2.415,-2.4131,-2.373,-2.3457,-2.3286,-2.3169,-2.3101,-2.3101,-2.3101,-2.3101,-2.3101,-2.3101,-2.3101,-2.3101,-2.3101,-2.3101,-2.3101,-2.3101,-2.3101,-2.3101,-2.3101,-2.3101,-2.3091,-2.3003,-2.258,-2.1889,-2.0711,-1.9077,-1.7569,-1.721,-1.7077,-1.6615,-1.6756,-1.7217,-1.7444,-1.7451,-1.7451,-1.7404,-1.7404,-1.7084,-1.6244,-1.5872,-1.5825,-1.5825,-1.5872,-1.5872,-1.5825,-1.5825,-1.5825,-1.5825,-1.5825,-1.5825,-1.5825,-1.5825,-1.5825,-1.5825,-1.5825,-1.5825,-1.5825,-1.5825,-1.5825,-1.5825,-1.5805,-1.5758,-1.5678,-1.5524,-1.5344,-1.5144,-1.497,-1.4803,-1.4643,-1.4596,-1.4522,-1.4469,-1.4315,-1.4188,-1.4215,-1.4182,-1.4168,-1.4229,-1.4208,-1.4088,-1.4088,-1.4088,-1.4088,-1.4088,-1.4088,-1.4088,-1.4088,-1.4088,-1.4088,-1.4088,-1.4088,-3.3124,-3.3124,-3.3124,-3.2382,-3.111,-2.984,-2.8596,-2.7369,-2.6144,-2.5557,-2.5596,-2.5596,-2.5684,-2.5684,-2.5684,-2.5596,-2.5391,-2.5127,-2.456,-2.417,-2.4365,-2.3916,-2.3662,-2.3857,-2.3799,-2.3643,-2.3486,-2.3428,-2.3149,-2.3101,-2.3101,-2.3101,-2.3101,-2.3101,-2.3101,-2.3101,-2.3101,-2.3101,-2.3101,-2.3101,-2.3101,-2.3101,-2.3101,-2.3101,-2.3101,-2.2448,-2.1845,-2.1471,-1.9988,-1.8311,-1.6756,-1.6251,-1.6109,-1.6062,-1.615,-1.6292,-1.648,-1.6433,-1.648,-1.648,-1.6527,-1.6433,-1.5825,-1.5825,-1.5825,-1.5825,-1.5825,-1.5825,-1.5825,-1.5825,-1.5825,-1.5825,-1.5825,-1.5825,-1.5825,-1.5825,-1.5825,-1.5825,-1.5825,-1.5825,-1.5825,-1.5825,-1.5825,-1.5825,-1.5825,-1.5798,-1.5798,-1.5645,-1.5491,-1.5391,-1.5311,-1.5157,-1.4977,-1.473,-1.4576,-1.4756,-1.4713,-1.4532,-1.4369,-1.4409,-1.4436,-1.4442,-1.4376,-1.4162,-1.4088,-1.4088,-1.4088,-1.4088,-1.4088,-1.4088,-1.4088,-1.4088,-1.4088,-1.4088,-1.4088]},{"header":{"parameterUnit":"m.s-1","parameterCategory":1,"la1":31.0,"la2":29.5877,"lo1":-88.7671,"lo2":-86.6584,"dy":0.0162,"dx":0.0185,"nx":115,"ny":88,"refTime":"2024-05-02T18:00:00:Z","depth":0,"parameterNumber":3,"parameterNumberName":"V-component_of_WINDS"},"data":[0.0,0.0,0.0,0.0,0.0,0.0,0.0,0.0,0.0,0.0,0.0,0.0,0.0,0.0,0.0,0.0,0.0,0.0,0.0,0.0,0.0,0.0,0.0,0.0,0.0,0.0,0.0,0.0,0.0,0.0,0.0,0.0,0.0,0.0,0.0,0.0,0.0,0.0,0.0,0.0,0.0,0.0,0.0,0.0,0.0,0.0,0.0,0.0,0.0,0.0,0.0,0.0,0.0,0.0,0.0,0.0,0.0,0.0,0.0,0.0,0.0,0.0,0.0,0.0,0.0,0.0,0.0,0.0,0.0,0.0,0.0,0.0,0.0,0.0,0.0,0.0,0.0,0.0,0.0,0.0,0.0,0.0,0.0,0.0,0.0,0.0,0.0,0.0,0.0,0.0,0.0,0.0,0.0,0.0,0.0,0.0,0.0,0.0,0.0,0.0,0.0,0.0,0.0,0.0,0.0,0.0,0.0,0.0,0.0,0.0,0.0,0.0,0.0,0.0,0.0,0.0,0.0,0.0,0.0,0.0,0.0,0.0,0.0,0.0,0.0,0.0,0.0,0.0,0.0,0.0,0.0,0.0,0.0,0.0,0.0,0.0,0.0,0.0,0.0,0.0,0.0,0.0,0.0,0.0,0.0,0.0,0.0,0.0,0.0,0.0,0.0,0.0,0.0,0.0,0.0,0.0,0.0,0.0,0.0,0.0,0.0,0.0,0.0,0.0,0.0,0.0,0.0,0.0,0.0,0.0,0.0,0.0,0.0,0.0,0.0,0.0,0.0,0.0,0.0,0.0,0.0,0.0,0.0,0.0,0.0,0.0,0.0,0.0,0.0,0.0,0.0,0.0,0.0,0.0,0.0,0.0,0.0,0.0,0.0,0.0,0.0,0.0,0.0,0.0,0.0,0.0,0.0,0.0,0.0,0.0,0.0,0.0,0.0,0.0,0.0,0.0,0.0,0.0,0.0,0.0,0.0,0.0,0.0,0.0,0.0,0.0,0.0,0.0,0.0,0.0,0.0,0.0,0.0,0.0,0.0,0.0,0.0,0.0,0.0,0.0,0.0,0.0,0.0,0.0,0.0,0.0,0.0,0.0,0.0,0.0,0.0,0.0,0.0,0.0,0.0,0.0,0.0,0.0,0.0,0.0,0.0,0.0,0.0,0.0,0.0,0.0,0.0,0.0,0.0,0.0,0.0,0.0,0.0,0.0,0.0,0.0,0.0,0.0,0.0,0.0,0.0,0.0,0.0,0.0,0.0,0.0,0.0,0.0,0.0,0.0,0.0,0.0,0.0,0.0,0.0,0.0,0.0,0.0,0.0,0.0,0.0,0.0,0.0,0.0,0.0,0.0,0.0,0.0,0.0,0.0,0.0,0.0,0.0,0.0,0.0,0.0,0.0,0.0,0.0,0.0,0.0,0.0,0.0,0.0,0.0,0.0,0.0,0.0,0.0,0.0,0.0,0.0,0.0,0.0,0.0,0.0,0.0,0.0,0.0,0.0,0.0,0.0,0.0,0.0,0.0,0.0,0.0,0.0,0.0,0.0,0.0,0.0,0.0,0.0,0.0,0.0,0.0,0.0,0.0,0.0,0.0,0.0,0.0,0.0,0.0,0.0,0.0,0.0,0.0,0.0,0.0,0.0,0.0,0.0,0.0,0.0,0.0,0.0,0.0,0.0,0.0,0.0,0.0,0.0,0.0,0.0,0.0,0.0,0.0,0.0,0.0,0.0,0.0,0.0,0.0,0.0,0.0,0.0,0.0,0.0,0.0,0.0,0.0,0.0,0.0,0.0,0.0,0.0,0.0,0.0,0.0,0.0,0.0,0.0,0.0,0.0,0.0,0.0,0.0,0.0,0.0,0.0,0.0,0.0,0.0,0.0,0.0,0.0,0.0,0.0,0.0,0.0,0.0,0.0,0.0,0.0,0.0,0.0,0.0,0.0,0.0,0.0,0.0,0.0,0.0,0.0,0.0,0.0,0.0,0.0,0.0,0.0,0.0,0.0,0.0,0.0,0.0,0.0,0.0,0.0,0.0,0.0,0.0,0.0,0.0,0.0,0.0,0.0,0.0,0.0,0.0,0.0,0.0,0.0,0.0,0.0,0.0,0.0,0.0,0.0,0.0,0.0,0.0,0.0,0.0,0.0,0.0,0.0,0.0,0.0,0.0,0.0,0.0,0.0,0.0,0.0,0.0,0.0,0.0,0.0,0.0,0.0,0.0,0.0,0.0,0.0,0.0,0.0,0.0,0.0,0.0,0.0,0.0,0.0,0.0,0.0,0.0,0.0,0.0,0.0,0.0,0.0,0.0,0.0,0.0,0.0,0.0,0.0,0.0,0.0,0.0,0.0,0.0,0.0,0.0,0.0,0.0,0.0,0.0,0.0,0.0,0.0,0.0,0.0,0.0,0.0,0.0,0.0,0.0,0.0,0.0,0.0,0.0,0.0,0.0,0.0,0.0,0.0,0.0,0.0,0.0,0.0,0.0,0.0,0.0,0.0,0.0,0.0,0.0,0.0,0.0,0.0,0.0,0.0,0.0,0.0,0.0,0.0,0.0,0.0,0.0,0.0,0.0,0.0,0.0,0.0,0.0,0.0,0.0,0.0,0.0,0.0,0.0,0.0,0.0,0.0,0.0,0.0,0.0,0.0,0.0,0.0,0.0,0.0,0.0,0.0,0.0,0.0,0.0,0.0,0.0,0.0,0.0,0.0,0.0,0.0,0.0,0.0,0.0,0.0,0.0,0.0,0.0,0.0,0.0,0.0,0.0,0.0,0.0,0.0,0.0,0.0,0.0,0.0,0.0,0.0,0.0,0.0,0.0,0.0,0.0,0.0,0.0,0.0,0.0,0.0,0.0,0.0,0.0,0.0,0.0,0.0,0.0,0.0,0.0,0.0,0.0,0.0,0.0,0.0,0.0,0.0,0.0,0.0,0.0,0.0,0.0,0.0,0.0,0.0,0.0,0.0,0.0,0.0,0.0,0.0,0.0,0.0,0.0,0.0,0.0,0.0,0.0,0.0,0.0,0.0,0.0,0.0,0.0,0.0,0.0,0.0,0.0,0.0,0.0,0.0,0.0,0.0,0.0,0.0,0.0,0.0,0.0,0.0,0.0,0.0,0.0,0.0,0.0,0.0,0.0,0.0,0.0,0.0,0.0,0.0,0.0,0.0,0.0,0.0,0.0,0.0,0.0,0.0,0.0,0.0,0.0,0.0,0.0,0.0,0.0,0.0,0.0,0.0,0.0,0.0,0.0,0.0,0.0,0.0,0.0,0.0,0.0,0.0,0.0,0.0,0.0,0.0,0.0,0.0,0.0,0.0,0.0,0.0,0.0,0.0,0.0,0.0,0.0,0.0,0.0,0.0,0.0,0.0,0.0,0.0,0.0,0.0,0.0,0.0,0.0,0.0,0.0,0.0,0.0,0.0,0.0,0.0,0.0,0.0,0.0,0.0,0.0,0.0,0.0,0.0,0.0,0.0,0.0,0.0,0.0,0.0,0.0,0.0,0.0,0.0,0.0,0.0,0.0,0.0,0.0,0.0,0.0,0.0,0.0,0.0,0.0,0.0,0.0,0.0,0.0,0.0,0.0,0.0,0.0,0.0,0.0,0.0,0.0,0.0,0.0,0.0,0.0,0.0,0.0,0.0,0.0,0.0,0.0,0.0,0.0,0.0,0.0,0.0,0.0,0.0,0.0,0.0,0.0,0.0,0.0,0.0,0.0,0.0,0.0,0.0,0.0,0.0,0.0,0.0,0.0,0.0,0.0,0.0,0.0,0.0,0.0,0.0,0.0,0.0,0.0,0.0,0.0,0.0,0.0,0.0,0.0,0.0,0.0,0.0,0.0,0.0,0.0,0.0,0.0,0.0,0.0,0.0,0.0,0.0,0.0,0.0,0.0,0.0,0.0,0.0,0.0,0.0,0.0,0.0,0.0,0.0,0.0,0.0,0.0,0.0,0.0,0.0,0.0,0.0,0.0,0.0,0.0,0.0,0.0,0.0,0.0,0.0,0.0,0.0,0.0,0.0,0.0,0.0,0.0,0.0,0.0,0.0,0.0,0.0,0.0,0.0,0.0,0.0,0.0,0.0,0.0,0.0,0.0,0.0,0.0,0.0,0.0,0.0,0.0,0.0,0.0,0.0,0.0,0.0,0.0,0.0,0.0,0.0,0.0,0.0,0.0,0.0,0.0,0.0,0.0,0.0,0.0,0.0,0.0,0.0,0.0,0.0,0.0,0.0,0.0,0.0,0.0,0.0,0.0,0.0,1.2881,0.0,0.0,0.0,0.0,0.0,0.0,0.0,0.0,0.0,0.0,0.0,0.0,0.0,0.0,0.0,0.0,0.0,0.0,0.0,0.0,0.0,0.0,0.0,0.0,0.0,0.0,0.0,0.0,0.0,0.0,0.0,0.0,0.0,0.0,0.0,0.0,0.0,0.0,0.0,0.0,0.0,0.0,0.0,0.0,0.0,0.0,0.0,0.0,0.0,0.0,0.0,0.0,0.0,0.0,0.0,0.0,0.0,0.0,0.0,0.0,0.0,0.0,0.0,0.0,0.0,0.0,0.0,0.0,0.0,0.0,0.0,0.0,0.0,0.0,0.0,0.0,0.0,0.0,0.0,0.0,0.0,0.0,0.0,0.0,0.0,0.0,0.0,0.0,0.0,0.0,0.0,0.0,0.0,0.0,0.0,0.0,0.0,0.0,0.0,0.0,0.0,0.0,0.0,0.0,0.0,0.0,0.0,0.0,0.0,0.0,1.2915,1.2915,1.2915,1.2915,1.2915,0.0,0.0,0.0,0.0,0.0,0.0,0.0,0.0,0.0,0.0,0.0,0.0,0.0,0.0,0.0,0.0,0.0,0.0,0.0,0.0,0.0,0.0,0.0,0.0,0.0,0.0,0.0,0.0,0.0,0.0,0.0,0.0,0.0,0.0,0.0,0.0,0.0,0.0,0.0,0.0,0.0,0.0,0.0,0.0,0.0,0.0,0.0,0.0,0.0,0.0,0.0,0.0,0.0,0.0,0.0,0.0,0.0,0.0,0.0,0.0,0.0,0.0,0.0,0.0,0.0,0.0,0.0,0.0,0.0,0.0,0.0,0.0,0.0,0.0,0.0,0.0,0.0,0.0,0.0,0.0,0.0,0.0,0.0,0.0,0.0,0.0,0.0,0.0,0.0,0.0,0.0,0.0,0.0,0.0,0.0,0.0,0.0,0.0,0.0,0.0,0.0,0.0,0.0,0.0,0.0,0.0,0.0,0.0,0.0,0.0,0.0,0.0,1.3164,1.3164,1.3154,0.0,0.0,0.0,0.0,0.0,0.0,0.0,0.0,0.0,0.0,0.0,0.0,0.0,0.0,0.0,0.0,0.0,0.0,0.0,0.0,0.0,0.0,0.0,0.0,0.0,0.0,0.0,0.0,0.0,0.0,0.0,0.0,0.0,0.0,0.0,0.0,0.0,0.0,0.0,0.0,0.0,0.0,0.0,0.0,0.0,0.0,0.0,0.0,0.0,0.0,0.0,0.0,0.0,0.0,0.0,0.0,0.0,0.0,0.0,0.0,0.0,0.0,0.0,0.0,0.0,0.0,0.0,0.0,0.0,0.0,0.0,0.0,0.0,0.0,0.0,0.0,0.0,0.0,0.0,0.0,0.0,0.0,0.0,0.0,0.0,0.0,0.0,0.0,0.0,0.0,0.0,0.0,0.0,0.0,0.0,0.0,0.0,0.0,0.0,0.0,0.0,0.0,0.0,0.0,0.0,0.0,0.0,0.0,0.0,0.0,1.3242,1.3968,1.3987,0.0,1.3958,0.0,0.0,0.0,0.0,0.0,0.0,0.0,0.0,0.0,0.0,0.0,0.0,0.0,0.0,0.0,0.0,0.0,0.0,0.0,0.0,0.0,0.0,0.0,0.0,0.0,0.0,0.0,0.0,0.0,0.0,0.0,0.0,0.0,0.0,0.0,0.0,0.0,0.0,0.0,0.0,0.0,0.0,0.0,0.0,0.0,0.0,0.0,0.0,0.0,0.0,0.0,0.0,0.0,0.0,0.0,0.0,0.0,0.0,0.0,0.0,0.0,0.0,0.0,0.0,0.0,0.0,0.0,0.0,0.0,0.0,0.0,0.0,0.0,0.0,0.0,0.0,0.0,0.0,0.0,0.0,0.0,0.0,0.0,0.0,0.0,0.0,0.0,0.0,0.0,0.0,0.0,0.0,0.0,0.0,0.0,0.0,0.0,0.0,0.0,0.0,0.0,0.0,0.0,0.0,0.0,0.0,0.0,0.0,0.0,0.0,1.3164,1.375,1.3743,1.3617,0.0,0.0,0.0,0.0,0.0,0.0,0.0,0.0,0.0,0.0,0.0,0.0,0.0,0.0,0.0,0.0,0.0,0.0,0.0,0.0,0.0,0.0,0.0,0.0,0.0,0.0,0.0,0.0,0.0,0.0,0.0,0.0,0.0,0.0,0.0,0.0,0.0,0.0,0.0,0.0,0.0,0.0,0.0,0.0,0.0,0.0,0.0,0.0,0.0,0.0,0.0,0.0,0.0,0.0,0.0,0.0,0.0,0.0,0.0,0.0,0.0,0.0,0.0,0.0,0.0,0.0,0.0,0.0,0.0,0.0,0.0,0.0,0.0,0.0,0.0,0.0,0.0,0.0,0.0,0.0,0.0,0.0,0.0,0.0,0.0,0.0,0.0,0.0,0.0,0.0,0.0,0.0,0.0,0.0,0.0,0.0,0.0,0.0,0.0,0.0,0.0,0.0,0.0,0.0,0.0,0.0,0.0,0.0,0.0,0.0,1.3199,1.3311,1.3799,1.3516,1.3301,1.3248,0.0,0.0,0.0,0.0,0.0,0.0,0.0,0.0,0.0,0.0,0.0,0.0,0.0,0.0,0.0,0.0,0.0,0.0,0.0,0.0,0.0,0.0,0.0,0.0,0.0,0.0,0.0,0.0,0.0,0.0,0.0,0.0,0.0,0.0,0.0,0.0,0.0,0.0,0.0,0.0,0.0,0.0,0.0,0.0,0.0,0.0,0.0,0.0,0.0,0.0,0.0,0.0,0.0,0.0,0.0,0.0,0.0,0.0,0.0,0.0,0.0,0.0,0.0,0.0,0.0,0.0,0.0,0.0,0.0,0.0,0.0,0.0,0.0,0.0,0.0,0.0,0.0,0.0,0.0,0.0,0.0,0.0,0.0,0.0,0.0,0.0,0.0,0.0,0.0,0.0,0.0,0.0,0.0,0.0,0.0,0.0,0.0,0.0,0.0,0.0,0.0,0.0,0.0,0.0,0.0,0.0,0.0,0.0,1.458,1.3877,1.3867,1.4666,1.357,1.3271,0.0,0.0,0.0,0.0,0.0,0.0,0.0,0.0,0.0,0.0,0.0,0.0,0.0,0.0,0.0,0.0,0.0,0.0,0.0,0.0,0.0,0.0,0.0,0.0,0.0,0.0,0.0,0.0,0.0,0.0,0.0,0.0,0.0,0.0,0.0,0.0,0.0,0.0,0.0,0.0,0.0,0.0,0.0,0.0,0.0,0.0,0.0,0.0,0.0,0.0,0.0,0.0,0.0,0.0,0.0,0.0,0.0,0.0,0.0,0.0,0.0,0.0,0.0,0.0,0.0,0.0,0.0,0.0,0.0,0.0,0.0,0.0,0.0,0.0,0.0,0.0,0.0,0.0,0.0,0.0,0.0,0.0,0.0,0.0,0.0,0.0,0.0,0.0,0.0,0.0,0.0,0.0,0.0,0.0,0.0,0.0,0.0,0.0,0.0,0.0,0.0,0.0,0.0,0.0,0.0,0.0,0.0,0.0,0.0,1.3561,1.3525,1.3652,1.3936,1.3516,1.3301,0.0,0.0,0.0,0.0,0.0,0.0,0.0,0.0,0.0,0.0,0.0,0.0,0.0,0.0,0.0,0.0,0.0,0.0,0.0,0.0,0.0,0.0,0.0,0.0,0.0,0.0,0.0,0.0,0.0,0.0,0.0,0.0,0.0,0.0,0.0,0.0,0.0,0.0,0.0,0.0,0.0,0.0,0.0,0.0,0.0,0.0,0.0,0.0,0.0,0.0,0.0,0.0,0.0,0.0,0.0,0.0,0.0,0.0,0.0,0.0,0.0,0.0,0.0,0.0,0.0,0.0,0.0,0.0,0.0,0.0,0.0,0.0,0.0,0.0,0.0,0.0,0.0,0.0,0.0,0.0,0.0,0.0,0.0,0.0,0.0,0.0,0.0,0.0,0.0,0.0,0.0,0.0,0.0,0.0,0.0,0.0,0.0,0.0,0.0,0.0,0.0,0.0,0.0,0.0,0.0,0.0,0.0,0.0,0.0,1.3281,0.0,1.3675,1.3675,1.3447,1.3174,0.0,0.0,0.0,0.0,0.0,0.0,0.0,0.0,0.0,0.0,0.0,0.0,0.0,0.0,0.0,0.0,0.0,0.0,0.0,0.0,0.0,0.0,0.0,0.0,0.0,0.0,0.0,0.0,0.0,0.0,0.0,0.0,0.0,0.0,0.0,0.0,0.0,0.0,0.0,0.0,0.0,0.0,0.0,0.0,0.0,0.0,0.0,0.0,0.0,0.0,0.0,0.0,0.0,0.0,0.0,0.0,0.0,0.0,0.0,0.0,0.0,0.0,0.0,0.0,0.0,0.0,0.0,0.0,0.0,0.0,0.0,0.0,0.0,0.0,0.0,0.0,0.0,0.0,0.0,0.0,0.0,0.0,0.0,0.0,0.0,0.0,0.0,0.0,0.0,0.0,0.0,0.0,0.0,0.0,0.0,0.0,0.0,0.0,0.0,0.0,0.0,0.0,0.0,0.0,0.0,0.0,0.0,0.0,1.3297,1.4026,1.4065,1.4055,1.4085,1.333,1.2915,0.0,0.0,0.0,0.0,0.0,0.0,0.0,0.0,0.0,0.0,0.0,0.0,0.0,0.0,0.0,0.0,0.0,0.0,0.0,0.0,0.0,0.0,0.0,0.0,0.0,0.0,0.0,0.0,0.0,0.0,0.0,0.0,0.0,0.0,0.0,0.0,0.0,0.0,0.0,0.0,0.0,0.0,0.0,0.0,0.0,0.0,0.0,0.0,0.0,0.0,0.0,0.0,0.0,0.0,0.0,0.0,0.0,0.0,0.0,0.0,0.0,0.0,0.0,0.0,0.0,0.0,0.0,0.0,0.0,0.0,0.0,0.0,0.0,0.0,0.0,0.0,0.0,0.0,0.0,0.0,0.0,0.0,0.0,0.0,0.0,0.0,0.0,0.0,0.0,0.0,0.0,0.0,0.0,0.0,0.0,0.0,0.0,0.0,0.0,0.0,0.0,0.0,0.0,0.0,0.0,0.0,0.0,0.0,0.0,1.3297,1.3555,1.3812,1.4065,1.332,1.3008,0.0,0.0,0.0,0.0,0.0,0.0,0.0,0.0,0.0,0.0,0.0,0.0,0.0,0.0,0.0,0.0,0.0,0.0,0.0,0.0,0.0,0.0,0.0,0.0,0.0,0.0,0.0,0.0,0.0,0.0,0.0,0.0,0.0,0.0,0.0,0.0,0.0,0.0,0.0,0.0,0.0,0.0,0.0,0.0,0.0,0.0,0.0,0.0,0.0,0.0,0.0,0.0,0.0,0.0,0.0,0.0,0.0,0.0,0.0,0.0,0.0,0.0,0.0,0.0,0.0,0.0,0.0,0.0,0.0,0.0,0.0,0.0,0.0,0.0,0.0,0.0,0.0,0.0,0.0,0.0,0.0,0.0,0.0,0.0,0.0,0.0,0.0,0.0,0.0,0.0,0.0,0.0,0.0,0.0,0.0,0.0,0.0,0.0,0.0,0.0,0.0,0.0,0.0,0.0,0.0,0.0,0.0,0.0,0.0,1.3781,1.3706,1.3841,1.4104,1.3477,1.3164,1.3262,0.0,0.0,0.0,0.0,0.0,0.0,0.0,0.0,0.0,0.0,0.0,0.0,0.0,0.0,0.0,0.0,0.0,0.0,0.0,0.0,0.0,0.0,0.0,0.0,0.0,0.0,0.0,0.0,0.0,0.0,0.0,0.0,0.0,0.0,0.0,0.0,0.0,0.0,0.0,0.0,0.0,0.0,0.0,0.0,0.0,0.0,0.0,0.0,0.0,0.0,0.0,0.0,0.0,0.0,0.0,0.0,0.0,0.0,0.0,0.0,0.0,0.0,0.0,0.0,0.0,0.0,0.0,0.0,0.0,0.0,0.0,0.0,0.0,0.0,0.0,0.0,0.0,0.0,0.0,0.0,0.0,0.0,0.0,0.0,0.0,0.0,0.0,0.0,0.0,0.0,0.0,0.0,0.0,0.0,0.0,0.0,0.0,0.0,0.0,0.0,0.0,0.0,0.0,0.0,0.0,0.0,0.0,0.0,1.519,1.452,1.4182,1.4182,1.3734,1.333,0.0,0.0,0.0,0.0,0.0,0.0,0.0,0.0,0.0,0.0,0.0,0.0,0.0,0.0,0.0,0.0,0.0,0.0,0.0,0.0,0.0,0.0,0.0,0.0,0.0,0.0,0.0,0.0,0.0,0.0,0.0,0.0,0.0,0.0,0.0,0.0,0.0,0.0,0.0,0.0,0.0,0.0,0.0,0.0,0.0,0.0,0.0,0.0,0.0,0.0,0.0,0.0,0.0,0.0,0.0,0.0,0.0,0.0,0.0,0.0,0.0,0.0,0.0,0.0,0.0,0.0,0.0,0.0,0.0,0.0,0.0,0.0,0.0,0.0,0.0,0.0,0.0,0.0,0.0,0.0,0.0,0.0,0.0,0.0,0.0,0.0,0.0,0.0,0.0,0.0,0.0,0.0,0.0,0.0,0.0,0.0,0.0,0.0,0.0,0.0,0.0,0.0,0.0,0.0,0.0,0.0,0.0,0.0,0.0,1.6078,1.5437,1.505,1.502,1.4036,1.3578,0.0,0.0,0.0,0.0,0.0,0.0,0.0,0.0,0.0,0.0,0.0,0.0,0.0,0.0,0.0,0.0,0.0,0.0,0.0,0.0,0.0,0.0,0.0,0.0,0.0,0.0,0.0,0.0,0.0,0.0,0.0,0.0,0.0,0.0,0.0,0.0,0.0,0.0,0.0,0.0,0.0,0.0,0.0,0.0,0.0,0.0,0.0,0.0,0.0,0.0,0.0,0.0,0.0,0.0,0.0,0.0,0.0,0.0,0.0,0.0,0.0,0.0,0.0,0.0,0.0,0.0,0.0,0.0,0.0,0.0,0.0,0.0,0.0,0.0,0.0,0.0,0.0,0.0,0.0,0.0,0.0,0.0,0.0,0.0,0.0,0.0,0.0,0.0,0.0,0.0,0.0,0.0,0.0,0.0,0.0,0.0,0.0,0.0,0.0,0.0,0.0,0.0,0.0,0.0,0.0,0.0,0.0,0.0,1.6575,1.7156,1.71,1.6717,1.5977,1.4893,1.4133,0.0,0.0,0.0,0.0,0.0,0.0,0.0,0.0,0.0,0.0,0.0,0.0,0.0,0.0,0.0,0.0,0.0,0.0,0.0,0.0,0.0,0.0,0.0,0.0,0.0,0.0,0.0,0.0,0.0,0.0,0.0,0.0,0.0,0.0,0.0,0.0,0.0,0.0,0.0,0.0,0.0,0.0,0.0,0.0,0.0,0.0,0.0,0.0,0.0,0.0,0.0,0.0,0.0,0.0,0.0,0.0,0.0,0.0,0.0,0.0,0.0,0.0,0.0,0.0,0.0,0.0,0.0,0.0,0.0,0.0,0.0,0.0,0.0,0.0,0.0,0.0,0.0,0.0,0.0,0.0,0.0,0.0,0.0,0.0,0.0,0.0,0.0,0.0,0.0,0.0,0.0,0.0,0.0,0.0,0.0,0.0,0.0,0.0,0.0,0.0,0.0,0.0,0.0,0.0,0.0,0.0,0.0,0.0,1.8071,1.8385,1.8955,1.8524,1.7082,1.6128,1.502,0.0,0.0,0.0,0.0,0.0,0.0,0.0,0.0,0.0,0.0,0.0,0.0,0.0,0.0,0.0,0.0,0.0,0.0,0.0,0.0,0.0,0.0,0.0,0.0,0.0,0.0,0.0,0.0,0.0,0.0,0.0,0.0,0.0,0.0,0.0,0.0,0.0,0.0,0.0,0.0,0.0,0.0,0.0,0.0,0.0,0.0,0.0,0.0,0.0,0.0,0.0,0.0,0.0,0.0,0.0,0.0,0.0,0.0,0.0,0.0,0.0,0.0,0.0,0.0,0.0,0.0,0.0,0.0,0.0,0.0,0.0,0.0,0.0,0.0,0.0,0.0,0.0,0.0,0.0,0.0,0.0,0.0,0.0,0.0,0.0,0.0,0.0,0.0,0.0,0.0,0.0,0.0,0.0,0.0,0.0,0.0,0.0,0.0,0.0,0.0,0.0,0.0,0.0,0.0,0.0,0.0,0.0,0.0,1.883,2.0327,1.93,1.8903,1.92,1.7959,1.6493,0.0,0.0,0.0,0.0,0.0,0.0,0.0,0.0,0.0,0.0,0.0,0.0,0.0,0.0,0.0,0.0,0.0,0.0,0.0,0.0,0.0,0.0,0.0,0.0,0.0,0.0,0.0,0.0,0.0,0.0,0.0,0.0,0.0,0.0,0.0,0.0,0.0,0.0,0.0,0.0,0.0,0.0,0.0,0.0,0.0,0.0,0.0,0.0,2.0543,0.0,0.0,0.0,0.0,0.0,0.0,0.0,0.0,0.0,0.0,0.0,0.0,0.0,0.0,0.0,0.0,0.0,0.0,0.0,0.0,0.0,0.0,0.0,0.0,0.0,0.0,0.0,0.0,0.0,0.0,0.0,0.0,0.0,0.0,0.0,0.0,0.0,0.0,0.0,0.0,0.0,0.0,0.0,0.0,0.0,0.0,0.0,0.0,0.0,0.0,0.0,0.0,0.0,0.0,0.0,0.0,0.0,0.0,0.0,2.0221,2.1052,2.0909,2.0321,1.9333,1.942,1.8437,0.0,0.0,0.0,0.0,0.0,0.0,0.0,0.0,0.0,0.0,0.0,0.0,0.0,0.0,0.0,0.0,0.0,0.0,0.0,0.0,0.0,0.0,0.0,0.0,0.0,0.0,0.0,0.0,0.0,0.0,0.0,0.0,0.0,0.0,0.0,0.0,0.0,0.0,0.0,0.0,0.0,0.0,0.0,0.0,0.0,0.0,0.0,0.0,0.0,0.0,0.0,0.0,0.0,0.0,0.0,0.0,0.0,0.0,0.0,0.0,0.0,0.0,0.0,0.0,0.0,0.0,0.0,0.0,0.0,0.0,0.0,0.0,0.0,0.0,0.0,0.0,0.0,0.0,0.0,0.0,0.0,0.0,0.0,0.0,0.0,0.0,0.0,0.0,0.0,0.0,0.0,0.0,0.0,0.0,0.0,0.0,0.0,0.0,0.0,0.0,0.0,0.0,0.0,0.0,0.0,0.0,0.0,2.1102,2.1576,2.1795,2.2706,2.1933,1.9348,2.0705,2.0189,1.743,0.0,0.0,0.0,0.0,0.0,0.0,0.0,0.0,0.0,0.0,0.0,0.0,0.0,0.0,0.0,0.0,0.0,0.0,0.0,0.0,0.0,0.0,0.0,0.0,0.0,0.0,0.0,0.0,0.0,0.0,0.0,0.0,0.0,0.0,0.0,0.0,0.0,0.0,1.7687,1.9132,0.0,0.0,0.0,0.0,0.0,0.0,0.0,0.0,2.0116,0.0,0.0,0.0,0.0,0.0,0.0,0.0,0.0,0.0,0.0,0.0,0.0,0.0,0.0,0.0,0.0,0.0,0.0,0.0,0.0,0.0,0.0,0.0,0.0,0.0,0.0,0.0,0.0,0.0,0.0,0.0,0.0,0.0,0.0,0.0,0.0,0.0,0.0,0.0,0.0,0.0,0.0,0.0,0.0,0.0,0.0,0.0,0.0,0.0,0.0,0.0,0.0,0.0,0.0,0.0,0.0,2.2506,2.1185,2.1674,2.4099,2.3264,2.2651,2.2341,2.1778,2.0634,1.8771,0.0,0.0,0.0,0.0,0.0,0.0,0.0,0.0,0.0,0.0,0.0,0.0,0.0,0.0,0.0,0.0,0.0,0.0,0.0,0.0,0.0,0.0,0.0,0.0,0.0,0.0,0.0,0.0,0.0,0.0,0.0,0.0,0.0,0.0,0.0,0.0,0.0,0.0,0.0,2.0104,2.0663,0.0,0.0,0.0,0.0,0.0,0.0,0.0,0.0,2.1256,0.0,0.0,0.0,0.0,0.0,0.0,0.0,0.0,0.0,0.0,0.0,0.0,0.0,0.0,0.0,0.0,0.0,0.0,0.0,0.0,0.0,0.0,0.0,0.0,0.0,0.0,0.0,0.0,0.0,0.0,0.0,0.0,0.0,0.0,0.0,0.0,0.0,0.0,0.0,0.0,0.0,0.0,0.0,0.0,0.0,0.0,0.0,0.0,0.0,0.0,0.0,0.0,0.0,0.0,0.0,2.2531,2.2621,2.3215,2.4441,2.4055,2.3338,2.2414,2.153,2.0426,0.0,0.0,0.0,0.0,0.0,0.0,0.0,0.0,0.0,0.0,0.0,0.0,0.0,0.0,0.0,0.0,0.0,0.0,0.0,0.0,0.0,0.0,0.0,0.0,0.0,0.0,0.0,0.0,0.0,0.0,0.0,0.0,0.0,0.0,0.0,0.0,0.0,0.0,0.0,0.0,2.0528,2.0792,2.1081,0.0,0.0,0.0,0.0,0.0,0.0,2.0563,2.1114,0.0,0.0,0.0,0.0,0.0,0.0,0.0,0.0,0.0,0.0,0.0,0.0,0.0,0.0,0.0,0.0,0.0,0.0,0.0,0.0,0.0,0.0,0.0,0.0,0.0,0.0,0.0,0.0,0.0,0.0,0.0,0.0,0.0,0.0,0.0,0.0,0.0,0.0,0.0,0.0,0.0,0.0,0.0,0.0,0.0,0.0,0.0,0.0,0.0,0.0,0.0,0.0,0.0,0.0,0.0,2.2255,2.371,2.4488,2.448,2.469,2.3838,2.1877,2.1078,2.0126,0.0,0.0,0.0,0.0,0.0,0.0,0.0,0.0,0.0,0.0,0.0,0.0,0.0,0.0,0.0,0.0,0.0,0.0,0.0,0.0,0.0,0.0,0.0,0.0,0.0,0.0,0.0,0.0,0.0,0.0,0.0,0.0,0.0,0.0,0.0,0.0,0.0,0.0,0.0,0.0,0.0,2.1395,2.1481,2.0715,0.0,0.0,0.0,0.0,1.9535,2.072,0.0,0.0,0.0,0.0,0.0,0.0,0.0,0.0,0.0,0.0,0.0,0.0,0.0,0.0,0.0,0.0,0.0,0.0,0.0,0.0,0.0,0.0,0.0,0.0,0.0,0.0,0.0,0.0,0.0,0.0,0.0,0.0,0.0,0.0,0.0,0.0,0.0,0.0,0.0,0.0,0.0,0.0,0.0,0.0,0.0,0.0,0.0,0.0,0.0,0.0,0.0,0.0,0.0,0.0,0.0,0.0,2.2209,2.2957,2.4004,2.5353,2.5031,2.3979,2.2259,2.124,1.995,0.0,0.0,0.0,0.0,0.0,0.0,0.0,0.0,0.0,0.0,0.0,0.0,0.0,0.0,0.0,0.0,0.0,0.0,0.0,0.0,0.0,0.0,0.0,0.0,0.0,0.0,0.0,0.0,0.0,0.0,0.0,0.0,0.0,0.0,0.0,0.0,0.0,0.0,0.0,0.0,0.0,2.31,2.1681,2.1408,2.1091,0.0,0.0,2.0671,2.136,2.3331,0.0,0.0,0.0,0.0,0.0,0.0,0.0,0.0,0.0,0.0,0.0,0.0,0.0,0.0,0.0,0.0,0.0,0.0,0.0,0.0,0.0,0.0,0.0,0.0,0.0,0.0,0.0,0.0,0.0,0.0,0.0,0.0,0.0,0.0,0.0,0.0,0.0,0.0,0.0,0.0,0.0,0.0,0.0,0.0,0.0,0.0,0.0,0.0,0.0,0.0,0.0,0.0,0.0,0.0,0.0,2.0326,2.2681,2.3609,2.4412,2.5121,2.4901,2.4017,2.233,2.0928,1.971,0.0,0.0,0.0,0.0,0.0,0.0,0.0,0.0,0.0,0.0,0.0,0.0,0.0,0.0,0.0,0.0,0.0,0.0,0.0,0.0,0.0,0.0,0.0,0.0,0.0,0.0,0.0,0.0,0.0,0.0,0.0,0.0,0.0,0.0,0.0,0.0,0.0,0.0,0.0,0.0,0.0,0.0,2.2046,2.2209,0.0,0.0,0.0,2.2148,2.249,0.0,0.0,0.0,0.0,0.0,0.0,0.0,0.0,0.0,0.0,0.0,0.0,0.0,0.0,0.0,0.0,0.0,0.0,0.0,0.0,0.0,0.0,0.0,0.0,0.0,0.0,0.0,0.0,0.0,0.0,0.0,0.0,0.0,0.0,0.0,0.0,0.0,0.0,0.0,0.0,0.0,0.0,0.0,0.0,0.0,0.0,0.0,0.0,0.0,0.0,0.0,0.0,0.0,0.0,0.0,0.0,0.0,2.3058,2.4224,2.48,2.48,2.48,2.3954,2.2159,2.0614,0.0,0.0,0.0,0.0,0.0,0.0,0.0,0.0,0.0,0.0,0.0,0.0,0.0,0.0,0.0,0.0,0.0,0.0,0.0,0.0,0.0,0.0,0.0,0.0,0.0,0.0,0.0,1.8708,0.0,0.0,0.0,0.0,0.0,0.0,0.0,0.0,0.0,0.0,0.0,0.0,0.0,0.0,2.3407,2.3157,2.3844,2.412,0.0,0.0,2.3682,2.3175,2.4253,2.4532,0.0,0.0,0.0,0.0,0.0,0.0,0.0,0.0,0.0,0.0,0.0,0.0,0.0,0.0,0.0,0.0,0.0,0.0,0.0,0.0,0.0,0.0,0.0,0.0,0.0,0.0,0.0,0.0,0.0,0.0,0.0,0.0,0.0,0.0,0.0,0.0,0.0,0.0,0.0,0.0,0.0,0.0,0.0,0.0,0.0,0.0,0.0,0.0,0.0,0.0,0.0,0.0,0.0,0.0,0.0,2.3045,2.4211,2.48,2.48,2.48,2.3778,2.1619,2.0413,1.9321,0.0,0.0,0.0,0.0,0.0,0.0,0.0,0.0,0.0,0.0,0.0,0.0,0.0,0.0,0.0,0.0,0.0,0.0,0.0,0.0,0.0,0.0,0.0,0.0,0.0,0.0,0.0,0.0,0.0,0.0,0.0,0.0,0.0,0.0,0.0,0.0,0.0,0.0,0.0,0.0,0.0,2.6421,2.5438,2.6794,2.7451,0.0,0.0,2.5258,2.3422,2.5737,2.6581,2.314,0.0,0.0,0.0,0.0,0.0,0.0,0.0,0.0,0.0,0.0,0.0,0.0,0.0,0.0,0.0,0.0,0.0,0.0,0.0,0.0,0.0,0.0,0.0,0.0,0.0,0.0,0.0,0.0,0.0,0.0,0.0,0.0,0.0,0.0,0.0,0.0,0.0,0.0,0.0,0.0,0.0,0.0,0.0,0.0,0.0,0.0,0.0,0.0,0.0,0.0,0.0,0.0,0.0,2.0891,2.3083,2.4211,2.48,2.48,2.48,2.3753,2.1543,2.0388,1.9296,0.0,0.0,0.0,0.0,0.0,0.0,0.0,0.0,0.0,0.0,0.0,0.0,0.0,0.0,0.0,0.0,0.0,0.0,0.0,0.0,0.0,0.0,0.0,0.0,0.0,0.0,0.0,0.0,1.9511,1.9387,1.9387,0.0,0.0,0.0,0.0,0.0,0.0,0.0,0.0,0.0,0.0,2.6642,2.6618,2.7857,0.0,0.0,2.7662,2.7466,2.6319,2.7214,2.7215,2.4664,2.4873,0.0,0.0,0.0,0.0,0.0,0.0,0.0,0.0,0.0,0.0,0.0,0.0,0.0,0.0,0.0,0.0,0.0,0.0,0.0,0.0,0.0,0.0,0.0,0.0,0.0,0.0,0.0,0.0,0.0,0.0,0.0,0.0,0.0,0.0,0.0,0.0,0.0,0.0,0.0,0.0,0.0,0.0,0.0,0.0,0.0,0.0,0.0,0.0,0.0,0.0,0.0,0.0,2.1167,2.3333,2.4311,2.48,2.48,2.48,2.3753,2.1568,2.0564,1.9472,0.0,0.0,0.0,0.0,0.0,0.0,0.0,0.0,0.0,0.0,0.0,0.0,0.0,0.0,0.0,0.0,0.0,0.0,0.0,0.0,0.0,0.0,0.0,0.0,0.0,0.0,0.0,0.0,2.0393,1.9914,1.9723,0.0,0.0,0.0,0.0,0.0,0.0,0.0,0.0,0.0,0.0,2.7737,2.821,2.9334,2.9825,2.8942,2.9131,2.9077,2.8188,2.8456,2.8054,2.5979,0.0,0.0,0.0,0.0,0.0,0.0,0.0,0.0,0.0,0.0,0.0,0.0,0.0,0.0,0.0,0.0,0.0,0.0,0.0,0.0,0.0,0.0,0.0,0.0,0.0,0.0,0.0,0.0,0.0,0.0,1.6482,0.0,0.0,0.0,0.0,0.0,0.0,0.0,0.0,0.0,0.0,0.0,0.0,0.0,0.0,0.0,0.0,0.0,0.0,0.0,0.0,0.0,0.0,2.176,2.396,2.4551,2.482,2.48,2.48,2.3766,2.1594,2.0968,1.9899,1.8229,0.0,0.0,0.0,0.0,0.0,0.0,0.0,0.0,0.0,0.0,0.0,0.0,0.0,0.0,0.0,0.0,0.0,0.0,0.0,0.0,0.0,0.0,0.0,0.0,0.0,0.0,2.1575,2.1066,2.0408,0.0,0.0,0.0,0.0,0.0,0.0,0.0,0.0,0.0,0.0,2.8755,3.0338,3.0427,3.1571,3.1856,3.0447,3.0269,2.9797,2.8463,2.9329,2.9405,0.0,0.0,0.0,0.0,0.0,0.0,0.0,0.0,0.0,0.0,0.0,0.0,0.0,0.0,0.0,0.0,0.0,0.0,0.0,0.0,0.0,0.0,0.0,0.0,0.0,0.0,0.0,1.866,1.8598,0.0,0.0,0.0,0.0,0.0,0.0,0.0,0.0,0.0,0.0,0.0,2.2537,2.3159,0.0,0.0,0.0,0.0,0.0,0.0,0.0,0.0,0.0,0.0,0.0,0.0,2.2527,2.462,2.5255,2.5313,2.4833,2.48,2.3898,2.2083,2.1169,1.9915,1.8257,0.0,0.0,0.0,0.0,0.0,0.0,0.0,0.0,0.0,0.0,0.0,0.0,0.0,0.0,0.0,0.0,0.0,0.0,0.0,0.0,0.0,0.0,0.0,0.0,0.0,2.1769,0.0,0.0,0.0,0.0,0.0,0.0,0.0,0.0,0.0,0.0,0.0,2.7346,2.8998,3.034,3.1369,3.1833,3.2625,3.2676,0.0,0.0,0.0,0.0,0.0,0.0,0.0,0.0,0.0,0.0,0.0,0.0,0.0,0.0,3.2607,2.8033,2.7983,2.858,2.828,0.0,0.0,0.0,0.0,0.0,0.0,0.0,0.0,0.0,0.0,0.0,0.0,0.0,0.0,2.0024,0.0,1.9033,0.0,0.0,0.0,0.0,0.0,0.0,0.0,0.0,2.3622,2.4586,2.5072,2.5504,2.5364,0.0,2.4098,2.2369,0.0,0.0,0.0,0.0,0.0,0.0,0.0,0.0,2.3878,2.5453,2.6287,2.6472,2.5996,2.5751,2.4918,2.3454,2.1916,2.0484,1.9168,1.8344,1.8296,0.0,0.0,0.0,0.0,0.0,0.0,0.0,0.0,0.0,0.0,0.0,0.0,0.0,0.0,0.0,0.0,0.0,0.0,0.0,0.0,0.0,0.0,0.0,2.1819,0.0,0.0,0.0,0.0,0.0,0.0,0.0,0.0,0.0,2.7198,2.8156,2.9476,3.106,3.1867,3.2473,3.2916,0.0,0.0,0.0,0.0,0.0,0.0,0.0,3.2524,3.2062,3.2823,3.3282,3.2733,3.3983,3.5003,3.4829,0.0,0.0,3.0613,3.0783,3.1445,3.1021,3.2287,3.344,3.3457,3.3829,3.4184,0.0,0.0,0.0,0.0,0.0,0.0,0.0,0.0,2.0526,2.0666,0.0,1.995,0.0,0.0,0.0,0.0,0.0,2.3594,0.0,0.0,2.6278,2.6859,2.602,2.5978,2.5626,2.5161,2.5504,2.5084,2.3845,2.0871,0.0,0.0,0.0,0.0,0.0,0.0,2.5786,2.6363,2.7571,2.8213,2.8124,2.7511,2.6614,2.537,2.3109,2.1583,2.0908,1.9773,1.919,1.9224,1.921,0.0,0.0,0.0,0.0,0.0,0.0,0.0,0.0,0.0,0.0,0.0,0.0,0.0,0.0,0.0,0.0,0.0,0.0,0.0,0.0,2.1374,0.0,0.0,0.0,0.0,0.0,0.0,0.0,0.0,0.0,0.0,2.8796,3.038,3.1951,3.2692,0.0,0.0,0.0,0.0,3.4515,3.3861,3.4936,3.5803,3.5727,3.6289,3.6256,3.5027,0.0,0.0,3.5186,3.5498,3.5771,3.5116,3.5685,3.5932,3.5878,3.557,3.5548,3.5523,3.5539,3.5712,3.5701,3.5802,3.5853,2.4858,0.0,0.0,0.0,0.0,2.3439,2.418,2.5523,2.4029,2.3831,2.4528,2.2866,0.0,0.0,0.0,0.0,0.0,0.0,2.6955,2.7244,2.8782,2.9883,3.0557,3.0057,2.9763,2.96,2.8809,2.778,2.6522,2.5129,2.3701,2.2201,0.0,0.0,0.0,0.0,2.697,2.8352,2.8809,2.8741,2.8213,2.7541,2.6227,2.4207,2.307,2.2179,2.1502,2.0762,2.0771,2.163,2.1219,0.0,0.0,0.0,0.0,0.0,0.0,0.0,0.0,0.0,0.0,0.0,0.0,0.0,0.0,0.0,0.0,0.0,0.0,0.0,2.3268,2.2992,2.2828,0.0,0.0,0.0,0.0,0.0,0.0,0.0,0.0,0.0,3.1968,3.2505,3.3351,0.0,0.0,3.4701,3.5779,3.5615,3.5379,3.5227,3.5938,0.0,3.5851,3.5947,3.6107,3.6204,3.695,3.7725,3.845,3.8272,3.8136,3.8452,3.8747,3.8855,3.8779,3.7551,3.6439,3.6026,3.6982,3.799,3.8041,3.843,3.8809,2.7356,2.5921,2.5678,2.5749,2.6019,2.6086,2.6842,2.8003,2.6809,2.6613,2.7068,2.5648,2.5051,2.5105,2.456,0.0,0.0,0.0,2.9026,2.9755,3.1025,3.2077,3.2826,3.2497,3.2273,3.2213,3.0971,2.9939,2.9116,2.8244,2.6864,2.5095,0.0,0.0,2.6792,2.7683,2.855,2.9389,2.9915,2.9958,2.95,2.8626,2.7083,2.4894,2.4179,2.3529,2.2863,2.2072,2.196,2.2652,2.2328,2.2104,0.0,0.0,0.0,0.0,0.0,0.0,0.0,0.0,0.0,0.0,0.0,2.0277,1.9753,0.0,0.0,0.0,2.1231,2.2689,2.3833,2.3492,0.0,0.0,0.0,0.0,0.0,0.0,0.0,3.0173,3.1989,3.3343,3.3778,3.4083,3.4726,3.5926,3.5729,3.5799,3.6687,0.0,3.695,3.6696,3.7486,3.7968,3.7584,3.7502,3.7666,3.805,3.8422,3.8978,3.9876,3.9705,3.9558,3.9952,4.0113,4.0113,4.0113,3.9001,3.8028,3.7678,3.853,3.9394,3.9453,3.9791,4.0113,2.9694,2.9136,2.8605,2.8239,2.8067,2.8986,2.9396,2.9382,2.8881,2.8926,2.9254,2.8202,2.7687,2.7587,2.7129,0.0,2.7974,2.9849,3.1061,3.1704,3.2999,3.3604,3.3649,3.3544,3.3499,3.3455,3.2183,3.1555,3.1421,3.0298,2.943,2.8831,2.8188,2.8184,2.8712,2.9939,3.0313,2.9759,3.0898,3.1452,3.1406,3.0223,2.8693,2.6737,2.5974,2.5262,2.4619,2.3415,2.2778,2.2778,2.2763,2.2748,2.2703,0.0,0.0,0.0,0.0,0.0,0.0,0.0,0.0,0.0,0.0,0.0,0.0,0.0,0.0,0.0,2.108,0.0,2.3322,2.3458,0.0,0.0,0.0,2.6602,2.735,2.9712,3.1529,3.2226,0.0,0.0,3.4489,3.5148,3.5876,3.6626,3.6761,3.6872,3.7044,3.8162,3.879,3.8231,3.9243,4.0054,3.9817,3.986,3.9834,3.9885,4.0113,4.0045,4.007,4.007,4.007,4.0096,4.0113,4.0113,4.0113,4.0003,4.0096,3.9969,4.002,4.0079,4.0062,4.0079,4.0113,3.1857,3.1789,3.2311,3.1073,2.8749,2.9729,3.0356,3.0708,3.0397,3.0671,3.1308,3.0142,2.9971,3.0484,3.0366,3.0689,3.1397,3.2835,3.3626,3.3774,3.411,3.4517,3.4966,3.3978,3.3499,3.344,3.2677,3.2004,3.1511,3.1197,3.0957,3.0808,3.0644,3.015,2.943,3.0642,3.1182,3.1047,3.1346,3.1256,3.0761,2.9983,2.8888,2.739,2.6213,2.5262,2.4634,2.3834,2.3392,2.3385,2.3385,2.3182,2.2733,2.3152,0.0,0.0,0.0,0.0,0.0,0.0,0.0,0.0,0.0,2.2771,2.1827,0.0,2.3428,0.0,2.3475,2.4503,2.5243,2.566,0.0,0.0,2.7663,2.861,2.9351,3.0946,3.2107,3.2276,3.3596,3.4489,3.4489,3.5126,3.565,3.587,3.6417,3.7385,3.9,3.9075,3.9166,3.9531,3.9876,4.0113,4.0113,4.0113,4.0113,4.0113,4.0113,4.0113,4.0113,4.0113,4.0113,4.0113,4.0113,4.0113,4.0113,4.0113,4.0113,4.0113,4.0113,4.0113,4.0113,4.0113,4.0096,3.2593,3.2629,3.3171,3.2272,3.0668,3.2067,3.2821,3.3094,3.2958,3.301,3.3123,3.2126,3.1974,3.2378,3.2407,3.2736,3.3425,3.4174,3.4668,3.4936,3.4936,3.513,3.5459,3.4427,3.3933,3.3888,3.2961,3.2452,3.2377,3.1795,3.1645,3.1944,3.1944,3.1585,3.0926,3.1286,3.1645,3.1944,3.166,3.1167,3.0522,2.9921,2.9097,2.8079,2.6452,2.5277,2.4619,2.3947,2.3595,2.361,2.3894,2.3872,2.358,2.3864,2.3717,0.0,0.0,0.0,0.0,0.0,0.0,0.0,0.0,0.0,0.0,0.0,2.445,2.4296,2.5025,2.584,2.6731,2.7347,2.7875,2.8298,2.9025,2.977,3.0514,3.1901,3.2899,3.3258,3.4269,3.4996,3.5013,3.5368,3.5735,3.6079,3.6789,3.7719,3.8853,3.9276,3.9656,4.0045,4.0113,4.0113,4.0113,4.0113,4.0113,4.0113,4.0113,4.0113,4.0113,4.0113,4.0113,4.0113,4.0113,4.0113,4.0113,4.0113,4.0113,4.0113,4.0113,4.0179,4.0392,4.0262,4.0196,3.2961,3.2961,3.2961,3.2961,3.3101,3.4773,3.5424,3.5311,3.5335,3.504,3.4474,3.3873,3.3664,3.3754,3.3664,3.3993,3.4638,3.4623,3.4921,3.5489,3.5489,3.5489,3.5489,3.4891,3.4608,3.4459,3.3305,3.3006,3.3455,3.2303,3.2004,3.2467,3.2617,3.2557,3.2467,3.2004,3.1989,3.2497,3.2004,3.1376,3.0657,3.0013,2.9355,2.8577,2.6662,2.5277,2.4634,2.3947,2.3595,2.3625,2.4156,2.4515,2.4582,2.4582,2.4589,0.0,2.4636,0.0,0.0,0.0,0.0,0.0,0.0,0.0,0.0,2.4651,2.5378,2.5847,2.6132,2.6747,2.7839,2.8586,2.9027,2.9162,2.9702,3.0463,3.1393,3.2628,3.3728,3.4523,3.5216,3.56,3.5583,3.5616,3.5893,3.6468,3.7297,3.7889,3.8058,3.9157,4.0028,4.0011,4.0062,4.0113,4.0113,4.0113,4.0113,4.0113,3.9977,4.0011,4.0079,4.0011,3.9977,4.0079,4.0113,4.0079,3.9994,4.0086,4.0195,4.0084,4.0234,4.0466,4.0607,4.048,4.0546,3.4953,3.4953,3.4953,3.4968,3.5001,3.5359,3.5019,3.4283,3.4572,3.4638,3.4503,3.4352,3.4607,3.507,3.4532,3.4666,3.5295,3.531,3.5385,3.5489,3.5489,3.5489,3.5489,3.5385,3.5026,3.4518,3.4218,3.3888,3.3499,3.3245,3.2916,3.2542,3.3036,3.3036,3.2557,0.0,0.0,0.0,3.2931,3.2527,3.1346,3.0687,2.9774,2.8607,2.6662,0.0,2.4619,2.3969,2.3595,2.3595,2.3729,0.0,0.0,0.0,0.0,0.0,0.0,0.0,0.0,0.0,0.0,0.0,2.7992,2.7868,2.7311,2.7231,2.7263,2.7367,2.7433,2.7838,2.8687,2.8908,2.9228,2.982,3.0023,3.0852,3.2713,3.3254,3.3892,3.5233,3.5515,3.56,3.5616,3.5616,3.5667,3.5887,3.7043,3.7855,3.7872,3.9106,3.9842,3.9377,3.9723,4.0096,4.0113,4.0062,4.0028,4.0045,3.9571,3.9462,3.9859,3.9554,3.9469,3.991,4.0113,3.9876,3.9376,4.0021,4.0502,3.9997,4.0692,4.1241,4.0441,4.0528,4.0803,3.5489,0.0,3.5489,3.5489,0.0,3.5489,3.5213,3.4743,3.4922,3.4981,3.4981,3.4981,3.5175,3.5489,3.513,3.516,3.5489,3.5489,3.5489,3.5489,3.5489,3.5489,3.5489,3.516,3.4816,3.4503,3.4143,3.3814,3.3484,3.3155,3.2841,3.2497,3.2527,3.2677,3.3006,3.3664,3.3649,3.3006,3.3006,3.2691,3.1974,3.0731,2.9594,2.8592,2.6647,0.0,0.0,0.0,0.0,0.0,0.0,0.0,0.0,2.582,0.0,2.7176,2.7248,2.7529,2.8141,2.8791,2.9142,2.9159,2.9741,2.9677,2.8676,2.8459,2.8399,2.8399,2.8703,2.911,2.9499,2.9871,3.0245,3.0598,3.0649,3.1393,3.3017,3.3389,3.3977,3.5278,3.5616,3.5616,3.5616,3.5616,3.5616,3.565,3.6603,3.7229,3.706,3.8684,3.9825,3.914,3.9639,3.9825,3.9191,3.9385,3.9394,3.9056,3.87,3.865,3.8937,3.8717,3.8599,3.8971,3.9292,3.9476,3.9491,3.991,4.029,4.025,4.0729,4.0877,4.0013,4.0309,4.0845,3.5489,3.5489,3.5489,3.5489,3.5489,3.5489,3.5489,3.5489,0.0,0.0,0.0,3.5489,3.5489,3.5489,3.5489,3.5489,3.5489,3.5489,3.5489,3.5489,3.5489,3.5489,3.5459,3.4801,3.4503,3.4474,3.3799,3.3499,3.3484,3.2946,3.2587,3.2452,3.2049,3.2407,3.3455,3.4038,3.4131,3.3653,3.3021,3.2572,3.2302,3.0761,2.9505,2.8622,2.6984,2.5477,2.418,2.4657,2.4931,2.4967,2.5885,2.6743,2.7412,2.7476,2.779,2.8472,2.8528,2.8784,2.9345,2.9939,3.0311,3.0292,3.0852,3.0635,2.9297,2.9213,2.9196,2.9213,2.9753,3.0159,3.0294,3.0818,3.119,3.119,3.119,3.1715,3.2983,3.3339,3.3931,3.5126,3.5498,3.5616,3.5616,3.5616,3.5616,3.5701,3.6332,3.6694,3.6434,3.799,3.9199,3.887,3.9182,3.9216,3.8362,3.8396,3.8531,3.8125,3.7838,3.7753,3.7872,3.7804,3.777,3.8024,3.8502,3.8965,3.9318,3.9625,3.9892,4.027,4.0522,4.0506,3.9982,4.0131,4.0576,3.5489,3.5489,3.5489,3.5489,3.5489,3.5489,3.5489,3.5489,3.5489,3.5489,3.5489,3.5489,3.5489,3.5489,3.5489,3.5489,3.5489,3.5489,3.5489,3.5489,3.5489,3.5489,3.5459,3.4801,3.4503,3.4444,3.3814,3.3499,3.3499,3.3395,3.308,3.2602,3.2991,3.329,3.3499,3.3589,3.388,3.4352,3.3698,3.2811,3.1675,3.1376,3.0374,2.8693,2.8274,2.7466,2.6174,2.663,2.6974,2.6974,2.7132,2.749,2.804,2.8096,2.8591,2.9703,2.9827,3.0133,3.0818,3.0987,3.1038,3.1038,3.114,3.0835,3.004,2.9956,2.9956,2.9937,3.0074,3.0362,3.0937,3.1123,3.119,3.119,3.119,3.1529,3.2391,3.3017,3.3677,3.4539,3.5233,3.5566,3.5532,3.5583,3.5616,3.5718,3.6214,3.6897,3.7271,3.7347,3.7516,3.7905,3.8125,3.8108,3.7838,3.7956,3.7956,3.7915,3.7313,3.711,3.7635,3.7326,3.7214,3.7777,3.8259,3.8449,3.8161,3.9131,3.9686,3.9643,4.022,4.0815,4.0725,4.0365,4.0049,3.5489,3.5489,3.5489,3.5489,3.5489,3.5489,3.5489,3.5489,3.5489,3.5489,3.5489,3.5489,3.5489,3.5489,3.5489,3.5489,3.5489,3.5489,3.5489,3.5489,3.5489,3.5489,3.5474,3.5175,3.5073,3.4981,3.4384,3.3844,3.3499,3.314,3.2602,3.2034,3.2632,3.2961,3.2991,3.3319,3.3625,3.3955,3.3669,3.3407,3.3184,3.2466,3.1482,3.0267,2.9486,2.8591,2.7628,2.7756,2.7829,2.7825,2.8118,2.855,2.9176,2.9247,2.966,3.0613,3.07,3.0852,3.1157,3.119,3.119,3.119,3.119,3.1055,3.0734,3.07,3.0717,3.07,3.07,3.0818,3.1157,3.119,3.119,3.119,3.119,3.1495,3.2158,3.2564,3.3085,3.3812,3.4556,3.4996,3.4996,3.5346,3.56,3.5633,3.5994,3.6503,3.7331,3.6749,3.6417,3.7161,3.7618,3.7466,3.6867,3.706,3.7077,3.6755,3.6383,3.6299,3.6643,3.6503,3.6764,3.7065,3.7789,3.8374,3.8267,3.8954,3.9409,3.97,3.9922,4.0357,4.0004,3.9534,3.9331,3.5489,3.5489,3.5489,3.5489,3.5489,3.5489,3.5489,3.5489,3.5489,3.5489,3.5489,3.5489,3.5489,3.5489,3.5489,3.5489,3.5489,3.5489,3.5489,3.5489,3.5489,3.5429,3.525,3.5145,3.4981,3.4771,3.4143,3.3544,3.3036,3.2527,3.2093,3.1809,3.2243,3.2497,3.2512,3.3009,3.3344,3.3509,3.3536,3.381,3.4313,3.3351,3.2512,3.1807,3.0919,2.9992,2.9232,2.914,2.9034,2.8901,2.928,2.9771,3.0294,3.0362,3.0598,3.1123,3.119,3.119,3.119,3.119,3.119,3.119,3.119,3.119,3.119,3.119,3.119,3.119,3.1157,3.1173,3.119,3.119,3.119,3.119,3.1362,3.1616,3.1989,3.2327,3.2666,3.3186,3.3931,3.4506,3.4624,3.5165,3.5633,3.5783,3.5689,3.6011,3.6704,3.6186,3.5938,3.64,3.7026,3.6924,3.5819,3.6113,3.6231,3.5667,3.5751,3.5912,3.6017,3.628,3.6539,3.6798,3.749,3.8197,3.8689,3.89,3.9107,3.942,3.9572,3.9426,3.8988,3.904,3.8909,3.5489,3.5489,3.5489,3.5489,3.5489,3.5489,3.5489,3.5489,3.5489,3.5489,3.5489,3.5489,3.5489,3.5489,3.5489,3.5489,3.5489,3.5489,3.5489,3.5489,3.5489,3.5175,3.4623,3.4008,3.3365,3.2841,3.2228,3.1974,3.1869,3.172,3.1869,3.2333,3.2497,3.2527,3.2542,3.2616,3.2946,3.3565,3.3601,3.3626,3.3678,3.3592,3.3175,3.2536,3.2923,3.2498,3.1182,3.1625,3.1607,3.0996,3.0917,3.1004,3.1072,3.1089,3.1123,3.119,3.1207,3.119,3.1207,3.119,3.1224,3.119,3.1207,3.119,3.119,3.119,3.119,3.1224,3.1207,3.119,3.119,3.1244,3.1292,3.1427,3.187,3.1972,3.165,3.2493,3.3068,3.2446,3.363,3.4472,3.4539,3.5165,3.5771,3.6182,3.5854,3.5876,3.6457,3.6118,3.5739,3.5808,3.5881,3.5881,3.5639,3.5633,3.5735,3.5661,3.6006,3.6161,3.6308,3.6664,3.7116,3.7171,3.7577,3.8076,3.8214,3.836,3.8742,3.8918,3.8946,3.8817,3.8781,3.9148,3.9313,3.5489,3.5489,3.5489,3.5489,3.5489,3.5489,3.5489,3.5489,3.5489,3.5489,3.5489,3.5489,3.5489,3.5489,3.5489,3.5489,3.5489,3.5489,3.5489,3.5489,3.5489,3.5145,3.4487,3.4249,3.3724,3.3066,3.2407,3.2079,3.2093,3.2093,3.2258,3.2452,3.2497,3.2689,3.305,3.3147,3.3504,3.4178,3.4568,3.4776,3.4793,3.4776,3.4667,3.4376,3.4184,3.3634,3.2684,3.2428,3.1955,3.1258,3.119,3.119,3.119,3.119,3.119,3.1207,3.1633,3.1853,3.1853,3.1853,3.1853,3.187,3.1444,3.119,3.119,3.119,3.1379,3.1735,3.1444,3.1343,3.1785,3.1853,3.2022,3.2425,3.278,3.2682,3.1972,3.2374,3.2615,3.2412,3.3207,3.4049,3.4489,3.5165,3.5798,3.6203,3.5946,3.5985,3.6664,3.6416,3.6249,3.646,3.6542,3.6249,3.5827,3.5616,3.5622,3.565,3.5744,3.5963,3.6422,3.6843,3.7267,3.756,3.8015,3.83,3.8437,3.8499,3.8707,3.8707,3.8707,3.8707,3.8707,3.8964,3.8964,3.5774,3.5744,3.5594,3.5489,3.5489,3.5489,3.5489,3.5489,3.5489,3.5489,3.5489,3.5489,3.5489,3.5489,3.5489,3.5489,3.5489,3.5489,3.5489,3.5489,3.5489,3.513,3.4517,3.4503,3.4128,3.3499,3.3021,3.2781,3.2811,3.3035,3.3094,3.3064,3.3087,3.3431,3.3982,3.3826,3.4034,3.4831,3.5232,3.5407,3.5554,3.5616,3.5616,3.5549,3.5081,3.4455,3.3728,3.3,3.2259,3.1546,3.1309,3.119,3.119,3.119,3.1292,3.1529,3.2188,3.2598,3.2598,3.2615,3.2598,3.2547,3.1918,3.1495,3.1515,3.1515,3.1735,3.2158,3.1968,3.2087,3.2496,3.2615,3.2869,3.3355,3.3558,3.3406,3.2733,3.2615,3.2666,3.2645,3.3136,3.3795,3.4663,3.5421,3.6071,3.6498,3.6333,3.6316,3.7078,3.6962,3.6711,3.6833,3.6818,3.6636,3.6117,3.6122,3.5981,3.5835,3.5952,3.6458,3.6591,3.7071,3.7632,3.8168,3.8496,3.8643,3.8596,3.8658,3.8707,3.8707,3.8707,3.8707,3.8707,3.8744,3.8726,3.6447,3.6375,3.5759,3.5489,3.5489,3.5489,3.5489,3.5489,3.5489,3.5489,3.5489,3.5489,3.5489,3.5489,3.5489,3.5489,3.5489,3.5489,3.5489,3.5489,3.5489,3.513,3.4533,3.4488,3.4159,3.3544,3.341,3.341,3.3501,3.4235,3.4541,3.445,3.4553,3.493,3.5347,3.4344,3.4334,3.5564,3.5124,3.5021,3.5549,3.5633,3.5616,3.56,3.5549,3.5165,3.4438,3.3744,3.3,3.2276,3.1647,3.1258,3.1241,3.1258,3.1596,3.2226,3.2949,3.3355,3.3355,3.3355,3.3339,3.322,3.2581,3.2209,3.2039,3.2107,3.2226,3.231,3.2899,3.3288,3.3406,3.3389,3.3406,3.3571,3.41,3.4066,3.344,3.3355,3.3339,3.3355,3.3508,3.4134,3.5351,3.602,3.644,3.6882,3.7076,3.721,3.7506,3.7378,3.6946,3.6394,3.6254,3.6268,3.6904,3.6496,3.6306,3.6129,3.6224,3.7291,3.7441,3.7618,3.8177,3.8593,3.8643,3.8673,3.8707,3.8707,3.8707,3.8707,3.8707,3.8707,3.8707,3.8707,3.8707,3.6851,3.6432,3.5789,3.5489,3.5489,3.5489,3.5489,3.5489,3.5489,3.5489,3.5489,3.5489,3.5489,3.5489,3.5489,3.5489,3.5489,3.5489,3.5489,3.5489,3.5489,3.5145,3.4548,3.4503,3.4159,3.3589,3.3499,3.3759,3.4387,3.5454,3.6029,3.5982,3.6027,3.6372,3.669,3.5654,3.5663,3.6824,3.5884,3.5603,3.6208,3.587,3.5616,3.5616,3.5616,3.5245,3.4506,3.4235,3.3761,3.3034,3.2747,3.2611,3.2611,3.2611,3.2713,3.3017,3.3694,3.41,3.4117,3.4117,3.388,3.3406,3.2733,3.2124,3.1785,3.2022,3.2479,3.3,3.3677,3.4235,3.4624,3.4404,3.4303,3.4737,3.5013,3.4844,3.4303,3.41,3.41,3.4167,3.4489,3.5059,3.5407,3.5766,3.6097,3.6563,3.6684,3.6962,3.736,3.7524,3.7452,3.7236,3.7047,3.7009,3.7263,3.6203,3.5507,3.5543,3.5794,3.6505,3.6852,3.7504,3.8051,3.852,3.8637,3.8487,3.8432,3.8652,3.867,3.8707,3.8707,3.8707,3.8707,3.8707,3.8707,3.706,3.6432,3.5774,3.5489,3.5489,3.5489,3.5489,3.5489,3.5489,3.5489,3.5489,3.5489,3.5489,3.5489,3.5489,3.5489,3.5489,3.5489,3.5489,3.5489,3.5489,3.525,3.4876,3.4848,3.4608,3.4265,3.4408,3.4925,3.5752,3.6886,3.7316,3.7122,3.7357,3.7748,3.7932,3.6995,3.7041,3.7766,3.6772,3.6282,3.666,3.6028,3.5616,3.5616,3.5616,3.538,3.4861,3.4624,3.4286,3.3812,3.3541,3.3389,3.3406,3.3643,3.3761,3.3829,3.4455,3.4861,3.4861,3.4861,3.4539,3.3812,3.3068,3.2429,3.2002,3.2357,3.2983,3.3694,3.4438,3.5115,3.5346,3.5148,3.4979,3.5177,3.5025,3.4709,3.4201,3.3897,3.3863,3.4134,3.4906,3.5464,3.5644,3.5766,3.6032,3.6354,3.6643,3.7058,3.7396,3.7591,3.7767,3.7729,3.7247,3.7003,3.6988,3.6202,3.5416,3.5346,3.5979,3.642,3.6507,3.7216,3.7889,3.8345,3.845,3.8248,3.8285,3.8524,3.8652,3.8689,3.8707,3.8707,3.8707,3.8707,3.8707,3.709,3.6537,3.5789,3.5639,3.5669,3.5624,3.5534,3.5594,3.5519,3.5489,3.5489,3.5489,3.5489,3.5489,3.5489,3.5489,3.5489,3.5489,3.5489,3.5489,3.5489,3.5489,3.54,3.5385,3.537,3.5359,3.6167,3.6916,3.7559,3.8334,3.8513,3.8124,3.8589,3.8908,3.8997,3.8231,3.8212,3.8514,3.7506,3.6795,3.6728,3.6045,3.5616,3.5616,3.5616,3.5566,3.5532,3.4912,3.4573,3.4455,3.3897,3.3474,3.3677,3.415,3.4489,3.459,3.5182,3.5515,3.5549,3.5498,3.5165,3.4455,3.3795,3.3355,3.3169,3.3305,3.3677,3.4303,3.5047,3.5583,3.5566,3.5447,3.5143,3.4624,3.4218,3.3914,3.344,3.2869,3.2682,3.3643,3.4822,3.5549,3.5711,3.592,3.6224,3.6478,3.6933,3.7506,3.7611,3.7513,3.7406,3.7448,3.7081,3.667,3.6486,3.6252,3.571,3.5443,3.6358,3.6946,3.641,3.6708,3.7497,3.801,3.8065,3.79,3.823,3.8469,3.8652,3.8707,3.8707,3.8689,3.8707,3.8707,3.8707,3.7973,3.7719,3.709,3.6806,3.6761,3.6372,3.6178,3.6133,3.5729,3.5504,3.5489,3.5489,3.5489,3.5489,3.5489,3.5489,3.5489,3.5489,3.5489,3.5489,3.5489,3.5489,3.5489,3.5489,3.5489,3.5733,3.6829,3.7544,3.8007,3.9102,3.958,3.948,3.9615,3.9749,3.9706,3.908,3.9005,3.9436,3.7794,3.7049,3.7364,3.6282,3.5616,3.5616,3.5616,3.5616,3.56,3.5363,3.5284,3.5233,3.5064,3.4906,3.4957,3.5148,3.5245,3.5261,3.5447,3.5616,3.5616,3.5583,3.5284,3.4641,3.4252,3.3914,3.3558,3.3863,3.4218,3.4556,3.5182,3.5616,3.5532,3.5131,3.4793,3.4523,3.4742,3.4349,3.3609,3.363,3.415,3.4754,3.5329,3.5583,3.5622,3.5832,3.5959,3.6191,3.6274,3.6464,3.7395,3.6848,3.6978,3.7857,3.7084,3.6556,3.6743,3.6652,3.6156,3.5752,3.6321,3.6652,3.6211,3.6266,3.7055,3.7312,3.7404,3.7624,3.7991,3.8322,3.8469,3.8634,3.8652,3.867,3.8689,3.8707,3.8707,3.8377,3.8317,3.7674,3.7404,3.7345,3.6761,3.6492,3.6387,3.5789,3.5504,3.5489,3.5489,3.5489,3.5489,3.5489,3.5489,3.5489,3.5489,3.5489,3.5489,3.5489,3.5489,3.5554,3.5814,3.6101,3.6538,3.7616,3.8358,3.8723,3.9584,4.0096,4.0096,4.0113,4.0096,4.0079,3.969,3.9665,3.9757,3.8234,3.7432,3.7499,3.6394,3.5616,3.5616,3.5616,3.5616,3.5616,3.5616,3.5616,3.5616,3.5616,3.5616,3.5616,3.5583,3.5616,3.5616,3.5616,3.5616,3.5616,3.56,3.5301,3.4658,3.4489,3.432,3.3981,3.4303,3.4539,3.4962,3.5312,3.5616,3.5532,3.5228,3.4827,3.4544,3.4556,3.4366,3.3664,3.4244,3.4882,3.5343,3.5698,3.5847,3.5898,3.5389,3.537,3.5543,3.5367,3.5281,3.629,3.5955,3.6765,3.7363,3.6986,3.6886,3.7345,3.7074,3.6578,3.6266,3.6156,3.6028,3.5646,3.6028,3.6652,3.6229,3.6138,3.6468,3.6835,3.7679,3.8083,3.8285,3.8487,3.867,3.8707,3.8707,3.8707,3.8452,3.8362,3.7793,3.7629,3.7524,3.6881,3.6611,3.6462,3.5804,3.5489,3.5489,3.5489,3.5489,3.5489,3.5489,3.5489,3.5489,3.5489,3.5489,3.5489,3.5489,3.5489,3.5539,3.6023,3.66,3.7456,3.8274,3.9102,3.961,3.9927,4.0113,4.0113,4.0113,4.0113,4.0079,4.0079,3.9994,3.9723,3.8531,3.7855,3.7719,3.6377,3.5616,3.5616,3.5616,3.5616,3.5616,3.5616,3.5616,3.5616,3.5616,3.5616,3.5616,3.5616,3.5616,3.5616,3.5616,3.5616,3.5616,3.5616,3.5329,3.4776,3.4675,3.4556,3.4607,3.4658,3.4912,3.5397,3.5566,3.5616,3.56,3.5532,3.5233,3.4624,3.41,3.3664,3.371,3.4696,3.5281,3.5573,3.6024,3.635,3.6191,3.5303,3.4772,3.4654,3.4723,3.4835,3.5097,3.5381,3.5864,3.6288,3.6758,3.7165,3.7588,3.7547,3.7,3.634,3.6083,3.5661,3.5279,3.5605,3.6156,3.5679,3.5312,3.555,3.6013,3.6964,3.7584,3.7786,3.8083,3.8505,3.8707,3.8707,3.8707,3.914,3.9125,3.8925,3.8886,3.8721,3.7674,3.7165,3.7015,3.5968,3.5549,3.5504,3.5489,3.5489,3.5489,3.5489,3.5489,3.5489,3.5489,3.5489,3.5489,3.5489,3.5489,3.5504,3.5701,3.6228,3.6994,3.7876,3.8486,3.9219,3.9833,4.007,4.0113,4.0113,4.0113,4.0113,4.0113,3.9791,3.9242,3.8413,3.7635,3.706,3.618,3.5633,3.5616,3.5616,3.5616,3.5616,3.5616,3.5616,3.5616,3.5616,3.5616,3.5616,3.5616,3.5616,3.5616,3.5616,3.5616,3.5616,3.5616,3.5481,3.5363,3.5228,3.5295,3.5334,3.5295,3.5414,3.5616,3.5616,3.5616,3.5616,3.5616,3.5447,3.5194,3.4269,3.4024,3.508,3.5399,3.5605,3.6464,3.6273,3.6132,3.5846,3.5241,3.4584,3.4501,3.4286,3.4213,3.4551,3.4434,3.4743,3.6296,3.7033,3.7441,3.7734,3.7768,3.7364,3.6486,3.5973,3.5495,3.5092,3.4894,3.5514,3.5789,3.5422,3.5477,3.5881,3.6541,3.6905,3.718,3.7658,3.8043,3.8524,3.8707,3.8707,3.9388,3.9388,3.9388,3.9388,3.9254,3.8272,3.7823,3.7569,3.6492,3.5923,3.5863,3.5609,3.5489,3.5489,3.5489,3.5489,3.5489,3.5489,3.5489,3.5489,3.5489,3.5489,3.5554,3.575,3.6337,3.7114,3.7876,3.8679,3.9385,3.9885,4.007,4.0113,4.0113,4.0113,4.0113,4.0096,3.9926,3.9343,3.8481,3.7669,3.7229,3.6163,3.5667,3.5616,3.5616,3.5616,3.5616,3.5616,3.5616,3.5616,3.5616,3.5616,3.5616,3.5616,3.5616,3.5616,3.5616,3.5616,3.5616,3.5616,3.5616,3.56,3.5616,3.5616,3.5583,3.5616,3.5616,3.5616,3.5616,3.5616,3.5616,3.5616,3.5616,3.5481,3.4822,3.4822,3.602,3.6061,3.6229,3.6497,3.6398,3.6061,3.5776,3.4889,3.4376,3.4129,3.377,3.3928,3.4168,3.3773,3.3949,3.5575,3.6376,3.6505,3.678,3.6872,3.6395,3.5679,3.5385,3.5,3.5202,3.4747,3.4857,3.5349,3.5312,3.533,3.5459,3.5716,3.6138,3.6523,3.707,3.7731,3.8285,3.8707,3.8707,3.9388,3.9388,3.9388,3.9388,3.932,3.8691,3.8317,3.8138,3.6985,3.6432,3.6297,3.5789,3.5504,3.5489,3.5489,3.5489,3.5489,3.5489,3.5489,3.5554,3.5619,3.5733,3.5799,3.6212,3.6889,3.7674,3.8525,3.9262,3.9808,4.007,4.0113,4.0113,4.0113,4.0113,4.0113,4.0096,4.0062,3.9656,3.8717,3.8041,3.7601,3.6569,3.5943,3.5853,3.565,3.5616,3.5616,3.5616,3.5616,3.5616,3.5616,3.5616,3.5616,3.5616,3.5616,3.5616,3.5616,3.5616,3.5616,3.5616,3.5616,3.5616,3.5616,3.5616,3.5616,3.5616,3.5616,3.5616,3.5616,3.5616,3.5616,3.5616,3.5616,3.5583,3.5515,3.5566,3.5805,3.6542,3.6891,3.6148,3.643,3.6199,3.5447,3.4481,3.3661,3.3954,3.3648,3.375,3.3916,3.3777,3.4091,3.5017,3.5334,3.5224,3.5536,3.5862,3.5202,3.4541,3.4431,3.4412,3.5422,3.522,3.4729,3.4674,3.5004,3.478,3.4302,3.4688,3.5367,3.5936,3.6523,3.7422,3.8267,3.8579,3.8707,3.9388,3.9388,3.9388,3.9388,3.9305,3.8691,3.8392,3.8302,3.706,3.6537,3.6342,3.5804,3.5504,3.5489,3.5489,3.5489,3.5489,3.5489,3.5489,3.5587,3.6134,3.6337,3.6384,3.66,3.71,3.7847,3.8553,3.9315,3.9927,4.0113,4.0113,4.0113,4.0113,4.0113,4.0113,4.0079,3.9791,3.9317,3.887,3.8447,3.7905,3.7094,3.6535,3.6485,3.5977,3.565,3.5616,3.5616,3.5616,3.5616,3.5616,3.5616,3.5616,3.5616,3.5616,3.5616,3.5616,3.5616,3.5616,3.5616,3.5616,3.5616,3.5616,3.5616,3.5616,3.5616,3.5616,3.5616,3.5616,3.5616,3.5616,3.5616,3.5616,3.5616,3.5616,3.5616,3.5783,3.6542,3.6837,3.6556,3.6327,3.6065,3.5214,3.4357,3.3833,3.3759,3.3715,3.3671,3.3694,3.3734,3.4133,3.4711,3.4766,3.4766,3.5023,3.522,3.4669,3.4137,3.3935,3.3917,3.4926,3.5257,3.4614,3.4601,3.4912,3.4509,3.4045,3.4284,3.5078,3.5536,3.6064,3.6872,3.7643,3.8138,3.8689,3.9694,3.9388,3.9388,3.9388,3.9328,3.9035,3.8871,3.8616,3.7479,3.6911,3.6701,3.5953,3.5504,3.5489,3.5489,3.5489,3.5489,3.5489,3.5489,3.5668,3.6228,3.6584,3.6873,3.735,3.7946,3.8386,3.869,3.9342,3.9901,4.0113,4.0113,4.0113,4.0113,4.0113,4.0113,4.0113,3.9926,3.9571,3.914,3.8785,3.8362,3.7702,3.7313,3.7161,3.6603,3.6163,3.618,3.5774,3.5633,3.5616,3.5616,3.5616,3.5616,3.5616,3.5616,3.5616,3.5616,3.5616,3.5616,3.5616,3.5616,3.5616,3.5616,3.5616,3.5616,3.5616,3.5616,3.5616,3.5616,3.5616,3.5616,3.5616,3.5616,3.5616,3.5616,3.5616,3.5739,3.6316,3.6507,3.606,3.5818,3.5311,3.4649,3.4165,3.3922,3.3794,3.3776,3.3753,3.3753,3.3793,3.3885,3.4229,3.4325,3.4435,3.4669,3.4633,3.4302,3.399,3.388,3.3917,3.4412,3.4468,3.4302,3.4601,3.4968,3.4729,3.4399,3.4656,3.4894,3.5605,3.6156,3.6541,3.7019,3.7694,3.8285,3.9918,3.9388,3.9388,3.9388,3.9388,3.9373,3.9343,3.92,3.7988,3.733,3.715,3.6058,3.5489,3.5489,3.5489,3.5489,3.5522,3.5718,3.5799,3.5894,3.6783,3.7158,3.7467,3.8342,3.8989,3.9069,3.9166,3.9584,3.9952,4.0113,4.0113,4.0113,4.0113,4.0113,4.0113,4.0113,4.0062,3.991,3.9537,3.9242,3.9056,3.8447,3.8058,3.7669,3.7077,3.6711,3.6502,3.6045,3.5616,3.5616,3.5616,3.5616,3.5616,3.5616,3.5616,3.5616,3.5616,3.5616,3.5616,3.5616,3.5616,3.5616,3.5616,3.5616,3.5616,3.5616,3.5616,3.5616,3.5616,3.5616,3.5616,3.5616,3.5616,3.5616,3.5616,3.5616,3.5711,3.6058,3.5961,3.5436,3.5693,3.5592,3.4826,3.4215,3.4009,3.3844,3.3844,3.3844,3.3844,3.3825,3.3899,3.3917,3.4045,3.4119,3.4284,3.4357,3.399,3.3917,3.3807,3.399,3.41,3.4082,3.4229,3.4743,3.4945,3.4692,3.4527,3.4546,3.4981,3.5716,3.5881,3.5899,3.645,3.7235,3.7804,3.9478,3.9388,3.9388,3.9388,3.9388,3.9388,3.9373,3.92,3.7973,3.7419,3.7195,3.6073,3.5489,3.5489,3.5489,3.5489,3.5619,3.5975,3.6337,3.6615,3.7661,3.8395,3.8481,3.9325,3.9833,3.9885,3.9833,3.9927,4.0045,4.0113,4.0113,4.0113,4.0113,4.0113,4.0113,4.0113,4.0113,4.0113,3.9893,3.9808,3.9639,3.9199,3.8582,3.8108,3.7455,3.7066,3.6721,3.6129,3.5616,3.5616,3.5616,3.5616,3.5616,3.5616,3.5616,3.5616,3.5616,3.5616,3.5616,3.5616,3.5616,3.5616,3.5616,3.5616,3.5616,3.5616,3.5616,3.5616,3.5616,3.5616,3.5616,3.5616,3.5616,3.5616,3.5616,3.5616,3.5694,3.5989,3.6269,3.5841,3.604,3.6063,3.5226,3.4664,3.46,3.4376,3.4151,3.4092,3.4064,3.3954,3.3825,3.3844,3.3844,3.3862,3.3917,3.3954,3.3844,3.3862,3.388,3.4119,3.4156,3.4009,3.4192,3.4504,3.4706,3.4601,3.4509,3.4491,3.4601,3.5037,3.5059,3.5078,3.5738,3.645,3.7125,3.9687,3.9403,3.9388,3.9388,3.9388,3.9388,3.92,3.8766,3.7838,3.7225,3.6731,3.5953,3.5489,3.5489,3.5489,3.5489,3.5716,3.6259,3.6584,3.6995,3.8484,3.9221,3.9164,4.0066,4.029,4.0189,4.0096,4.0113,4.0113,4.0113,4.0113,4.0113,4.0113,4.0113,4.0113,4.0113,4.0113,4.0113,4.0113,4.0113,4.0113,3.9706,3.9351,3.8962,3.8311,3.7973,3.7719,3.6738,3.6265,3.6163,3.5819,3.565,3.5616,3.5616,3.5616,3.5616,3.5616,3.5616,3.5616,3.5616,3.5616,3.5616,3.5616,3.5616,3.5616,3.5616,3.5616,3.5616,3.5616,3.5616,3.5616,3.5616,3.5616,3.5616,3.5622,3.5622,3.5734,3.6135,3.6344,3.6463,3.6557,3.632,3.5616,3.5256,3.5236,3.4964,3.4554,3.4412,3.4344,3.4156,3.399,3.3807,3.3807,3.3807,3.3807,3.3807,3.3807,3.3807,3.3844,3.41,3.4137,3.3935,3.3862,3.399,3.4156,3.4362,3.4491,3.4472,3.4417,3.4325,3.4417,3.4601,3.5059,3.5628,3.6321,3.9903,3.9388,3.9388,3.9388,3.9388,3.9388,3.9035,3.8347,3.7704,3.706,3.6447,3.5818,3.5489,3.5489,3.5519,3.5564,3.5752,3.663,3.7154,3.7626,3.9259,3.9889,3.9734,4.0115,4.0595,4.0163,4.0113,4.0113,4.0113,4.0113,4.0113,4.0113,4.0113,4.0113,4.0113,4.0113,4.0113,4.0113,4.0113,4.0113,4.0113,4.0113,4.0113,4.0028,3.9377,3.8903,3.8684,3.7432,3.6795,3.6485,3.6079,3.5616,3.5616,3.5616,3.5616,3.5616,3.5616,3.5616,3.5616,3.5616,3.5616,3.5616,3.5616,3.5616,3.5616,3.5616,3.5616,3.5616,3.5616,3.5616,3.5616,3.5616,3.5616,3.5644,3.5711,3.5783,3.5876,3.6211,3.6845,3.6967,3.7037,3.6801,3.6318,3.614,3.6197,3.5725,3.5314,3.4921,3.4821,3.4472,3.4247,3.3935,3.3807,3.3807,3.3807,3.3807,3.3807,3.3807,3.3807,3.3935,3.3917,3.3844,3.3807,3.3807,3.3844,3.4064,3.4266,3.4394,3.4229,3.4082,3.3972,3.4119,3.4504,3.4949,3.5573,3.9499,3.9388,3.9388,3.9388,3.9388,3.9388,3.902,3.8362,3.7719,3.706,3.6447,3.5848,3.5549,3.5522,3.5554,3.5851,3.6611,3.7701,3.8382,3.8681,4.0205,4.0649,4.0053,4.0054,4.04,4.0197,4.0163,4.0113,4.018,4.018,4.0113,4.0113,4.0113,4.0113,4.0113,4.0113,4.0113,4.0113,4.0113,4.0113,4.0113,4.0113,4.0113,3.991,3.9503,3.9089,3.8954,3.7821,3.7066,3.6812,3.6079,3.565,3.5616,3.5616,3.5616,3.5616,3.5616,3.5616,3.5616,3.5616,3.5616,3.5616,3.5616,3.5616,3.5633,3.5723,3.5757,3.5616,3.5644,3.5739,3.5805,3.5711,3.5644,3.5849,3.6118,3.6028,3.6011,3.6709,3.7305,3.7524,3.7602,3.7608,3.7381,3.7264,3.711,3.6567,3.6076,3.5705,3.5279,3.4949,3.4564,3.4284,3.3862,3.3807,3.3807,3.3807,3.3807,3.3807,3.3807,3.3807,3.3807,3.3807,3.3807,3.3807,3.3807,3.3807,3.399,3.4027,3.3917,3.3899,3.388,3.3862,3.388,3.4362,3.4912,3.9388,3.9388,3.9388,3.9388,3.9388,3.9388,3.9035,3.8422,3.8093,3.7404,3.6567,3.6222,3.5863,3.5707,3.5894,3.6286,3.6892,3.8221,3.9169,3.9797,4.0925,4.1373,4.0975,4.1052,4.1094,4.0333,4.0502,4.0764,4.0612,4.0316,4.0113,4.013,4.0113,4.0113,4.0113,4.0113,4.0113,4.0113,4.0113,4.0113,4.0113,4.0113,4.0113,4.0096,3.9774,3.9639,3.9309,3.8684,3.7845,3.7432,3.6688,3.6028,3.5735,3.5616,3.5616,3.5616,3.5616,3.5616,3.5616,3.5616,3.5616,3.5616,3.5616,3.5616,3.5684,3.596,3.614,3.6067,3.6054,3.6143,3.6395,3.6501,3.6501,3.6586,3.6646,3.6603,3.6646,3.7268,3.7843,3.7998,3.8132,3.8118,3.8102,3.8028,3.7802,3.739,3.7028,3.6747,3.6156,3.5514,3.5078,3.4656,3.4211,3.3807,3.3807,3.3807,3.3807,3.3807,3.3807,3.3807,3.3807,3.3807,3.3807,3.3807,3.3807,3.3807,3.3807,3.3825,3.3844,3.3844,3.3807,3.3807,3.3807,3.3917,3.4523,3.9388,3.9388,3.9388,3.9388,3.9388,3.9388,3.9035,3.8422,3.8362,3.7659,3.6787,3.6499,3.6373,3.6415,3.6832,3.7279,3.7887,3.8782,3.9572,4.058,4.1395,4.1617,4.1221,4.1373,4.1339,4.0367,4.0553,4.1018,4.1102,4.0663,4.0197,4.0333,4.0197,4.013,4.0113,4.0113,4.0113,4.0113,4.0113,4.0113,4.0113,4.0113,4.0113,4.0113,4.0096,4.0113,3.9994,3.9334,3.8599,3.7872,3.711,3.6349,3.5752,3.5616,3.5616,3.5616,3.5616,3.5616,3.5616,3.5616,3.5616,3.5616,3.565,3.5701,3.5994,3.6406,3.6564,3.6326,3.635,3.6623,3.702,3.7152,3.7058,3.7078,3.7248,3.7248,3.7341,3.7825,3.8048,3.8032,3.8218,3.853,3.856,3.8615,3.8452,3.8138,3.7927,3.7723,3.7019,3.6193,3.5536,3.5078,3.4692,3.4192,3.388,3.3862,3.3844,3.3844,3.3844,3.3807,3.3807,3.3807,3.3807,3.3807,3.3807,3.3807,3.3807,3.3807,3.3807,3.3807,3.3807,3.3807,3.3825,3.3917,3.4211,3.9388,3.9388,3.9388,3.9388,3.9388,3.9388,3.902,3.8497,3.8437,3.7818,3.6923,3.6701,3.7435,3.8075,3.8207,3.8882,4.0494,4.0201,4.0581,4.1172,4.173,4.1523,4.117,4.1119,4.1221,4.0865,4.0747,4.117,4.1491,4.062,4.0612,4.095,4.0383,4.018,4.0113,4.0113,4.0113,4.0113,4.0113,4.0113,4.0113,4.0113,4.0113,4.0113,4.0113,4.0096,4.0079,3.9402,3.8667,3.7939,3.7178,3.6417,3.5769,3.5616,3.5616,3.5616,3.5616,3.565,3.5735,3.5667,3.5633,3.5616,3.5802,3.609,3.6434,3.5977,3.6012,3.6426,3.656,3.6823,3.7114,3.7228,3.7451,3.756,3.772,3.772,3.7843,3.8185,3.835,3.8133,3.834,3.8779,3.9056,3.9129,3.8854,3.8538,3.8357,3.8157,3.7639,3.6835,3.6064,3.5518,3.5206,3.4692,3.4064,3.4009,3.4156,3.4045,3.3954,3.388,3.3807,3.3807,3.3807,3.3807,3.3807,3.3807,3.3807,3.3807,3.3807,3.3807,3.3862,3.4082,3.4229,3.4376,3.4564,3.9388,3.9388,3.9388,3.9388,3.9388,3.9388,3.9275,3.9065,3.9005,3.8847,3.842,3.8247,3.8567,3.9334,3.9906,4.0254,4.1128,4.1444,4.1797,4.2161,4.2304,4.1965,4.1525,4.1136,4.0967,4.0696,4.0629,4.0899,4.1339,4.057,4.0696,4.0747,4.0426,4.0214,4.0113,4.0113,4.0113,4.0113,4.0113,4.0113,4.0113,4.0113,4.0113,4.0113,4.0113,4.0113,3.9994,3.9385,3.8667,3.7939,3.7178,3.6417,3.5752,3.5633,3.5616,3.5616,3.5616,3.5785,3.6062,3.5926,3.5802,3.64,3.6721,3.6941,3.6846,3.6434,3.6547,3.6786,3.6882,3.7114,3.7965,3.8135,3.8203,3.8185,3.8168,3.8168,3.8394,3.8729,3.8925,3.884,3.8978,3.9279,3.9478,3.9646,3.9276,3.8896,3.8747,3.8542,3.8028,3.7584,3.6853,3.6285,3.5973,3.5646,3.5073,3.4798,3.4578,3.4376,3.4211,3.4174,3.4137,3.3807,3.3807,3.3807,3.3862,3.388,3.388,3.3825,3.3825,3.3825,3.4174,3.4601,3.4729,3.4821,3.5151,3.9388,3.9388,3.9388,3.9388,3.9388,3.9388,3.929,3.9125,3.9065,3.9369,3.9656,3.9326,3.9902,4.0826,4.1255,4.1682,4.1926,4.216,4.2546,4.2749,4.2716,4.2371,4.2066,4.1863,4.1593,4.0815,4.0865,4.1288,4.1627,4.0587,4.0629,4.0764,4.0519,4.018,4.0113,4.0113,4.0113,4.0113,4.0113,4.0113,4.0113,4.0113,4.0113,4.0113,4.0113,4.0113,3.9926,3.9419,3.865,3.7939,3.7195,3.6417,3.5926,3.5616,3.5616,3.5616,3.5667,3.5887,3.6146,3.6332,3.6299,3.7043,3.6789,3.6891,3.6857,3.6649,3.6435,3.7085,3.7192,3.7614,3.8585,3.8596,3.853,3.8465,3.8499,3.8535,3.8917,3.9279,3.9481,3.9617,3.9808,3.9992,3.9533,3.9643,3.9478,3.9111,3.8872,3.8726,3.8505,3.8083,3.7716,3.7221,3.6868,3.656,3.6248,3.5807,3.5385,3.522,3.5018,3.478,3.4614,3.4321,3.4174,3.4339,3.4307,3.4069,3.4045,3.4119,3.4009,3.3844,3.4307,3.4876,3.5206,3.5371,3.5899,3.9388,3.9388,3.9388,3.9388,3.9388,3.9388,3.9065,3.8542,3.8457,3.8952,3.9788,3.9864,4.114,4.2548,4.2635,4.2762,4.3008,4.2743,4.2655,4.2851,4.3064,4.2489,4.2269,4.2236,4.2066,4.139,4.1221,4.1474,4.1931,4.0705,4.062,4.0713,4.0417,4.0113,4.0113,4.0113,4.0113,4.0113,4.0113,4.0113,4.0113,4.0113,4.0113,4.0113,4.0113,4.0113,3.996,3.9377,3.8667,3.7939,3.7218,3.6417,3.5718,3.5616,3.5616,3.5616,3.5616,3.5684,3.5769,3.6383,3.6975,3.7415,3.7009,3.6434,3.6535,3.6361,3.6384,3.7339,3.7416,3.7864,3.838,3.8734,3.8758,3.8891,3.8927,3.9019,3.9423,3.9882,4.0104,4.0325,4.0655,4.0765,4.001,3.9515,3.9496,3.9276,3.9001,3.8836,3.8707,3.8524,3.8175,3.7991,3.7639,3.7437,3.7074,3.6593,3.6211,3.6046,3.5789,3.5477,3.5349,3.522,3.511,3.5004,3.4931,3.4853,3.4651,3.4486,3.4559,3.4688,3.4656,3.5059,3.5463,3.5866,3.6321,3.9388,3.9388,3.9388,3.9388,3.9388,3.9388,3.902,3.8377,3.8092,3.8766,4.0308,4.0622,4.1945,4.3435,4.3934,4.3859,4.3978,4.4062,4.3819,4.3724,4.3606,4.3172,4.2851,4.2574,4.2219,4.1457,4.1204,4.1018,4.0739,4.0265,4.0248,4.0316,4.0299,4.013,4.0113,4.0113,4.0113,4.0113,4.0113,4.0113,4.0113,4.0113,4.0113,4.0113,4.0113,4.0113,4.0062,3.9377,3.8684,3.8007,3.732,3.6502,3.5836,3.5684,3.5633,3.5616,3.5633,3.6157,3.662,3.7144,3.7127,3.728,3.7043,3.6468,3.6711,3.6609,3.7038,3.774,3.8088,3.8829,3.9938,3.927,3.916,3.9488,3.9588,3.9606,3.99,4.0432,4.0802,4.1022,4.1315,4.1625,4.124,3.9974,3.9625,3.9405,3.9129,3.8854,3.8707,3.8689,3.8505,3.8505,3.8322,3.8193,3.79,3.7386,3.7125,3.6982,3.6541,3.6046,3.5973,3.6101,3.5716,3.5445,3.5569,3.5661,3.544,3.5293,3.555,3.5679,3.5628,3.5862,3.6431,3.6541,3.6505,3.9388,3.9388,3.9388,3.9388,3.9388,3.9388,3.902,3.8392,3.7997,3.8982,4.0706,4.126,4.2495,4.4049,4.4598,4.4316,4.4248,4.4496,4.4259,4.4231,4.4028,4.3623,4.3318,4.3064,4.2472,4.1677,4.1356,4.1204,4.0299,4.0146,4.0146,4.0163,4.0113,4.0113,4.0113,4.0113,4.0113,4.0113,4.0113,4.0113,4.0113,4.0113,4.0113,4.0113,4.0113,4.0113,3.991,3.9436,3.8785,3.8193,3.7567,3.6829,3.6282,3.6028,3.5893,3.5718,3.6011,3.6654,3.7347,3.7516,3.755,3.777,3.7195,3.6863,3.6949,3.7234,3.7884,3.8526,3.8974,3.9851,4.0647,3.9838,3.9922,4.029,4.0322,4.0341,4.0799,4.1334,4.1717,4.1919,4.2121,4.2378,4.2176,4.0891,3.9808,3.9533,3.9221,3.8964,3.8726,3.8707,3.8707,3.8689,3.867,3.8505,3.8377,3.8175,3.7955,3.7915,3.7382,3.6776,3.6964,3.711,3.6505,3.6013,3.634,3.6468,3.6211,3.6156,3.6395,3.6523,3.6578,3.6909,3.7456,3.7401,3.7184,3.9388,3.9388,3.9388,3.9388,3.9388,3.9388,3.902,3.8392,3.8317,3.9305,4.1021,4.1661,4.2904,4.4305,4.4598,4.4248,4.3876,4.435,4.4164,4.3927,4.4012,4.3809,4.3741,4.369,4.2625,4.1914,4.1508,4.1153,4.0214,4.0113,4.0113,4.0113,4.0113,4.0113,4.0113,4.0113,4.0113,4.0113,4.0113,4.0113,4.0113,4.0113,4.0113,4.0113,4.0113,4.0113,3.9926,3.9537,3.914,3.8717,3.8294,3.7591,3.7123,3.6863,3.6332,3.618,3.6518,3.7212,3.7855,3.7922,3.8024,3.8156,3.763,3.7119,3.7222,3.7951,3.8829,3.9456,3.9984,4.06,4.1075,4.1002,4.0947,4.1064,4.1113,4.1423,4.1919,4.2341,4.269,4.2928,4.3094,4.3039,4.2286,4.1185,4.0377,3.9735,3.9423,3.9038,3.8817,3.8707,3.8707,3.8707,3.8689,3.8689,3.8597,3.8487,3.845,3.8267,3.8043,3.7621,3.7881,3.7918,3.7349,3.7037,3.729,3.7327,3.7184,3.7129,3.7184,3.7312,3.7422,3.7551,3.7936,3.8212,3.8193,3.9388,3.9388,3.9388,3.9388,3.9388,3.9388,3.9035,3.8377,3.7978,3.8906,4.1021,4.1725,4.3045,4.4514,4.4598,4.4429,4.4412,4.4445,4.4462,4.4282,4.3944,4.3629,4.3409,4.3183,4.2269,4.1677,4.1288,4.1145,4.0333,4.0113,4.0113,4.0113,4.0113,4.0113,4.0113,4.0113,4.0113,4.0113,4.0113,4.0113,4.0113,4.0113,4.0113,4.0113,4.0113,4.0113,3.9977,3.9893,3.9554,3.9054,3.886,3.8438,3.8222,3.7837,3.7381,3.7324,3.7567,3.7905,3.843,3.821,3.8258,3.8991,3.8935,3.8344,3.8316,3.883,3.9843,4.0453,4.1048,4.165,4.1955,4.195,4.1893,4.1906,4.1939,4.2139,4.258,4.2855,4.3167,4.3277,4.3479,4.3222,4.2451,4.2011,4.1222,4.0304,3.9625,3.9258,3.8927,3.8817,3.8707,3.8707,3.8707,3.8707,3.8707,3.8615,3.8652,3.8615,3.8358,3.823,3.834,3.8267,3.8025,3.7878,3.7804,3.801,3.8267,3.8157,3.79,3.8157,3.8285,3.8322,3.8414,3.8579,3.8707,3.9388,3.9388,3.9388,3.9574,3.9809,3.9304,3.9097,3.9217,3.8906,3.9946,4.1843,4.2357,4.329,4.4412,4.4598,4.4564,4.4519,4.4147,4.4147,4.435,4.3741,4.3555,4.32,4.2828,4.2219,4.1593,4.1085,4.0882,4.0282,4.0113,4.0113,4.0113,4.0113,4.0113,4.0113,4.0113,4.0113,4.0113,4.0113,4.0113,4.0113,4.0113,4.0113,4.0113,4.0113,4.0113,4.0113,4.0113,3.9908,3.9747,3.9768,3.9686,3.9399,3.8937,3.8654,3.862,3.8687,3.8881,3.9207,3.9337,3.9422,3.9783,4.0301,4.0205,4.0184,4.0573,4.1109,4.1618,4.2178,4.2644,4.2759,4.2847,4.2789,4.2729,4.2746,4.2763,4.3002,4.324,4.3369,4.3442,4.3387,4.3258,4.291,4.2561,4.2084,4.124,4.0377,3.9662,3.9258,3.8946,3.8799,3.8707,3.8707,3.8707,3.8707,3.8707,3.8707,3.8707,3.8634,3.856,3.8707,3.8615,3.8358,3.8193,3.8065,3.8322,3.8579,3.8634,3.8524,3.8707,3.8707,3.8597,3.8542,3.8615,3.8707,3.9388,3.9388,3.9388,3.9864,4.0452,3.9398,3.9703,4.0991,4.0918,4.174,4.293,4.3243,4.3726,4.4468,4.4598,4.4598,4.4451,4.4113,4.4012,4.4479,4.3538,4.3115,4.2919,4.2987,4.1779,4.1288,4.0967,4.0595,4.0265,4.0113,4.0113,4.0113,4.0113,4.0113,4.0113,4.0113,4.0113,4.0113,4.0113,4.0113,4.0113,4.0113,4.0113,4.0113,4.0113,4.0113,4.0113,4.0179,4.0343,4.0685,4.0828,4.0707,4.0531,4.0349,4.0109,3.9909,3.9976,4.004,4.0231,4.044,4.0478,4.0753,4.1133,4.1534,4.1762,4.1744,4.2076,4.2289,4.2735,4.3032,4.3175,4.3209,4.3169,4.315,4.3149,4.3149,4.3259,4.3406,4.3424,4.3479,4.3461,4.3314,4.3276,4.291,4.2543,4.1937,4.1368,4.0469,3.9698,3.9276,3.9019,3.8854,3.8707,3.8707,3.8707,3.8707,3.8707,3.8707,3.8707,3.8707,3.8707,3.8707,3.8707,3.8524,3.8358,3.8505,3.8689,3.8707,3.8707,3.8707,3.8707,3.8707,3.8707,3.8707,3.8707,3.9388,3.9388,3.9388,3.9884,4.0625,4.0349,4.1117,4.2664,4.2688,4.2551,4.2634,4.3132,4.3785,4.4514,4.4598,4.4598,4.4496,4.4164,4.4028,4.3724,4.3081,4.2591,4.1847,4.1728,4.0959,4.0536,4.0316,4.035,4.0163,4.0113,4.0113,4.0113,4.0113,4.0113,4.0113,4.0113,4.0113,4.0113,4.0113,4.0113,4.0113,4.0113,4.0113,4.0113,4.0113,4.0113,4.0096,4.0146,4.0424,4.078,4.0856,4.1084,4.1449,4.1743,4.168,4.1428,4.1225,4.1229,4.1282,4.1462,4.1517,4.1866,4.2277,4.2661,4.2847,4.2788,4.2788,4.292,4.3069,4.3321,4.3479,4.3479,4.3479,4.3479,4.3479,4.3479,4.3479,4.3479,4.3479,4.3479,4.3479,4.3461,4.3424,4.324,4.2892,4.2543,4.2231,4.1497,4.0432,3.9808,3.9478,3.9221,3.8781,3.8707,3.8762,3.8707,3.8707,3.8707,3.8707,3.8707,3.8707,3.8707,3.8707,3.8707,3.867,3.8707,3.8707,3.8707,3.8707,3.8707,3.8707,3.8707,3.8707,3.8707,3.8707,3.9388,3.9388,3.9388,3.9884,4.061,4.0767,4.1565,4.2722,4.3182,4.3127,4.286,4.3518,4.415,4.457,4.4598,4.4564,4.4496,4.4147,4.4113,4.3707,4.2963,4.2489,4.1728,4.1094,4.0722,4.0367,4.0163,4.013,4.0113,4.0113,4.0113,4.0113,4.0113,4.0113,4.0113,4.0113,4.0113,4.0113,4.0113,4.0113,4.0113,4.0113,4.0113,4.0113,4.0113,4.0096,4.0204,4.0311,4.0797,4.1385,4.1817,4.1982,4.2352,4.2625,4.2641,4.2329,4.2167,4.2221,4.22,4.2262,4.2362,4.2655,4.2995,4.3196,4.3249,4.3178,4.316,4.325,4.3268,4.3479,4.3479,4.3479,4.3479,4.3479,4.3479,4.3479,4.3479,4.3479,4.3479,4.3479,4.3479,4.3479,4.3461,4.3442,4.313,4.3002,4.2727,4.2304,4.1295,4.0524,4.0139,3.9735,3.9368,3.9184,3.9331,3.9074,3.8707,3.8707,3.8762,3.8762,3.8799,3.8726,3.8707,3.8707,3.8707,3.8707,3.8707,3.8707,3.8707,3.8707,3.8707,3.8707,3.8707,3.8707,3.8707,3.9388,3.9388,3.9388,3.99,4.0681,4.0974,4.1554,4.2446,4.3194,4.3595,4.3607,4.4243,4.4564,4.4598,4.4598,4.453,4.431,4.3826,4.391,4.3538,4.3132,4.2168,4.183,4.1796,4.1102,4.0629,4.0434,4.0231,4.0113,4.0113,4.0113,4.0113,4.0113,4.0113,4.0113,4.0113,4.0113,4.0113,4.0113,4.0113,4.0113,4.0113,4.0113,4.0113,4.0096,4.0146,4.0319,4.0631,4.1201,4.1982,4.2678,4.2865,4.294,4.3142,4.3087,4.2884,4.2771,4.2789,4.2789,4.2808,4.2808,4.2958,4.3303,4.3462,4.3479,4.3479,4.3462,4.3462,4.3479,4.3479,4.3479,4.3479,4.3479,4.3479,4.3479,4.3479,4.3479,4.3479,4.3479,4.3479,4.3479,4.3479,4.3479,4.3479,4.3424,4.3296,4.3075,4.2653,4.2158,4.1607,4.113,4.0671,4.023,4.0102,3.99,3.9753,3.9331,3.8982,3.9056,3.8964,3.8927,3.9093,3.9038,3.8707,3.8707,3.8707,3.8707,3.8707,3.8707,3.8707,3.8707,3.8707,3.8707,3.8707,3.8707,3.9388,3.9388,3.9388,3.99,4.0727,4.145,4.2295,4.3168,4.3944,4.4378,4.4333,4.4445,4.4598,4.4598,4.4598,4.4445,4.3978,4.3521,4.254,4.1863,4.2202,4.1424,4.0984,4.1322,4.1221,4.095,4.0679,4.0578,4.0197,4.0113,4.0113,4.0113,4.0113,4.0113,4.0113,4.0113,4.0113,4.0113,4.0113,4.0113,4.0113,4.0113,4.0113,4.0113,4.0113,4.0392,4.0655,4.081,4.1556,4.2364,4.3087,4.3322,4.3375,4.3392,4.3339,4.3286,4.3214,4.3232,4.3214,4.3214,4.3196,4.3232,4.3479,4.3479,4.3479,4.3479,4.3479,4.3479,4.3479,4.3479,4.3479,4.3479,4.3479,4.3479,4.3479,4.3479,4.3479,4.3479,4.3479,4.3479,4.3479,4.3479,4.3479,4.3479,4.3479,4.3406,4.3406,4.2983,4.2561,4.2286,4.2066,4.1644,4.1148,4.0469,4.0047,4.0543,4.0288,3.9793,3.9478,3.9588,3.9662,3.968,3.9496,3.8909,3.8707,3.8707,3.8707,3.8707,3.8707,3.8707,3.8707,3.8707,3.8707,3.8707,3.8707]}]]